[[{"header":{"parameterUnit":"m.s-1","parameterCategory":1,"la1":31.0,"la2":29.5877,"lo1":-88.7671,"lo2":-86.6584,"dy":0.0162,"dx":0.0185,"nx":115,"ny":88,"refTime":"2023-04-29T06:00:00:Z","depth":0,"parameterNumber":2,"parameterNumberName":"U-component_of_WINDS"},"data":[0.0,0.0,0.0,0.0,0.0,0.0,0.0,0.0,0.0,0.0,0.0,0.0,0.0,0.0,0.0,0.0,0.0,0.0,0.0,0.0,0.0,0.0,0.0,0.0,0.0,0.0,0.0,0.0,0.0,0.0,0.0,0.0,0.0,0.0,0.0,0.0,0.0,0.0,0.0,0.0,0.0,0.0,0.0,0.0,0.0,0.0,0.0,0.0,0.0,0.0,0.0,0.0,0.0,0.0,0.0,0.0,0.0,0.0,0.0,0.0,0.0,0.0,0.0,0.0,0.0,0.0,0.0,0.0,0.0,0.0,0.0,0.0,0.0,0.0,0.0,0.0,0.0,0.0,0.0,0.0,0.0,0.0,0.0,0.0,0.0,0.0,0.0,0.0,0.0,0.0,0.0,0.0,0.0,0.0,0.0,0.0,0.0,0.0,0.0,0.0,0.0,0.0,0.0,0.0,0.0,0.0,0.0,0.0,0.0,0.0,0.0,0.0,0.0,0.0,0.0,0.0,0.0,0.0,0.0,0.0,0.0,0.0,0.0,0.0,0.0,0.0,0.0,0.0,0.0,0.0,0.0,0.0,0.0,0.0,0.0,0.0,0.0,0.0,0.0,0.0,0.0,0.0,0.0,0.0,0.0,0.0,0.0,0.0,0.0,0.0,0.0,0.0,0.0,0.0,0.0,0.0,0.0,0.0,0.0,0.0,0.0,0.0,0.0,0.0,0.0,0.0,0.0,0.0,0.0,0.0,0.0,0.0,0.0,0.0,0.0,0.0,0.0,0.0,0.0,0.0,0.0,0.0,0.0,0.0,0.0,0.0,0.0,0.0,0.0,0.0,0.0,0.0,0.0,0.0,0.0,0.0,0.0,0.0,0.0,0.0,0.0,0.0,0.0,0.0,0.0,0.0,0.0,0.0,0.0,0.0,0.0,0.0,0.0,0.0,0.0,0.0,0.0,0.0,0.0,0.0,0.0,0.0,0.0,0.0,0.0,0.0,0.0,0.0,0.0,0.0,0.0,0.0,0.0,0.0,0.0,0.0,0.0,0.0,0.0,0.0,0.0,0.0,0.0,0.0,0.0,0.0,0.0,0.0,0.0,0.0,0.0,0.0,0.0,0.0,0.0,0.0,0.0,0.0,0.0,0.0,0.0,0.0,0.0,0.0,0.0,0.0,0.0,0.0,0.0,0.0,0.0,0.0,0.0,0.0,0.0,0.0,0.0,0.0,0.0,0.0,0.0,0.0,0.0,0.0,0.0,0.0,0.0,0.0,0.0,0.0,0.0,0.0,0.0,0.0,0.0,0.0,0.0,0.0,0.0,0.0,0.0,0.0,0.0,0.0,0.0,0.0,0.0,0.0,0.0,0.0,0.0,0.0,0.0,0.0,0.0,0.0,0.0,0.0,0.0,0.0,0.0,0.0,0.0,0.0,0.0,0.0,0.0,0.0,0.0,0.0,0.0,0.0,0.0,0.0,0.0,0.0,0.0,0.0,0.0,0.0,0.0,0.0,0.0,0.0,0.0,0.0,0.0,0.0,0.0,0.0,0.0,0.0,0.0,0.0,0.0,0.0,0.0,0.0,0.0,0.0,0.0,0.0,0.0,0.0,0.0,0.0,0.0,0.0,0.0,0.0,0.0,0.0,0.0,0.0,0.0,0.0,0.0,0.0,0.0,0.0,0.0,0.0,0.0,0.0,0.0,0.0,0.0,0.0,0.0,0.0,0.0,0.0,0.0,0.0,0.0,0.0,0.0,0.0,0.0,0.0,0.0,0.0,0.0,0.0,0.0,0.0,0.0,0.0,0.0,0.0,0.0,0.0,0.0,0.0,0.0,0.0,0.0,0.0,0.0,0.0,0.0,0.0,0.0,0.0,0.0,0.0,0.0,0.0,0.0,0.0,0.0,0.0,0.0,0.0,0.0,0.0,0.0,0.0,0.0,0.0,0.0,0.0,0.0,0.0,0.0,0.0,0.0,0.0,0.0,0.0,0.0,0.0,0.0,0.0,0.0,0.0,0.0,0.0,0.0,0.0,0.0,0.0,0.0,0.0,0.0,0.0,0.0,0.0,0.0,0.0,0.0,0.0,0.0,0.0,0.0,0.0,0.0,0.0,0.0,0.0,0.0,0.0,0.0,0.0,0.0,0.0,0.0,0.0,0.0,0.0,0.0,0.0,0.0,0.0,0.0,0.0,0.0,0.0,0.0,0.0,0.0,0.0,0.0,0.0,0.0,0.0,0.0,0.0,0.0,0.0,0.0,0.0,0.0,0.0,0.0,0.0,0.0,0.0,0.0,0.0,0.0,0.0,0.0,0.0,0.0,0.0,0.0,0.0,0.0,0.0,0.0,0.0,0.0,0.0,0.0,0.0,0.0,0.0,0.0,0.0,0.0,0.0,0.0,0.0,0.0,0.0,0.0,0.0,0.0,0.0,0.0,0.0,0.0,0.0,0.0,0.0,0.0,0.0,0.0,0.0,0.0,0.0,0.0,0.0,0.0,0.0,0.0,0.0,0.0,0.0,0.0,0.0,0.0,0.0,0.0,0.0,0.0,0.0,0.0,0.0,0.0,0.0,0.0,0.0,0.0,0.0,0.0,0.0,0.0,0.0,0.0,0.0,0.0,0.0,0.0,0.0,0.0,0.0,0.0,0.0,0.0,0.0,0.0,0.0,0.0,0.0,0.0,0.0,0.0,0.0,0.0,0.0,0.0,0.0,0.0,0.0,0.0,0.0,0.0,0.0,0.0,0.0,0.0,0.0,0.0,0.0,0.0,0.0,0.0,0.0,0.0,0.0,0.0,0.0,0.0,0.0,0.0,0.0,0.0,0.0,0.0,0.0,0.0,0.0,0.0,0.0,0.0,0.0,0.0,0.0,0.0,0.0,0.0,0.0,0.0,0.0,0.0,0.0,0.0,0.0,0.0,0.0,0.0,0.0,0.0,0.0,0.0,0.0,0.0,0.0,0.0,0.0,0.0,0.0,0.0,0.0,0.0,0.0,0.0,0.0,0.0,0.0,0.0,0.0,0.0,0.0,0.0,0.0,0.0,0.0,0.0,0.0,0.0,0.0,0.0,0.0,0.0,0.0,0.0,0.0,0.0,0.0,0.0,0.0,0.0,0.0,0.0,0.0,0.0,0.0,0.0,0.0,0.0,0.0,0.0,0.0,0.0,0.0,0.0,0.0,0.0,0.0,0.0,0.0,0.0,0.0,0.0,0.0,0.0,0.0,0.0,0.0,0.0,0.0,0.0,0.0,0.0,0.0,0.0,0.0,0.0,0.0,0.0,0.0,0.0,0.0,0.0,0.0,0.0,0.0,0.0,0.0,0.0,0.0,0.0,0.0,0.0,0.0,0.0,0.0,0.0,0.0,0.0,0.0,0.0,0.0,0.0,0.0,0.0,0.0,0.0,0.0,0.0,0.0,0.0,0.0,0.0,0.0,0.0,0.0,0.0,0.0,0.0,0.0,0.0,0.0,0.0,0.0,0.0,0.0,0.0,0.0,0.0,0.0,0.0,0.0,0.0,0.0,0.0,0.0,0.0,0.0,0.0,0.0,0.0,0.0,0.0,0.0,0.0,0.0,0.0,0.0,0.0,0.0,0.0,0.0,0.0,0.0,0.0,0.0,0.0,0.0,0.0,0.0,0.0,0.0,0.0,0.0,0.0,0.0,0.0,0.0,0.0,0.0,0.0,0.0,0.0,0.0,0.0,0.0,0.0,0.0,0.0,0.0,0.0,0.0,0.0,0.0,0.0,0.0,0.0,0.0,0.0,0.0,0.0,0.0,0.0,0.0,0.0,0.0,0.0,0.0,0.0,0.0,0.0,0.0,0.0,0.0,0.0,0.0,0.0,0.0,0.0,0.0,0.0,0.0,0.0,0.0,0.0,0.0,0.0,0.0,0.0,0.0,0.0,0.0,0.0,0.0,0.0,0.0,0.0,0.0,0.0,0.0,0.0,0.0,0.0,0.0,0.0,0.0,0.0,0.0,0.0,0.0,0.0,0.0,0.0,0.0,0.0,0.0,0.0,0.0,0.0,0.0,0.0,0.0,0.0,0.0,0.0,0.0,0.0,0.0,0.0,0.0,0.0,0.0,0.0,0.0,0.0,0.0,0.0,0.0,0.0,0.0,0.0,0.0,0.0,0.0,0.0,0.0,0.0,0.0,0.0,0.0,0.0,0.0,0.0,0.0,0.0,0.0,0.0,0.0,0.0,0.0,0.0,0.0,0.0,0.0,0.0,0.0,0.0,0.0,0.0,0.0,0.0,0.0,-4.032,0.0,0.0,0.0,0.0,0.0,0.0,0.0,0.0,0.0,0.0,0.0,0.0,0.0,0.0,0.0,0.0,0.0,0.0,0.0,0.0,0.0,0.0,0.0,0.0,0.0,0.0,0.0,0.0,0.0,0.0,0.0,0.0,0.0,0.0,0.0,0.0,0.0,0.0,0.0,0.0,0.0,0.0,0.0,0.0,0.0,0.0,0.0,0.0,0.0,0.0,0.0,0.0,0.0,0.0,0.0,0.0,0.0,0.0,0.0,0.0,0.0,0.0,0.0,0.0,0.0,0.0,0.0,0.0,0.0,0.0,0.0,0.0,0.0,0.0,0.0,0.0,0.0,0.0,0.0,0.0,0.0,0.0,0.0,0.0,0.0,0.0,0.0,0.0,0.0,0.0,0.0,0.0,0.0,0.0,0.0,0.0,0.0,0.0,0.0,0.0,0.0,0.0,0.0,0.0,0.0,0.0,0.0,0.0,0.0,0.0,-4.032,-4.032,-4.032,-4.032,-4.032,0.0,0.0,0.0,0.0,0.0,0.0,0.0,0.0,0.0,0.0,0.0,0.0,0.0,0.0,0.0,0.0,0.0,0.0,0.0,0.0,0.0,0.0,0.0,0.0,0.0,0.0,0.0,0.0,0.0,0.0,0.0,0.0,0.0,0.0,0.0,0.0,0.0,0.0,0.0,0.0,0.0,0.0,0.0,0.0,0.0,0.0,0.0,0.0,0.0,0.0,0.0,0.0,0.0,0.0,0.0,0.0,0.0,0.0,0.0,0.0,0.0,0.0,0.0,0.0,0.0,0.0,0.0,0.0,0.0,0.0,0.0,0.0,0.0,0.0,0.0,0.0,0.0,0.0,0.0,0.0,0.0,0.0,0.0,0.0,0.0,0.0,0.0,0.0,0.0,0.0,0.0,0.0,0.0,0.0,0.0,0.0,0.0,0.0,0.0,0.0,0.0,0.0,0.0,0.0,0.0,0.0,0.0,0.0,0.0,0.0,0.0,0.0,-4.032,-4.032,-4.032,0.0,0.0,0.0,0.0,0.0,0.0,0.0,0.0,0.0,0.0,0.0,0.0,0.0,0.0,0.0,0.0,0.0,0.0,0.0,0.0,0.0,0.0,0.0,0.0,0.0,0.0,0.0,0.0,0.0,0.0,0.0,0.0,0.0,0.0,0.0,0.0,0.0,0.0,0.0,0.0,0.0,0.0,0.0,0.0,0.0,0.0,0.0,0.0,0.0,0.0,0.0,0.0,0.0,0.0,0.0,0.0,0.0,0.0,0.0,0.0,0.0,0.0,0.0,0.0,0.0,0.0,0.0,0.0,0.0,0.0,0.0,0.0,0.0,0.0,0.0,0.0,0.0,0.0,0.0,0.0,0.0,0.0,0.0,0.0,0.0,0.0,0.0,0.0,0.0,0.0,0.0,0.0,0.0,0.0,0.0,0.0,0.0,0.0,0.0,0.0,0.0,0.0,0.0,0.0,0.0,0.0,0.0,0.0,0.0,0.0,-4.032,-4.032,-4.032,0.0,-4.032,0.0,0.0,0.0,0.0,0.0,0.0,0.0,0.0,0.0,0.0,0.0,0.0,0.0,0.0,0.0,0.0,0.0,0.0,0.0,0.0,0.0,0.0,0.0,0.0,0.0,0.0,0.0,0.0,0.0,0.0,0.0,0.0,0.0,0.0,0.0,0.0,0.0,0.0,0.0,0.0,0.0,0.0,0.0,0.0,0.0,0.0,0.0,0.0,0.0,0.0,0.0,0.0,0.0,0.0,0.0,0.0,0.0,0.0,0.0,0.0,0.0,0.0,0.0,0.0,0.0,0.0,0.0,0.0,0.0,0.0,0.0,0.0,0.0,0.0,0.0,0.0,0.0,0.0,0.0,0.0,0.0,0.0,0.0,0.0,0.0,0.0,0.0,0.0,0.0,0.0,0.0,0.0,0.0,0.0,0.0,0.0,0.0,0.0,0.0,0.0,0.0,0.0,0.0,0.0,0.0,0.0,0.0,0.0,0.0,0.0,-4.032,-4.032,-4.032,-4.032,0.0,0.0,0.0,0.0,0.0,0.0,0.0,0.0,0.0,0.0,0.0,0.0,0.0,0.0,0.0,0.0,0.0,0.0,0.0,0.0,0.0,0.0,0.0,0.0,0.0,0.0,0.0,0.0,0.0,0.0,0.0,0.0,0.0,0.0,0.0,0.0,0.0,0.0,0.0,0.0,0.0,0.0,0.0,0.0,0.0,0.0,0.0,0.0,0.0,0.0,0.0,0.0,0.0,0.0,0.0,0.0,0.0,0.0,0.0,0.0,0.0,0.0,0.0,0.0,0.0,0.0,0.0,0.0,0.0,0.0,0.0,0.0,0.0,0.0,0.0,0.0,0.0,0.0,0.0,0.0,0.0,0.0,0.0,0.0,0.0,0.0,0.0,0.0,0.0,0.0,0.0,0.0,0.0,0.0,0.0,0.0,0.0,0.0,0.0,0.0,0.0,0.0,0.0,0.0,0.0,0.0,0.0,0.0,0.0,0.0,-4.032,-4.032,-4.032,-4.032,-4.032,-4.032,0.0,0.0,0.0,0.0,0.0,0.0,0.0,0.0,0.0,0.0,0.0,0.0,0.0,0.0,0.0,0.0,0.0,0.0,0.0,0.0,0.0,0.0,0.0,0.0,0.0,0.0,0.0,0.0,0.0,0.0,0.0,0.0,0.0,0.0,0.0,0.0,0.0,0.0,0.0,0.0,0.0,0.0,0.0,0.0,0.0,0.0,0.0,0.0,0.0,0.0,0.0,0.0,0.0,0.0,0.0,0.0,0.0,0.0,0.0,0.0,0.0,0.0,0.0,0.0,0.0,0.0,0.0,0.0,0.0,0.0,0.0,0.0,0.0,0.0,0.0,0.0,0.0,0.0,0.0,0.0,0.0,0.0,0.0,0.0,0.0,0.0,0.0,0.0,0.0,0.0,0.0,0.0,0.0,0.0,0.0,0.0,0.0,0.0,0.0,0.0,0.0,0.0,0.0,0.0,0.0,0.0,0.0,0.0,-4.032,-4.032,-4.032,-4.032,-4.032,-4.032,0.0,0.0,0.0,0.0,0.0,0.0,0.0,0.0,0.0,0.0,0.0,0.0,0.0,0.0,0.0,0.0,0.0,0.0,0.0,0.0,0.0,0.0,0.0,0.0,0.0,0.0,0.0,0.0,0.0,0.0,0.0,0.0,0.0,0.0,0.0,0.0,0.0,0.0,0.0,0.0,0.0,0.0,0.0,0.0,0.0,0.0,0.0,0.0,0.0,0.0,0.0,0.0,0.0,0.0,0.0,0.0,0.0,0.0,0.0,0.0,0.0,0.0,0.0,0.0,0.0,0.0,0.0,0.0,0.0,0.0,0.0,0.0,0.0,0.0,0.0,0.0,0.0,0.0,0.0,0.0,0.0,0.0,0.0,0.0,0.0,0.0,0.0,0.0,0.0,0.0,0.0,0.0,0.0,0.0,0.0,0.0,0.0,0.0,0.0,0.0,0.0,0.0,0.0,0.0,0.0,0.0,0.0,0.0,0.0,-4.032,-4.032,-4.032,-4.032,-4.032,-4.032,0.0,0.0,0.0,0.0,0.0,0.0,0.0,0.0,0.0,0.0,0.0,0.0,0.0,0.0,0.0,0.0,0.0,0.0,0.0,0.0,0.0,0.0,0.0,0.0,0.0,0.0,0.0,0.0,0.0,0.0,0.0,0.0,0.0,0.0,0.0,0.0,0.0,0.0,0.0,0.0,0.0,0.0,0.0,0.0,0.0,0.0,0.0,0.0,0.0,0.0,0.0,0.0,0.0,0.0,0.0,0.0,0.0,0.0,0.0,0.0,0.0,0.0,0.0,0.0,0.0,0.0,0.0,0.0,0.0,0.0,0.0,0.0,0.0,0.0,0.0,0.0,0.0,0.0,0.0,0.0,0.0,0.0,0.0,0.0,0.0,0.0,0.0,0.0,0.0,0.0,0.0,0.0,0.0,0.0,0.0,0.0,0.0,0.0,0.0,0.0,0.0,0.0,0.0,0.0,0.0,0.0,0.0,0.0,0.0,-4.0176,0.0,-4.0096,-4.0166,-4.0176,-4.0206,0.0,0.0,0.0,0.0,0.0,0.0,0.0,0.0,0.0,0.0,0.0,0.0,0.0,0.0,0.0,0.0,0.0,0.0,0.0,0.0,0.0,0.0,0.0,0.0,0.0,0.0,0.0,0.0,0.0,0.0,0.0,0.0,0.0,0.0,0.0,0.0,0.0,0.0,0.0,0.0,0.0,0.0,0.0,0.0,0.0,0.0,0.0,0.0,0.0,0.0,0.0,0.0,0.0,0.0,0.0,0.0,0.0,0.0,0.0,0.0,0.0,0.0,0.0,0.0,0.0,0.0,0.0,0.0,0.0,0.0,0.0,0.0,0.0,0.0,0.0,0.0,0.0,0.0,0.0,0.0,0.0,0.0,0.0,0.0,0.0,0.0,0.0,0.0,0.0,0.0,0.0,0.0,0.0,0.0,0.0,0.0,0.0,0.0,0.0,0.0,0.0,0.0,0.0,0.0,0.0,0.0,0.0,0.0,-4.0186,-3.9933,-3.967,-3.9689,-3.9911,-3.9933,-4.0027,0.0,0.0,0.0,0.0,0.0,0.0,0.0,0.0,0.0,0.0,0.0,0.0,0.0,0.0,0.0,0.0,0.0,0.0,0.0,0.0,0.0,0.0,0.0,0.0,0.0,0.0,0.0,0.0,0.0,0.0,0.0,0.0,0.0,0.0,0.0,0.0,0.0,0.0,0.0,0.0,0.0,0.0,0.0,0.0,0.0,0.0,0.0,0.0,0.0,0.0,0.0,0.0,0.0,0.0,0.0,0.0,0.0,0.0,0.0,0.0,0.0,0.0,0.0,0.0,0.0,0.0,0.0,0.0,0.0,0.0,0.0,0.0,0.0,0.0,0.0,0.0,0.0,0.0,0.0,0.0,0.0,0.0,0.0,0.0,0.0,0.0,0.0,0.0,0.0,0.0,0.0,0.0,0.0,0.0,0.0,0.0,0.0,0.0,0.0,0.0,0.0,0.0,0.0,0.0,0.0,0.0,0.0,0.0,0.0,-4.0704,-4.011,-4.0,-4.0433,-4.0279,-4.0137,0.0,0.0,0.0,0.0,0.0,0.0,0.0,0.0,0.0,0.0,0.0,0.0,0.0,0.0,0.0,0.0,0.0,0.0,0.0,0.0,0.0,0.0,0.0,0.0,0.0,0.0,0.0,0.0,0.0,0.0,0.0,0.0,0.0,0.0,0.0,0.0,0.0,0.0,0.0,0.0,0.0,0.0,0.0,0.0,0.0,0.0,0.0,0.0,0.0,0.0,0.0,0.0,0.0,0.0,0.0,0.0,0.0,0.0,0.0,0.0,0.0,0.0,0.0,0.0,0.0,0.0,0.0,0.0,0.0,0.0,0.0,0.0,0.0,0.0,0.0,0.0,0.0,0.0,0.0,0.0,0.0,0.0,0.0,0.0,0.0,0.0,0.0,0.0,0.0,0.0,0.0,0.0,0.0,0.0,0.0,0.0,0.0,0.0,0.0,0.0,0.0,0.0,0.0,0.0,0.0,0.0,0.0,0.0,0.0,-4.071,-3.9915,-3.967,-4.0104,-3.9941,-3.987,-3.9903,0.0,0.0,0.0,0.0,0.0,0.0,0.0,0.0,0.0,0.0,0.0,0.0,0.0,0.0,0.0,0.0,0.0,0.0,0.0,0.0,0.0,0.0,0.0,0.0,0.0,0.0,0.0,0.0,0.0,0.0,0.0,0.0,0.0,0.0,0.0,0.0,0.0,0.0,0.0,0.0,0.0,0.0,0.0,0.0,0.0,0.0,0.0,0.0,0.0,0.0,0.0,0.0,0.0,0.0,0.0,0.0,0.0,0.0,0.0,0.0,0.0,0.0,0.0,0.0,0.0,0.0,0.0,0.0,0.0,0.0,0.0,0.0,0.0,0.0,0.0,0.0,0.0,0.0,0.0,0.0,0.0,0.0,0.0,0.0,0.0,0.0,0.0,0.0,0.0,0.0,0.0,0.0,0.0,0.0,0.0,0.0,0.0,0.0,0.0,0.0,0.0,0.0,0.0,0.0,0.0,0.0,0.0,0.0,-4.0261,-3.9242,-3.8877,-3.9166,-3.9147,-3.9344,0.0,0.0,0.0,0.0,0.0,0.0,0.0,0.0,0.0,0.0,0.0,0.0,0.0,0.0,0.0,0.0,0.0,0.0,0.0,0.0,0.0,0.0,0.0,0.0,0.0,0.0,0.0,0.0,0.0,0.0,0.0,0.0,0.0,0.0,0.0,0.0,0.0,0.0,0.0,0.0,0.0,0.0,0.0,0.0,0.0,0.0,0.0,0.0,0.0,0.0,0.0,0.0,0.0,0.0,0.0,0.0,0.0,0.0,0.0,0.0,0.0,0.0,0.0,0.0,0.0,0.0,0.0,0.0,0.0,0.0,0.0,0.0,0.0,0.0,0.0,0.0,0.0,0.0,0.0,0.0,0.0,0.0,0.0,0.0,0.0,0.0,0.0,0.0,0.0,0.0,0.0,0.0,0.0,0.0,0.0,0.0,0.0,0.0,0.0,0.0,0.0,0.0,0.0,0.0,0.0,0.0,0.0,0.0,0.0,-3.9967,-3.9157,-3.9029,-3.9654,-3.9513,-3.9376,0.0,0.0,0.0,0.0,0.0,0.0,0.0,0.0,0.0,0.0,0.0,0.0,0.0,0.0,0.0,0.0,0.0,0.0,0.0,0.0,0.0,0.0,0.0,0.0,0.0,0.0,0.0,0.0,0.0,0.0,0.0,0.0,0.0,0.0,0.0,0.0,0.0,0.0,0.0,0.0,0.0,0.0,0.0,0.0,0.0,0.0,0.0,0.0,0.0,0.0,0.0,0.0,0.0,0.0,0.0,0.0,0.0,0.0,0.0,0.0,0.0,0.0,0.0,0.0,0.0,0.0,0.0,0.0,0.0,0.0,0.0,0.0,0.0,0.0,0.0,0.0,0.0,0.0,0.0,0.0,0.0,0.0,0.0,0.0,0.0,0.0,0.0,0.0,0.0,0.0,0.0,0.0,0.0,0.0,0.0,0.0,0.0,0.0,0.0,0.0,0.0,0.0,0.0,0.0,0.0,0.0,0.0,0.0,-4.0566,-4.0396,-3.9625,-3.9423,-3.9882,-3.9415,-3.9156,0.0,0.0,0.0,0.0,0.0,0.0,0.0,0.0,0.0,0.0,0.0,0.0,0.0,0.0,0.0,0.0,0.0,0.0,0.0,0.0,0.0,0.0,0.0,0.0,0.0,0.0,0.0,0.0,0.0,0.0,0.0,0.0,0.0,0.0,0.0,0.0,0.0,0.0,0.0,0.0,0.0,0.0,0.0,0.0,0.0,0.0,0.0,0.0,0.0,0.0,0.0,0.0,0.0,0.0,0.0,0.0,0.0,0.0,0.0,0.0,0.0,0.0,0.0,0.0,0.0,0.0,0.0,0.0,0.0,0.0,0.0,0.0,0.0,0.0,0.0,0.0,0.0,0.0,0.0,0.0,0.0,0.0,0.0,0.0,0.0,0.0,0.0,0.0,0.0,0.0,0.0,0.0,0.0,0.0,0.0,0.0,0.0,0.0,0.0,0.0,0.0,0.0,0.0,0.0,0.0,0.0,0.0,0.0,-4.1187,-4.1095,-4.0396,-3.9974,-3.9898,-3.9111,-3.8807,0.0,0.0,0.0,0.0,0.0,0.0,0.0,0.0,0.0,0.0,0.0,0.0,0.0,0.0,0.0,0.0,0.0,0.0,0.0,0.0,0.0,0.0,0.0,0.0,0.0,0.0,0.0,0.0,0.0,0.0,0.0,0.0,0.0,0.0,0.0,0.0,0.0,0.0,0.0,0.0,0.0,0.0,0.0,0.0,0.0,0.0,0.0,0.0,0.0,0.0,0.0,0.0,0.0,0.0,0.0,0.0,0.0,0.0,0.0,0.0,0.0,0.0,0.0,0.0,0.0,0.0,0.0,0.0,0.0,0.0,0.0,0.0,0.0,0.0,0.0,0.0,0.0,0.0,0.0,0.0,0.0,0.0,0.0,0.0,0.0,0.0,0.0,0.0,0.0,0.0,0.0,0.0,0.0,0.0,0.0,0.0,0.0,0.0,0.0,0.0,0.0,0.0,0.0,0.0,0.0,0.0,0.0,0.0,-4.1735,-4.113,-4.093,-4.0561,-3.99,-3.9129,-3.8719,0.0,0.0,0.0,0.0,0.0,0.0,0.0,0.0,0.0,0.0,0.0,0.0,0.0,0.0,0.0,0.0,0.0,0.0,0.0,0.0,0.0,0.0,0.0,0.0,0.0,0.0,0.0,0.0,0.0,0.0,0.0,0.0,0.0,0.0,0.0,0.0,0.0,0.0,0.0,0.0,0.0,0.0,0.0,0.0,0.0,0.0,0.0,0.0,-3.3276,0.0,0.0,0.0,0.0,0.0,0.0,0.0,0.0,0.0,0.0,0.0,0.0,0.0,0.0,0.0,0.0,0.0,0.0,0.0,0.0,0.0,0.0,0.0,0.0,0.0,0.0,0.0,0.0,0.0,0.0,0.0,0.0,0.0,0.0,0.0,0.0,0.0,0.0,0.0,0.0,0.0,0.0,0.0,0.0,0.0,0.0,0.0,0.0,0.0,0.0,0.0,0.0,0.0,0.0,0.0,0.0,0.0,0.0,0.0,-4.2653,-4.2231,-4.1846,-4.1479,-4.102,-3.9882,-3.9093,0.0,0.0,0.0,0.0,0.0,0.0,0.0,0.0,0.0,0.0,0.0,0.0,0.0,0.0,0.0,0.0,0.0,0.0,0.0,0.0,0.0,0.0,0.0,0.0,0.0,0.0,0.0,0.0,0.0,0.0,0.0,0.0,0.0,0.0,0.0,0.0,0.0,0.0,0.0,0.0,0.0,0.0,0.0,0.0,0.0,0.0,0.0,0.0,0.0,0.0,0.0,0.0,0.0,0.0,0.0,0.0,0.0,0.0,0.0,0.0,0.0,0.0,0.0,0.0,0.0,0.0,0.0,0.0,0.0,0.0,0.0,0.0,0.0,0.0,0.0,0.0,0.0,0.0,0.0,0.0,0.0,0.0,0.0,0.0,0.0,0.0,0.0,0.0,0.0,0.0,0.0,0.0,0.0,0.0,0.0,0.0,0.0,0.0,0.0,0.0,0.0,0.0,0.0,0.0,0.0,0.0,0.0,-4.3166,-4.3479,-4.3461,-4.2837,-4.2433,-4.2286,-4.0873,-3.9698,-3.8927,0.0,0.0,0.0,0.0,0.0,0.0,0.0,0.0,0.0,0.0,0.0,0.0,0.0,0.0,0.0,0.0,0.0,0.0,0.0,0.0,0.0,0.0,0.0,0.0,0.0,0.0,0.0,0.0,0.0,0.0,0.0,0.0,0.0,0.0,0.0,0.0,0.0,0.0,-3.165,-3.211,0.0,0.0,0.0,0.0,0.0,0.0,0.0,0.0,-3.4038,0.0,0.0,0.0,0.0,0.0,0.0,0.0,0.0,0.0,0.0,0.0,0.0,0.0,0.0,0.0,0.0,0.0,0.0,0.0,0.0,0.0,0.0,0.0,0.0,0.0,0.0,0.0,0.0,0.0,0.0,0.0,0.0,0.0,0.0,0.0,0.0,0.0,0.0,0.0,0.0,0.0,0.0,0.0,0.0,0.0,0.0,0.0,0.0,0.0,0.0,0.0,0.0,0.0,0.0,0.0,0.0,-4.3294,-4.3441,-4.3479,-4.3479,-4.3368,-4.2983,-4.2304,-4.1405,-4.0524,-3.9735,0.0,0.0,0.0,0.0,0.0,0.0,0.0,0.0,0.0,0.0,0.0,0.0,0.0,0.0,0.0,0.0,0.0,0.0,0.0,0.0,0.0,0.0,0.0,0.0,0.0,0.0,0.0,0.0,0.0,0.0,0.0,0.0,0.0,0.0,0.0,0.0,0.0,0.0,0.0,-3.3363,-3.3292,0.0,0.0,0.0,0.0,0.0,0.0,0.0,0.0,-3.5106,0.0,0.0,0.0,0.0,0.0,0.0,0.0,0.0,0.0,0.0,0.0,0.0,0.0,0.0,0.0,0.0,0.0,0.0,0.0,0.0,0.0,0.0,0.0,0.0,0.0,0.0,0.0,0.0,0.0,0.0,0.0,0.0,0.0,0.0,0.0,0.0,0.0,0.0,0.0,0.0,0.0,0.0,0.0,0.0,0.0,0.0,0.0,0.0,0.0,0.0,0.0,0.0,0.0,0.0,0.0,-4.3442,-4.3479,-4.3479,-4.3479,-4.3479,-4.3296,-4.2928,-4.2139,-4.135,0.0,0.0,0.0,0.0,0.0,0.0,0.0,0.0,0.0,0.0,0.0,0.0,0.0,0.0,0.0,0.0,0.0,0.0,0.0,0.0,0.0,0.0,0.0,0.0,0.0,0.0,0.0,0.0,0.0,0.0,0.0,0.0,0.0,0.0,0.0,0.0,0.0,0.0,0.0,0.0,-3.4218,-3.41,-3.4506,0.0,0.0,0.0,0.0,0.0,0.0,-3.5616,-3.5464,0.0,0.0,0.0,0.0,0.0,0.0,0.0,0.0,0.0,0.0,0.0,0.0,0.0,0.0,0.0,0.0,0.0,0.0,0.0,0.0,0.0,0.0,0.0,0.0,0.0,0.0,0.0,0.0,0.0,0.0,0.0,0.0,0.0,0.0,0.0,0.0,0.0,0.0,0.0,0.0,0.0,0.0,0.0,0.0,0.0,0.0,0.0,0.0,0.0,0.0,0.0,0.0,0.0,0.0,0.0,-4.3461,-4.3479,-4.3479,-4.3479,-4.3479,-4.3479,-4.3479,-4.2708,-4.2011,0.0,0.0,0.0,0.0,0.0,0.0,0.0,0.0,0.0,0.0,0.0,0.0,0.0,0.0,0.0,0.0,0.0,0.0,0.0,0.0,0.0,0.0,0.0,0.0,0.0,0.0,0.0,0.0,0.0,0.0,0.0,0.0,0.0,0.0,0.0,0.0,0.0,0.0,0.0,0.0,0.0,-3.4945,-3.5515,-3.5616,0.0,0.0,0.0,0.0,-3.5616,-3.5616,0.0,0.0,0.0,0.0,0.0,0.0,0.0,0.0,0.0,0.0,0.0,0.0,0.0,0.0,0.0,0.0,0.0,0.0,0.0,0.0,0.0,0.0,0.0,0.0,0.0,0.0,0.0,0.0,0.0,0.0,0.0,0.0,0.0,0.0,0.0,0.0,0.0,0.0,0.0,0.0,0.0,0.0,0.0,0.0,0.0,0.0,0.0,0.0,0.0,0.0,0.0,0.0,0.0,0.0,0.0,0.0,-4.3479,-4.3479,-4.3479,-4.3479,-4.3479,-4.3479,-4.3479,-4.2708,-4.2268,0.0,0.0,0.0,0.0,0.0,0.0,0.0,0.0,0.0,0.0,0.0,0.0,0.0,0.0,0.0,0.0,0.0,0.0,0.0,0.0,0.0,0.0,0.0,0.0,0.0,0.0,0.0,0.0,0.0,0.0,0.0,0.0,0.0,0.0,0.0,0.0,0.0,0.0,0.0,0.0,0.0,-3.5498,-3.5583,-3.5616,-3.5616,0.0,0.0,-3.5616,-3.5616,-3.5616,0.0,0.0,0.0,0.0,0.0,0.0,0.0,0.0,0.0,0.0,0.0,0.0,0.0,0.0,0.0,0.0,0.0,0.0,0.0,0.0,0.0,0.0,0.0,0.0,0.0,0.0,0.0,0.0,0.0,0.0,0.0,0.0,0.0,0.0,0.0,0.0,0.0,0.0,0.0,0.0,0.0,0.0,0.0,0.0,0.0,0.0,0.0,0.0,0.0,0.0,0.0,0.0,0.0,0.0,0.0,-4.3479,-4.3479,-4.3479,-4.3479,-4.3479,-4.3479,-4.3479,-4.3479,-4.3184,-4.2763,0.0,0.0,0.0,0.0,0.0,0.0,0.0,0.0,0.0,0.0,0.0,0.0,0.0,0.0,0.0,0.0,0.0,0.0,0.0,0.0,0.0,0.0,0.0,0.0,0.0,0.0,0.0,0.0,0.0,0.0,0.0,0.0,0.0,0.0,0.0,0.0,0.0,0.0,0.0,0.0,0.0,0.0,-3.5616,-3.5616,0.0,0.0,0.0,-3.5616,-3.5616,0.0,0.0,0.0,0.0,0.0,0.0,0.0,0.0,0.0,0.0,0.0,0.0,0.0,0.0,0.0,0.0,0.0,0.0,0.0,0.0,0.0,0.0,0.0,0.0,0.0,0.0,0.0,0.0,0.0,0.0,0.0,0.0,0.0,0.0,0.0,0.0,0.0,0.0,0.0,0.0,0.0,0.0,0.0,0.0,0.0,0.0,0.0,0.0,0.0,0.0,0.0,0.0,0.0,0.0,0.0,0.0,0.0,-4.3479,-4.3479,-4.3479,-4.3479,-4.3479,-4.3479,-4.3479,-4.3479,0.0,0.0,0.0,0.0,0.0,0.0,0.0,0.0,0.0,0.0,0.0,0.0,0.0,0.0,0.0,0.0,0.0,0.0,0.0,0.0,0.0,0.0,0.0,0.0,0.0,0.0,0.0,-3.3719,0.0,0.0,0.0,0.0,0.0,0.0,0.0,0.0,0.0,0.0,0.0,0.0,0.0,0.0,-3.5616,-3.5616,-3.5616,-3.5616,0.0,0.0,-3.5616,-3.5616,-3.5616,-3.5583,0.0,0.0,0.0,0.0,0.0,0.0,0.0,0.0,0.0,0.0,0.0,0.0,0.0,0.0,0.0,0.0,0.0,0.0,0.0,0.0,0.0,0.0,0.0,0.0,0.0,0.0,0.0,0.0,0.0,0.0,0.0,0.0,0.0,0.0,0.0,0.0,0.0,0.0,0.0,0.0,0.0,0.0,0.0,0.0,0.0,0.0,0.0,0.0,0.0,0.0,0.0,0.0,0.0,0.0,0.0,-4.3479,-4.3479,-4.3479,-4.3479,-4.3479,-4.3479,-4.3479,-4.3479,-4.3478,0.0,0.0,0.0,0.0,0.0,0.0,0.0,0.0,0.0,0.0,0.0,0.0,0.0,0.0,0.0,0.0,0.0,0.0,0.0,0.0,0.0,0.0,0.0,0.0,0.0,0.0,0.0,0.0,0.0,0.0,0.0,0.0,0.0,0.0,0.0,0.0,0.0,0.0,0.0,0.0,0.0,-3.5616,-3.5616,-3.5616,-3.5616,0.0,0.0,-3.5616,-3.5616,-3.5616,-3.5594,-3.5514,0.0,0.0,0.0,0.0,0.0,0.0,0.0,0.0,0.0,0.0,0.0,0.0,0.0,0.0,0.0,0.0,0.0,0.0,0.0,0.0,0.0,0.0,0.0,0.0,0.0,0.0,0.0,0.0,0.0,0.0,0.0,0.0,0.0,0.0,0.0,0.0,0.0,0.0,0.0,0.0,0.0,0.0,0.0,0.0,0.0,0.0,0.0,0.0,0.0,0.0,0.0,0.0,0.0,-4.3479,-4.3479,-4.3479,-4.3479,-4.3479,-4.3479,-4.3479,-4.3479,-4.3479,-4.3479,0.0,0.0,0.0,0.0,0.0,0.0,0.0,0.0,0.0,0.0,0.0,0.0,0.0,0.0,0.0,0.0,0.0,0.0,0.0,0.0,0.0,0.0,0.0,0.0,0.0,0.0,0.0,0.0,-3.5505,-3.5741,-3.6586,0.0,0.0,0.0,0.0,0.0,0.0,0.0,0.0,0.0,0.0,-3.5616,-3.5616,-3.5616,0.0,0.0,-3.5616,-3.5616,-3.5616,-3.6011,-3.6349,-3.632,-3.6505,0.0,0.0,0.0,0.0,0.0,0.0,0.0,0.0,0.0,0.0,0.0,0.0,0.0,0.0,0.0,0.0,0.0,0.0,0.0,0.0,0.0,0.0,0.0,0.0,0.0,0.0,0.0,0.0,0.0,0.0,0.0,0.0,0.0,0.0,0.0,0.0,0.0,0.0,0.0,0.0,0.0,0.0,0.0,0.0,0.0,0.0,0.0,0.0,0.0,0.0,0.0,0.0,-4.3479,-4.3479,-4.3479,-4.3479,-4.3479,-4.3479,-4.3479,-4.3479,-4.3479,-4.3479,0.0,0.0,0.0,0.0,0.0,0.0,0.0,0.0,0.0,0.0,0.0,0.0,0.0,0.0,0.0,0.0,0.0,0.0,0.0,0.0,0.0,0.0,0.0,0.0,0.0,0.0,0.0,0.0,-3.6272,-3.6362,-3.6507,0.0,0.0,0.0,0.0,0.0,0.0,0.0,0.0,0.0,0.0,-3.5616,-3.5616,-3.5802,-3.596,-3.596,-3.614,-3.6276,-3.6276,-3.6755,-3.7127,-3.7064,0.0,0.0,0.0,0.0,0.0,0.0,0.0,0.0,0.0,0.0,0.0,0.0,0.0,0.0,0.0,0.0,0.0,0.0,0.0,0.0,0.0,0.0,0.0,0.0,0.0,0.0,0.0,0.0,0.0,0.0,-4.5277,0.0,0.0,0.0,0.0,0.0,0.0,0.0,0.0,0.0,0.0,0.0,0.0,0.0,0.0,0.0,0.0,0.0,0.0,0.0,0.0,0.0,0.0,-4.3479,-4.3479,-4.3479,-4.3479,-4.3479,-4.3479,-4.3479,-4.3479,-4.3479,-4.3479,-4.3479,0.0,0.0,0.0,0.0,0.0,0.0,0.0,0.0,0.0,0.0,0.0,0.0,0.0,0.0,0.0,0.0,0.0,0.0,0.0,0.0,0.0,0.0,0.0,0.0,0.0,0.0,-3.6274,-3.6309,-3.6122,0.0,0.0,0.0,0.0,0.0,0.0,0.0,0.0,0.0,0.0,-3.5616,-3.5616,-3.565,-3.6299,-3.6778,-3.6795,-3.7364,-3.7838,-3.778,-3.7872,-3.7824,0.0,0.0,0.0,0.0,0.0,0.0,0.0,0.0,0.0,0.0,0.0,0.0,0.0,0.0,0.0,0.0,0.0,0.0,0.0,0.0,0.0,0.0,0.0,0.0,0.0,0.0,0.0,-4.5277,-4.5277,0.0,0.0,0.0,0.0,0.0,0.0,0.0,0.0,0.0,0.0,0.0,-4.4707,-4.4763,0.0,0.0,0.0,0.0,0.0,0.0,0.0,0.0,0.0,0.0,0.0,0.0,-4.3479,-4.3479,-4.3479,-4.3479,-4.3479,-4.3479,-4.3479,-4.3479,-4.3479,-4.3479,-4.3479,0.0,0.0,0.0,0.0,0.0,0.0,0.0,0.0,0.0,0.0,0.0,0.0,0.0,0.0,0.0,0.0,0.0,0.0,0.0,0.0,0.0,0.0,0.0,0.0,0.0,-3.662,0.0,0.0,0.0,0.0,0.0,0.0,0.0,0.0,0.0,0.0,0.0,-3.5785,-3.6332,-3.6383,-3.6586,-3.7053,-3.7364,-3.7533,0.0,0.0,0.0,0.0,0.0,0.0,0.0,0.0,0.0,0.0,0.0,0.0,0.0,0.0,-3.6398,-3.5248,-3.5041,-3.5011,-3.4923,0.0,0.0,0.0,0.0,0.0,0.0,0.0,0.0,0.0,0.0,0.0,0.0,0.0,0.0,-4.5277,0.0,-4.5277,0.0,0.0,0.0,0.0,0.0,0.0,0.0,0.0,-4.5213,-4.503,-4.4546,-4.4624,-4.443,0.0,-4.4057,-4.3996,0.0,0.0,0.0,0.0,0.0,0.0,0.0,0.0,-4.3479,-4.3479,-4.3479,-4.3479,-4.3479,-4.3479,-4.3479,-4.3479,-4.3479,-4.3479,-4.3479,-4.3479,-4.3276,0.0,0.0,0.0,0.0,0.0,0.0,0.0,0.0,0.0,0.0,0.0,0.0,0.0,0.0,0.0,0.0,0.0,0.0,0.0,0.0,0.0,0.0,0.0,-3.7165,0.0,0.0,0.0,0.0,0.0,0.0,0.0,0.0,0.0,-3.6011,-3.6028,-3.6299,-3.7077,-3.7161,-3.7347,-3.7838,0.0,0.0,0.0,0.0,0.0,0.0,0.0,-3.9402,-3.9377,-3.9691,-3.9935,-3.9901,-3.9118,-3.8328,-3.7828,0.0,0.0,-3.6013,-3.5799,-3.5775,-3.5685,-3.5661,-3.5556,-3.5196,-3.5118,-3.5004,0.0,0.0,0.0,0.0,0.0,0.0,0.0,0.0,-4.5277,-4.5277,0.0,-4.5277,0.0,0.0,0.0,0.0,0.0,-4.5277,0.0,0.0,-4.5275,-4.5098,-4.4739,-4.4493,-4.425,-4.3955,-4.3682,-4.3513,-4.3513,-4.3828,0.0,0.0,0.0,0.0,0.0,0.0,-4.3479,-4.3479,-4.3479,-4.3479,-4.3479,-4.3479,-4.3479,-4.3479,-4.3479,-4.3479,-4.3479,-4.3479,-4.3479,-4.3461,-4.2763,0.0,0.0,0.0,0.0,0.0,0.0,0.0,0.0,0.0,0.0,0.0,0.0,0.0,0.0,0.0,0.0,0.0,0.0,0.0,0.0,-3.7756,0.0,0.0,0.0,0.0,0.0,0.0,0.0,0.0,0.0,0.0,-3.6897,-3.6863,-3.7094,-3.7838,0.0,0.0,0.0,0.0,-3.9022,-3.9022,-3.9639,-4.0079,-4.0079,-4.0079,-4.0096,-4.0096,0.0,0.0,-3.9926,-3.8839,-3.8164,-3.8573,-3.8203,-3.7642,-3.7286,-3.7094,-3.7036,-3.7052,-3.6977,-3.6626,-3.5648,-3.5315,-3.4979,-4.6405,0.0,0.0,0.0,0.0,-4.5277,-4.5277,-4.5277,-4.5277,-4.5277,-4.5277,-4.5277,0.0,0.0,0.0,0.0,0.0,0.0,-4.5065,-4.4669,-4.4862,-4.4572,-4.3902,-4.4026,-4.3936,-4.3649,-4.3798,-4.3732,-4.3532,-4.3846,-4.383,-4.3515,0.0,0.0,0.0,0.0,-4.3479,-4.3479,-4.3479,-4.3479,-4.3479,-4.3479,-4.3479,-4.3479,-4.3479,-4.3479,-4.3479,-4.3479,-4.3479,-4.3479,-4.3277,0.0,0.0,0.0,0.0,0.0,0.0,0.0,0.0,0.0,0.0,0.0,0.0,0.0,0.0,0.0,0.0,0.0,0.0,0.0,-3.7739,-3.7321,-3.7057,0.0,0.0,0.0,0.0,0.0,0.0,0.0,0.0,0.0,-3.8294,-3.7905,-3.7855,0.0,0.0,-3.887,-3.9402,-3.9673,-3.9791,-3.9791,0.0,0.0,0.0,-4.0113,-4.0113,-4.0113,-4.0113,-4.007,-4.0062,-3.9749,-3.9479,-3.9522,-3.9387,-3.9211,-3.894,-3.7986,-3.7286,-3.7102,-3.672,-3.6341,-3.6073,-3.5638,-3.523,-4.7207,-4.629,-4.629,-4.629,-4.6271,-4.5908,-4.5774,-4.5755,-4.543,-4.5277,-4.5277,-4.5277,-4.5277,-4.5277,-4.5277,0.0,0.0,0.0,-4.5098,-4.4764,-4.4795,-4.4533,-4.402,-4.4017,-4.3876,-4.3716,-4.3781,-4.3699,-4.3479,-4.3699,-4.3699,-4.3515,0.0,0.0,-4.3479,-4.3479,-4.3479,-4.3479,-4.3479,-4.3479,-4.3479,-4.3479,-4.3479,-4.3479,-4.3479,-4.3479,-4.3479,-4.3479,-4.3479,-4.3479,-4.3479,-4.3276,0.0,0.0,0.0,0.0,0.0,0.0,0.0,0.0,0.0,0.0,0.0,-3.8209,0.0,0.0,0.0,0.0,-3.8209,-3.8089,-3.7792,-3.7394,0.0,0.0,0.0,0.0,0.0,0.0,0.0,-3.8244,-3.8345,-3.8616,-3.9351,-3.9039,-3.8937,-3.9385,-3.9453,-3.9605,-4.0045,0.0,-4.0113,-4.0113,-4.0113,-4.0113,-4.0113,-4.0113,-4.0113,-4.0113,-4.0113,-4.0113,-4.0113,-4.0113,-4.002,-3.9858,-3.9807,-3.9772,-3.959,-3.8726,-3.8092,-3.8041,-3.7478,-3.704,-3.7093,-3.6371,-3.5768,-4.8208,-4.8189,-4.8132,-4.7998,-4.7731,-4.694,-4.6596,-4.6538,-4.5812,-4.5498,-4.5488,-4.5488,-4.5488,-4.5488,-4.5517,0.0,-4.5507,-4.5466,-4.5464,-4.5404,-4.5076,-4.4903,-4.4852,-4.4401,-4.4143,-4.4143,-4.3833,-4.3698,-4.3717,-4.3643,-4.3606,-4.3571,-4.3533,-4.3479,-4.3479,-4.3479,-4.3479,-4.3479,-4.3479,-4.3479,-4.3479,-4.3479,-4.3479,-4.3479,-4.3479,-4.3479,-4.3479,-4.3479,-4.3479,-4.3479,-4.3479,-4.3479,-4.3461,0.0,0.0,0.0,0.0,0.0,0.0,0.0,0.0,0.0,0.0,0.0,0.0,0.0,0.0,0.0,-3.8229,0.0,-3.8321,-3.7918,0.0,0.0,0.0,-3.7762,-3.8515,-3.824,-3.8278,-3.9005,0.0,0.0,-4.0011,0.0,-4.0113,-4.0113,-4.0113,-4.0113,-4.0113,-4.0113,-4.0113,-4.0113,-4.0113,-4.0113,-4.0113,-4.0113,-4.0113,-4.0113,-4.0113,-4.0113,-4.0113,-4.0113,-4.0011,-3.9807,-3.9729,-3.9677,-3.9388,-3.9339,-3.9395,-3.9418,-3.8789,-3.8246,-3.806,-3.7158,-3.6322,-5.162,-5.1544,-5.0951,-4.9564,-4.7807,-4.7578,-4.7483,-4.7483,-4.7302,-4.7207,-4.7188,-4.7196,-4.7196,-4.7207,-4.7196,-4.7196,-4.7196,-4.6944,-4.6708,-4.6514,-4.6166,-4.5887,-4.5642,-4.5508,-4.5439,-4.5439,-4.5386,-4.5314,-4.5296,-4.4709,-4.4415,-4.4378,-4.3791,-4.3479,-4.3479,-4.3479,-4.3479,-4.3479,-4.3479,-4.3479,-4.3479,-4.3479,-4.3479,-4.3479,-4.3479,-4.3479,-4.3479,-4.3479,-4.3479,-4.3479,-4.3479,-4.3479,-4.3479,-4.3314,0.0,0.0,0.0,0.0,0.0,0.0,0.0,0.0,0.0,-3.8209,-3.8209,0.0,-3.8209,0.0,-3.8438,-3.8832,-3.9441,-3.9132,0.0,0.0,-3.862,-3.8577,-3.9256,-3.899,-3.9005,-3.9757,-3.9842,-3.991,-4.0096,-4.0113,-4.0113,-4.0113,-4.0113,-4.0113,-4.0113,-4.0113,-4.0113,-4.0113,-4.0113,-4.0113,-4.0113,-4.0113,-4.0113,-4.0113,-4.0113,-4.0113,-4.0113,-4.0113,-4.007,-3.9995,-4.0011,-3.9986,-3.9893,-3.9755,-3.9625,-3.9599,-3.892,-3.8137,-3.7706,-3.6951,-3.6258,-5.2785,-5.2747,-5.2327,-5.1314,-4.9939,-4.885,-4.8391,-4.8334,-4.796,-4.7788,-4.7788,-4.7788,-4.7788,-4.7788,-4.7788,-4.7788,-4.7796,-4.7619,-4.7353,-4.7085,-4.678,-4.6515,-4.6283,-4.6045,-4.5974,-4.6116,-4.5956,-4.5902,-4.5865,-4.5443,-4.5241,-4.5241,-4.4782,-4.4562,-4.4525,-4.3846,-4.3698,-4.403,-4.3698,-4.3479,-4.3479,-4.3479,-4.3479,-4.3479,-4.3479,-4.3479,-4.3479,-4.3479,-4.3479,-4.3479,-4.3479,-4.3479,-4.3479,-4.3463,-4.3446,0.0,0.0,0.0,0.0,0.0,0.0,0.0,0.0,0.0,0.0,0.0,-3.9224,-3.9224,-3.9192,-3.9379,-3.9807,-3.9321,-3.906,-3.9329,-3.902,-3.9029,-3.9758,-3.9617,-3.9673,-4.0045,-4.0113,-4.0113,-4.0113,-4.0113,-4.0113,-4.0113,-4.0113,-4.0113,-4.0113,-4.0113,-4.0113,-4.0113,-4.0113,-4.0113,-4.0113,-4.0113,-4.0113,-4.0113,-4.0113,-4.0113,-4.0113,-4.0113,-4.007,-4.0037,-4.0011,-3.9986,-3.9918,-3.9755,-3.9616,-3.9563,-3.9158,-3.8662,-3.8327,-3.7251,-3.6321,-5.3142,-5.3129,-5.3015,-5.2977,-5.2785,-5.0543,-4.9587,-4.953,-4.8774,-4.838,-4.8285,-4.8285,-4.8208,-4.8113,-4.8132,-4.8113,-4.8132,-4.806,-4.7893,-4.7617,-4.7325,-4.7151,-4.7027,-4.6564,-4.6446,-4.6637,-4.6394,-4.6232,-4.6214,-4.6104,-4.6049,-4.6049,-4.5957,-4.5957,-4.5975,-4.4544,-4.4158,-4.4819,-4.4176,-4.3772,-4.3644,-4.3644,-4.3625,-4.3497,-4.3479,-4.3479,-4.3479,-4.3479,-4.3479,-4.3479,-4.3479,-4.3479,-4.3479,-4.3446,-4.3394,0.0,-4.3215,0.0,0.0,0.0,0.0,0.0,0.0,0.0,0.0,-4.0492,-4.0546,-4.0637,-4.0288,-4.0097,-4.0186,-3.9501,-3.9279,-3.9853,-3.9596,-3.9557,-4.0136,-4.0146,-4.0113,-4.0113,-4.0113,-4.0113,-4.0113,-4.0113,-4.0113,-4.0113,-4.0113,-4.0113,-4.0113,-4.0113,-4.0113,-4.0113,-4.0113,-4.0113,-4.0113,-4.0113,-4.0113,-4.0113,-4.0113,-4.0113,-4.0113,-4.0113,-4.0045,-3.9977,-3.9952,-3.9901,-3.9781,-3.9668,-3.9554,-3.9537,-3.9405,-3.9228,-3.8942,-3.7751,-3.6784,-5.4906,-5.4849,-5.4142,-5.3836,-5.376,-5.2594,-5.2098,-5.2098,-5.1907,-5.1486,-5.0882,-5.0882,-5.0493,-4.9843,-4.9824,-4.9843,-4.9813,-4.955,-4.9402,-4.9316,-4.8983,-4.8693,-4.8453,-4.8581,-4.8401,-4.796,-4.8161,-4.8106,-4.7847,-4.7168,-4.6874,-4.6856,-4.6232,-4.6232,-4.6782,0.0,0.0,0.0,-4.5516,-4.5131,-4.4507,-4.4488,-4.4158,-4.3516,-4.3479,0.0,-4.3479,-4.3479,-4.3479,-4.3479,-4.3479,0.0,0.0,0.0,0.0,0.0,0.0,0.0,0.0,0.0,0.0,0.0,-4.2448,-4.1904,-4.0637,-4.0492,-4.0764,-4.1397,-4.1378,-4.1593,-4.2244,-4.2183,-4.1964,-4.1721,-4.1271,-4.0954,-4.0707,-4.0328,-4.0113,-4.0113,-4.0113,-4.0113,-4.0113,-4.0113,-4.0113,-4.0113,-4.0113,-4.0113,-4.0113,-4.0113,-4.0113,-4.0113,-4.0113,-4.0113,-4.0113,-4.0113,-4.0113,-4.0113,-4.0113,-4.0113,-4.0113,-4.0113,-4.0113,-4.0062,-4.0062,-4.0045,-3.9995,-3.9926,-3.9772,-3.9694,-3.9537,-3.9255,-3.8618,-3.7838,-3.7101,-5.539,0.0,-5.4925,-5.4753,0.0,-5.4276,-5.4085,-5.4008,-5.3168,-5.2575,-5.2193,-5.2193,-5.1945,-5.1544,-5.1525,-5.1525,-5.1544,-5.1351,-5.0975,-5.0429,-5.0255,-4.9773,-4.9048,-4.9048,-4.8883,-4.8569,-4.855,-4.8476,-4.8288,-4.7902,-4.7681,-4.7663,-4.7297,-4.7297,-4.7663,-4.7297,-4.6709,-4.5902,-4.5902,-4.5718,-4.5314,-4.4911,-4.4507,-4.4103,0.0,0.0,0.0,0.0,0.0,0.0,0.0,0.0,0.0,0.0,0.0,-4.3305,-4.3214,-4.3123,-4.3012,-4.2994,-4.2975,-4.2919,-4.2919,-4.2575,-4.1741,-4.1687,-4.185,-4.223,-4.2078,-4.2008,-4.2167,-4.2015,-4.1656,-4.1208,-4.0949,-4.0689,-4.0483,-4.0246,-4.0096,-4.0113,-4.0113,-4.0113,-4.0113,-4.0113,-4.0113,-4.0113,-4.0113,-4.0113,-4.0113,-4.0113,-4.0113,-4.0113,-4.0113,-4.0113,-4.0113,-4.0113,-4.0113,-4.0113,-4.0113,-4.0113,-4.0113,-4.0113,-4.0113,-4.0096,-4.0062,-3.9986,-3.9986,-3.9849,-3.9668,-3.9616,-3.9484,-3.9158,-3.8435,-3.7822,-3.7294,-5.5536,-5.539,-5.539,-5.539,-5.539,-5.539,-5.539,-5.5307,0.0,0.0,0.0,-5.3015,-5.2938,-5.2805,-5.2785,-5.2785,-5.2785,-5.2785,-5.2311,-5.1416,-5.1383,-5.0833,-4.9826,-4.9458,-4.9241,-4.9106,-4.8678,-4.8458,-4.8383,-4.8344,-4.8324,-4.8324,-4.8324,-4.8324,-4.8324,-4.8324,-4.7664,-4.6397,-4.6305,-4.625,-4.6104,-4.5443,-4.4984,-4.4709,-4.4066,-4.3644,-4.3479,-4.3479,-4.3479,-4.3479,-4.3479,-4.3479,-4.3479,-4.3446,-4.3394,-4.3376,-4.3269,-4.316,-4.3086,-4.3067,-4.303,-4.2919,-4.2919,-4.2919,-4.2919,-4.2919,-4.2919,-4.2919,-4.2537,-4.216,-4.1782,-4.1432,-4.1019,-4.0635,-4.0514,-4.0458,-4.0377,-4.0254,-4.0204,-4.0121,-4.0113,-4.0113,-4.0113,-4.0113,-4.0113,-4.0113,-4.0113,-4.0113,-4.0113,-4.0113,-4.0113,-4.0113,-4.0113,-4.0113,-4.0113,-4.0113,-4.0113,-4.0113,-4.0113,-4.0113,-4.0113,-4.0113,-4.0113,-4.0113,-4.0028,-3.9977,-3.9926,-3.9772,-3.9563,-3.9554,-3.9432,-3.9191,-3.859,-3.7924,-3.737,-5.6014,-5.539,-5.539,-5.539,-5.539,-5.539,-5.539,-5.5365,-5.5135,-5.46,-5.3932,-5.3913,-5.3511,-5.2785,-5.2785,-5.2785,-5.2785,-5.2785,-5.2716,0.0,-5.2564,-5.2309,-5.186,-5.1412,-5.0903,-5.0319,-4.9549,-4.9015,-4.8711,-4.8421,-4.8324,-4.8324,-4.8324,-4.8324,-4.8324,-4.8324,-4.8196,-4.7957,-4.7976,-4.7627,-4.6947,-4.6819,-4.6085,-4.4783,-4.4599,-4.4195,-4.3533,-4.3497,-4.3479,-4.3479,-4.3479,-4.3479,-4.3479,-4.3497,-4.341,-4.3251,-4.3214,-4.3105,-4.292,-4.2938,-4.2919,-4.2919,-4.2919,-4.2919,-4.2919,-4.2919,-4.2919,-4.2901,-4.2843,-4.2769,-4.2711,-4.2577,-4.2458,-4.238,-4.2115,-4.1739,-4.1281,-4.0902,-4.0507,-4.0146,-4.0113,-4.0113,-4.0113,-4.0113,-4.013,-4.013,-4.0316,-4.018,-4.0248,-4.0113,-4.0113,-4.0113,-4.0113,-4.0113,-4.0113,-4.0113,-4.0113,-4.0113,-4.0113,-4.0113,-4.0113,-4.0113,-4.0113,-4.0113,-4.0062,-4.0045,-4.0037,-3.9935,-3.9798,-3.9651,-3.9537,-3.9352,-3.905,-3.8153,-3.7251,-5.6377,-5.6014,-5.5594,-5.539,-5.539,-5.539,-5.539,-5.539,-5.539,-5.5193,-5.483,-5.4791,-5.46,-5.4218,-5.4218,-5.4199,-5.4218,-5.4218,-5.3951,-5.3531,-5.3492,-5.3162,-5.257,-5.2182,-5.1806,-5.1458,-5.0293,-4.9655,-4.9447,-4.8698,-4.8324,-4.8324,-4.8324,-4.8324,-4.8324,-4.8324,-4.8324,-4.8324,-4.8324,-4.8141,-4.7774,-4.7333,-4.6746,-4.5993,-4.559,-4.4966,-4.4176,-4.4158,-4.3956,-4.3533,-4.3479,-4.3479,-4.3479,-4.3479,-4.3463,-4.3375,-4.3322,-4.3233,-4.3068,-4.2957,-4.2919,-4.2919,-4.2919,-4.2919,-4.2919,-4.2919,-4.2919,-4.2919,-4.2919,-4.2806,-4.2537,-4.2536,-4.2438,-4.216,-4.1952,-4.163,-4.1208,-4.0949,-4.0628,-4.0196,-4.0113,-4.0113,-4.0113,-4.0113,-4.0299,-4.062,-4.101,-4.128,-4.1264,-4.128,-4.0993,-4.0282,-4.0113,-4.0113,-4.013,-4.0113,-4.0113,-4.0113,-4.0113,-4.0113,-4.0113,-4.0113,-4.0113,-4.007,-4.0037,-3.9986,-3.9986,-3.9884,-3.9729,-3.9616,-3.9554,-3.9352,-3.8816,-3.801,-3.7101,-5.7046,-5.6816,-5.6014,-5.5575,-5.539,-5.539,-5.539,-5.539,-5.539,-5.539,-5.539,-5.539,-5.539,-5.539,-5.539,-5.539,-5.539,-5.539,-5.504,-5.4448,-5.4409,-5.4027,-5.3384,-5.293,-5.2702,-5.2532,-5.1265,-5.0596,-5.0452,-4.9325,-4.8567,-4.8343,-4.8324,-4.8324,-4.8324,-4.8324,-4.8324,-4.8324,-4.8324,-4.8324,-4.8288,-4.7681,-4.7278,-4.7058,-4.6507,-4.5792,-4.5039,-4.4783,-4.4415,-4.3809,-4.3606,-4.3479,-4.3479,-4.3479,-4.3497,-4.3498,-4.3429,-4.334,-4.3196,-4.3031,-4.2938,-4.2938,-4.2901,-4.2919,-4.2919,-4.3082,-4.3063,-4.2937,-4.2919,-4.275,-4.2478,-4.2398,-4.229,-4.208,-4.209,-4.2123,-4.1736,-4.1562,-4.1278,-4.0872,-4.0663,-4.0637,-4.0603,-4.0603,-4.0874,-4.1407,-4.1948,-4.2269,-4.2303,-4.2303,-4.1745,-4.1001,-4.0603,-4.0688,-4.0603,-4.0654,-4.0603,-4.0434,-4.0383,-4.0316,-4.0214,-4.0113,-4.0113,-4.007,-4.002,-3.9961,-3.9952,-3.9833,-3.9729,-3.9642,-3.958,-3.9239,-3.849,-3.8216,-3.7378,-5.844,-5.7695,-5.6836,-5.6052,-5.546,-5.539,-5.539,-5.539,-5.539,-5.539,-5.539,-5.539,-5.539,-5.539,-5.539,-5.539,-5.539,-5.539,-5.5326,-5.5237,-5.5288,-5.5231,-5.5002,-5.4308,-5.3932,-5.3779,-5.2646,-5.2038,-5.1956,-5.0613,-4.9381,-4.8418,-4.8324,-4.8324,-4.8324,-4.8324,-4.8324,-4.8324,-4.8324,-4.8324,-4.8324,-4.8251,-4.7828,-4.7113,-4.7039,-4.6599,-4.581,-4.5076,-4.4672,-4.4562,-4.392,-4.3497,-4.3497,-4.3497,-4.3481,-4.3429,-4.3412,-4.334,-4.3233,-4.3123,-4.3122,-4.3068,-4.3047,-4.301,-4.3028,-4.3588,-4.3661,-4.3191,-4.2973,-4.299,-4.2862,-4.2878,-4.3165,-4.37,-4.3774,-4.3944,-4.3981,-4.3812,-4.3347,-4.2861,-4.2245,-4.211,-4.1941,-4.1948,-4.2066,-4.2151,-4.2422,-4.2574,-4.2557,-4.254,-4.2506,-4.2185,-4.2083,-4.2059,-4.2008,-4.2066,-4.1694,-4.1221,-4.1102,-4.0899,-4.0553,-4.0299,-4.0146,-4.0536,-4.0172,-4.018,-4.0121,-3.9986,-3.9875,-3.9982,-3.9783,-3.9355,-3.866,-3.8829,-3.8483,-5.8918,-5.8536,-5.7714,-5.6893,-5.611,-5.5613,-5.539,-5.539,-5.539,-5.539,-5.539,-5.539,-5.539,-5.539,-5.539,-5.539,-5.539,-5.539,-5.539,-5.539,-5.539,-5.539,-5.5333,-5.5059,-5.4868,-5.4766,-5.365,-5.3054,-5.2786,-5.1557,-5.0304,-4.9436,-4.9176,-4.882,-4.8361,-4.8324,-4.8324,-4.8324,-4.8324,-4.8324,-4.8324,-4.8324,-4.8159,-4.7846,-4.781,-4.7424,-4.6691,-4.6269,-4.5902,-4.5443,-4.5094,-4.4709,-4.4232,-4.4213,-4.3994,-4.3519,-4.3411,-4.356,-4.3889,-4.387,-4.4013,-4.4467,-4.4389,-4.4313,-4.4331,-4.4621,-4.4639,-4.4385,-4.4313,-4.4313,-4.4295,-4.4295,-4.444,-4.4747,-4.4802,-4.4768,-4.4582,-4.4418,-4.3978,-4.3242,-4.291,-4.2654,-4.246,-4.2675,-4.2912,-4.3031,-4.3301,-4.3582,-4.365,-4.3667,-4.3667,-4.3684,-4.3684,-4.3217,-4.2591,-4.2303,-4.2151,-4.1948,-4.1847,-4.1644,-4.1457,-4.1399,-4.1433,-4.1365,-4.0984,-4.0764,-4.0781,-4.0333,-4.007,-4.0321,-4.0799,-4.0685,-4.0348,-4.0449,-3.9991,-5.9453,-5.9319,-5.8574,-5.76,-5.6581,-5.5976,-5.5594,-5.5409,-5.539,-5.539,-5.539,-5.539,-5.539,-5.539,-5.539,-5.539,-5.539,-5.539,-5.539,-5.539,-5.539,-5.539,-5.539,-5.539,-5.539,-5.5249,-5.4531,-5.3917,-5.3522,-5.2442,-5.1337,-5.0488,-4.9878,-4.9298,-4.8691,-4.8453,-4.8324,-4.8324,-4.8324,-4.8324,-4.8324,-4.8324,-4.8324,-4.8324,-4.8324,-4.8012,-4.7461,-4.7223,-4.6837,-4.6269,-4.6012,-4.5645,-4.5094,-4.5021,-4.4782,-4.4232,-4.4124,-4.4291,-4.4766,-4.4709,-4.4887,-4.5394,-4.5387,-4.5291,-4.5327,-4.5508,-4.5617,-4.5617,-4.5816,-4.5852,-4.5327,-4.5291,-4.5381,-4.558,-4.5635,-4.5529,-4.5509,-4.5362,-4.4936,-4.4087,-4.3904,-4.3503,-4.3141,-4.3403,-4.3741,-4.3792,-4.4225,-4.4598,-4.4598,-4.4547,-4.4547,-4.4598,-4.4581,-4.4158,-4.3159,-4.3031,-4.2878,-4.2608,-4.2591,-4.2523,-4.2371,-4.2286,-4.2269,-4.1813,-4.1644,-4.1542,-4.1508,-4.1052,-4.0755,-4.1189,-4.1546,-4.1738,-4.1411,-4.1609,-4.1519,-6.0365,-6.0212,-5.9396,-5.8116,-5.6619,-5.653,-5.6091,-5.5479,-5.539,-5.539,-5.539,-5.539,-5.539,-5.539,-5.539,-5.539,-5.539,-5.539,-5.539,-5.539,-5.539,-5.539,-5.539,-5.539,-5.539,-5.539,-5.5249,-5.4672,-5.3694,-5.3217,-5.242,-5.1285,-5.0265,-4.9629,-4.939,-4.8746,-4.8324,-4.8324,-4.8324,-4.8324,-4.8324,-4.8324,-4.8324,-4.8324,-4.8324,-4.8288,-4.8122,-4.7498,-4.7076,-4.7058,-4.6397,-4.5938,-4.5865,-4.5828,-4.5755,-4.5718,-4.5718,-4.5718,-4.5699,-4.5605,-4.5582,-4.5577,-4.5568,-4.5363,-4.558,-4.6087,-4.645,-4.6468,-4.7029,-4.6884,-4.5725,-4.5599,-4.578,-4.6359,-4.6468,-4.6737,-4.7383,-4.6877,-4.6564,-4.5912,-4.5327,-4.4818,-4.4472,-4.4485,-4.4434,-4.4434,-4.4564,-4.4598,-4.4598,-4.4598,-4.4598,-4.4598,-4.4598,-4.4547,-4.4479,-4.4141,-4.3876,-4.3623,-4.3318,-4.3183,-4.2658,-4.2303,-4.2371,-4.2388,-4.232,-4.2286,-4.2252,-4.2202,-4.2064,-4.2132,-4.2104,-4.215,-4.2317,-4.2335,-4.2282,-6.0403,-6.0327,-5.9472,-5.8732,-5.8096,-5.7065,-5.6428,-5.6129,-5.5613,-5.539,-5.539,-5.539,-5.539,-5.539,-5.539,-5.539,-5.539,-5.539,-5.539,-5.539,-5.539,-5.539,-5.539,-5.539,-5.539,-5.539,-5.539,-5.5179,-5.476,-5.4157,-5.3382,-5.2465,-5.158,-5.0675,-4.9739,-4.9317,-4.8875,-4.8379,-4.8324,-4.8324,-4.8324,-4.8324,-4.8324,-4.8324,-4.8324,-4.8324,-4.8324,-4.7993,-4.7865,-4.7884,-4.759,-4.7186,-4.6691,-4.6177,-4.5883,-4.5847,-4.5865,-4.6067,-4.6373,-4.6407,-4.6565,-4.6993,-4.691,-4.6794,-4.6884,-4.7102,-4.7265,-4.7337,-4.7482,-4.7337,-4.7065,-4.683,-4.6939,-4.7192,-4.7283,-4.7355,-4.7588,-4.7511,-4.7214,-4.6637,-4.5893,-4.5241,-4.5035,-4.4786,-4.4598,-4.4598,-4.4598,-4.4598,-4.4598,-4.4598,-4.4598,-4.4598,-4.4598,-4.4598,-4.4598,-4.4581,-4.4462,-4.4299,-4.4113,-4.4062,-4.3724,-4.3572,-4.3639,-4.347,-4.3318,-4.3031,-4.3014,-4.3014,-4.2976,-4.2983,-4.2936,-4.2987,-4.3253,-4.309,-4.3123,-6.0403,-6.0307,-5.9759,-5.9357,-5.8962,-5.7905,-5.7084,-5.6587,-5.6014,-5.5632,-5.5441,-5.539,-5.539,-5.539,-5.539,-5.539,-5.539,-5.539,-5.539,-5.539,-5.539,-5.539,-5.539,-5.539,-5.539,-5.539,-5.539,-5.539,-5.5332,-5.4765,-5.4178,-5.3637,-5.2679,-5.1647,-5.0615,-4.9946,-4.928,-4.8765,-4.8453,-4.8324,-4.8324,-4.8324,-4.8324,-4.8324,-4.8324,-4.8324,-4.8324,-4.8324,-4.8324,-4.8324,-4.8324,-4.8049,-4.748,-4.6985,-4.6654,-4.6635,-4.6654,-4.6836,-4.7177,-4.7227,-4.7405,-4.7852,-4.7783,-4.7699,-4.7738,-4.772,-4.7699,-4.7699,-4.7699,-4.7699,-4.7699,-4.7681,-4.7699,-4.7699,-4.7699,-4.7699,-4.7699,-4.7699,-4.7428,-4.6886,-4.614,-4.5588,-4.532,-4.5008,-4.4786,-4.4643,-4.4598,-4.4598,-4.4598,-4.4598,-4.4598,-4.4598,-4.4598,-4.4598,-4.4598,-4.4598,-4.4598,-4.4496,-4.4445,-4.4547,-4.4598,-4.4598,-4.4564,-4.4468,-4.4265,-4.3944,-4.3775,-4.3775,-4.3792,-4.3764,-4.376,-4.3759,-4.3805,-4.3764,-4.363,-6.0403,-6.0384,-6.0384,-5.9873,-5.9243,-5.8975,-5.8096,-5.6912,-5.6587,-5.6129,-5.5594,-5.5441,-5.539,-5.539,-5.539,-5.539,-5.539,-5.539,-5.539,-5.539,-5.539,-5.539,-5.539,-5.539,-5.539,-5.539,-5.539,-5.539,-5.5377,-5.4962,-5.4705,-5.4481,-5.3282,-5.2531,-5.2419,-5.0747,-4.9741,-4.9411,-4.8803,-4.8379,-4.8324,-4.8324,-4.8324,-4.8324,-4.8324,-4.8324,-4.8324,-4.8324,-4.8324,-4.8324,-4.8324,-4.8324,-4.8233,-4.8122,-4.8195,-4.8085,-4.8158,-4.8193,-4.8114,-4.7979,-4.7902,-4.797,-4.7806,-4.778,-4.7842,-4.778,-4.7738,-4.7738,-4.7699,-4.7699,-4.7699,-4.7699,-4.7699,-4.7699,-4.7699,-4.7699,-4.7699,-4.7717,-4.7511,-4.6999,-4.6436,-4.5918,-4.5485,-4.5267,-4.5062,-4.472,-4.4598,-4.4598,-4.4598,-4.4598,-4.4598,-4.4598,-4.4598,-4.4598,-4.4598,-4.4598,-4.4598,-4.4581,-4.4564,-4.4598,-4.4598,-4.4598,-4.4598,-4.453,-4.453,-4.4215,-4.4198,-4.4215,-4.4265,-4.4305,-4.4367,-4.4241,-4.4097,-4.3923,-4.3793,-6.0403,-6.0403,-6.0403,-6.0255,-5.9911,-5.9357,-5.8765,-5.8192,-5.7141,-5.6434,-5.6148,-5.5651,-5.539,-5.539,-5.539,-5.539,-5.539,-5.539,-5.539,-5.539,-5.539,-5.539,-5.539,-5.539,-5.539,-5.539,-5.539,-5.539,-5.5332,-5.499,-5.481,-5.464,-5.41,-5.3448,-5.2925,-5.2029,-5.1139,-5.0009,-4.9452,-4.893,-4.8398,-4.8324,-4.8324,-4.8324,-4.8324,-4.8324,-4.8324,-4.8324,-4.8324,-4.8324,-4.8324,-4.8324,-4.8324,-4.8324,-4.8286,-4.8247,-4.8267,-4.8247,-4.811,-4.811,-4.809,-4.8012,-4.7949,-4.7929,-4.7968,-4.7884,-4.784,-4.7819,-4.7759,-4.7699,-4.7699,-4.7699,-4.7699,-4.7699,-4.7699,-4.7699,-4.7699,-4.7699,-4.7636,-4.7446,-4.6994,-4.6454,-4.5925,-4.564,-4.5205,-4.4748,-4.4626,-4.4626,-4.4598,-4.4598,-4.4598,-4.4598,-4.4598,-4.4598,-4.4598,-4.4598,-4.4598,-4.4598,-4.4598,-4.4598,-4.4598,-4.4598,-4.4598,-4.4598,-4.4598,-4.4598,-4.4598,-4.4598,-4.4598,-4.4542,-4.444,-4.4298,-4.4126,-4.3981,-4.3835,-6.0403,-6.0403,-6.0403,-6.0403,-6.0346,-5.9797,-5.9363,-5.8956,-5.7676,-5.6912,-5.6492,-5.5766,-5.539,-5.539,-5.539,-5.539,-5.539,-5.539,-5.539,-5.539,-5.539,-5.539,-5.539,-5.539,-5.539,-5.539,-5.539,-5.539,-5.539,-5.5154,-5.5038,-5.4981,-5.4654,-5.425,-5.3672,-5.2895,-5.1918,-5.1008,-5.0062,-4.9315,-4.8838,-4.8471,-4.8324,-4.8324,-4.8324,-4.8324,-4.8324,-4.8324,-4.8324,-4.8324,-4.8324,-4.8324,-4.8324,-4.8306,-4.8267,-4.8247,-4.8248,-4.8248,-4.8131,-4.8187,-4.8187,-4.813,-4.8052,-4.8032,-4.805,-4.7988,-4.7925,-4.7899,-4.784,-4.7777,-4.7717,-4.7699,-4.7699,-4.7699,-4.7699,-4.7699,-4.7699,-4.7699,-4.7699,-4.7615,-4.7385,-4.6972,-4.6478,-4.6147,-4.5588,-4.5079,-4.4852,-4.4731,-4.4665,-4.4598,-4.4598,-4.4598,-4.4598,-4.4598,-4.4598,-4.4598,-4.4598,-4.4598,-4.4598,-4.4598,-4.4598,-4.4598,-4.4598,-4.4598,-4.4598,-4.4598,-4.4598,-4.4598,-4.4598,-4.4525,-4.4468,-4.4384,-4.4241,-4.4097,-4.3952,-6.0403,-6.0403,-6.0403,-6.0403,-6.0403,-6.0327,-5.9911,-5.9166,-5.8192,-5.7409,-5.6664,-5.5804,-5.539,-5.539,-5.539,-5.539,-5.539,-5.539,-5.539,-5.539,-5.539,-5.539,-5.539,-5.539,-5.539,-5.539,-5.539,-5.539,-5.539,-5.5345,-5.539,-5.5305,-5.5009,-5.484,-5.4504,-5.3369,-5.2696,-5.2196,-5.0674,-4.9762,-4.9501,-4.8728,-4.8324,-4.8324,-4.8324,-4.8324,-4.8324,-4.8324,-4.8324,-4.8324,-4.8324,-4.8324,-4.8324,-4.8324,-4.8324,-4.8287,-4.8324,-4.8305,-4.8286,-4.8228,-4.8228,-4.8248,-4.8151,-4.807,-4.8149,-4.809,-4.8008,-4.7963,-4.7922,-4.7861,-4.778,-4.772,-4.772,-4.7699,-4.7699,-4.7699,-4.7699,-4.7699,-4.7699,-4.7699,-4.7657,-4.7472,-4.689,-4.6776,-4.6286,-4.564,-4.5276,-4.5018,-4.4841,-4.472,-4.4626,-4.4598,-4.4598,-4.4598,-4.4598,-4.4598,-4.4598,-4.4598,-4.4598,-4.4598,-4.4598,-4.4598,-4.4598,-4.4598,-4.4598,-4.4598,-4.4598,-4.4598,-4.4598,-4.457,-4.4525,-4.4468,-4.4355,-4.4126,-4.3981,-6.0403,-6.0403,-6.0403,-6.0403,-6.0403,-6.0403,-6.0274,-5.9873,-5.8498,-5.7753,-5.7256,-5.6033,-5.539,-5.539,-5.539,-5.539,-5.539,-5.539,-5.539,-5.539,-5.539,-5.539,-5.539,-5.539,-5.539,-5.539,-5.539,-5.539,-5.539,-5.539,-5.539,-5.539,-5.5273,-5.5214,-5.5083,-5.4485,-5.3734,-5.2885,-5.16,-5.0397,-4.9594,-4.8746,-4.8324,-4.8324,-4.8324,-4.8324,-4.8324,-4.8324,-4.8324,-4.8324,-4.8324,-4.8324,-4.8324,-4.8324,-4.8324,-4.8324,-4.8324,-4.8324,-4.8287,-4.8286,-4.8267,-4.8287,-4.8248,-4.8247,-4.8248,-4.8189,-4.8148,-4.8088,-4.8048,-4.797,-4.7929,-4.7884,-4.7801,-4.7717,-4.7699,-4.7699,-4.7699,-4.7699,-4.7699,-4.7699,-4.7699,-4.7446,-4.7107,-4.6908,-4.6665,-4.6024,-4.5622,-4.5276,-4.5062,-4.4814,-4.4703,-4.4626,-4.4598,-4.4598,-4.4598,-4.4598,-4.4598,-4.4598,-4.4598,-4.4598,-4.4598,-4.4598,-4.4598,-4.4598,-4.4598,-4.4598,-4.4598,-4.4598,-4.4598,-4.4598,-4.457,-4.4497,-4.4298,-4.4068,-4.3923,-6.0403,-6.0403,-6.0403,-6.0403,-6.0403,-6.0403,-6.0403,-6.0078,-5.8651,-5.7886,-5.7523,-5.6148,-5.539,-5.539,-5.539,-5.539,-5.539,-5.539,-5.539,-5.539,-5.539,-5.539,-5.539,-5.539,-5.539,-5.539,-5.539,-5.539,-5.539,-5.539,-5.539,-5.539,-5.539,-5.539,-5.5345,-5.5004,-5.4504,-5.3612,-5.2239,-5.0917,-5.0285,-4.897,-4.8379,-4.8324,-4.8324,-4.8324,-4.8324,-4.8324,-4.8324,-4.8324,-4.8324,-4.8324,-4.8324,-4.8324,-4.8324,-4.8324,-4.8324,-4.8324,-4.8324,-4.8324,-4.8324,-4.8324,-4.8324,-4.8324,-4.8287,-4.8248,-4.8228,-4.8187,-4.811,-4.807,-4.7992,-4.7945,-4.7861,-4.778,-4.7738,-4.7699,-4.7699,-4.7699,-4.7699,-4.7699,-4.7678,-4.7615,-4.7258,-4.7236,-4.6954,-4.6548,-4.6244,-4.58,-4.5372,-4.5062,-4.4797,-4.4703,-4.4626,-4.4598,-4.4598,-4.4598,-4.4598,-4.4598,-4.4598,-4.4598,-4.4598,-4.4598,-4.4598,-4.4598,-4.4598,-4.4598,-4.4598,-4.4598,-4.4598,-4.4598,-4.4598,-4.4497,-4.4298,-4.4126,-4.3981,-6.0403,-6.0403,-6.0403,-6.0403,-6.0403,-6.0403,-6.0403,-6.0097,-5.8612,-5.7886,-5.7542,-5.6129,-5.5409,-5.539,-5.539,-5.539,-5.539,-5.539,-5.539,-5.539,-5.539,-5.539,-5.539,-5.539,-5.539,-5.539,-5.539,-5.539,-5.539,-5.539,-5.539,-5.539,-5.539,-5.539,-5.5345,-5.5071,-5.487,-5.4322,-5.2569,-5.1429,-5.0823,-4.9418,-4.8438,-4.8324,-4.8324,-4.8324,-4.8324,-4.8324,-4.8324,-4.8324,-4.8324,-4.8324,-4.8324,-4.8324,-4.8324,-4.8324,-4.8324,-4.8324,-4.8324,-4.8324,-4.8324,-4.8324,-4.8324,-4.8324,-4.8287,-4.8287,-4.8248,-4.8226,-4.8225,-4.8168,-4.805,-4.7986,-4.7943,-4.7884,-4.7801,-4.7741,-4.7717,-4.7717,-4.7699,-4.7699,-4.7699,-4.7699,-4.7699,-4.7657,-4.7511,-4.7062,-4.6753,-4.6334,-4.5825,-4.5407,-4.5089,-4.4824,-4.4703,-4.4598,-4.4598,-4.4598,-4.4598,-4.4598,-4.4598,-4.4598,-4.4598,-4.4598,-4.4598,-4.4598,-4.4598,-4.4598,-4.4598,-4.4598,-4.4598,-4.4598,-4.4598,-4.4468,-4.4338,-4.4241,-4.4097,-6.0403,-6.0403,-6.0403,-6.0403,-6.0403,-6.0403,-6.0403,-6.025,-5.8631,-5.7886,-5.7523,-5.6148,-5.5428,-5.539,-5.539,-5.539,-5.539,-5.539,-5.539,-5.539,-5.539,-5.539,-5.539,-5.539,-5.539,-5.539,-5.539,-5.539,-5.539,-5.539,-5.539,-5.539,-5.539,-5.539,-5.5377,-5.5305,-5.5099,-5.4556,-5.2976,-5.182,-5.1078,-4.9619,-4.8532,-4.8344,-4.8324,-4.8324,-4.8324,-4.8324,-4.8324,-4.8324,-4.8324,-4.8324,-4.8324,-4.8324,-4.8324,-4.8324,-4.8324,-4.8324,-4.8324,-4.8324,-4.8324,-4.8324,-4.8324,-4.8324,-4.8324,-4.8324,-4.8305,-4.8286,-4.8267,-4.8228,-4.8168,-4.8146,-4.8087,-4.8008,-4.7949,-4.7888,-4.7861,-4.7759,-4.7717,-4.7699,-4.7699,-4.7699,-4.7699,-4.7699,-4.7593,-4.7468,-4.7214,-4.6822,-4.6358,-4.58,-4.5485,-4.5205,-4.4879,-4.4786,-4.4731,-4.4692,-4.4598,-4.4598,-4.4598,-4.4598,-4.4598,-4.4598,-4.4598,-4.4598,-4.4598,-4.4598,-4.4598,-4.4598,-4.4598,-4.4598,-4.457,-4.4468,-4.4384,-4.4298,-4.4184,-6.0403,-6.0403,-6.0403,-6.0403,-6.0403,-6.0403,-6.0403,-6.0078,-5.8631,-5.7886,-5.7542,-5.6129,-5.5409,-5.539,-5.539,-5.539,-5.539,-5.539,-5.539,-5.539,-5.539,-5.539,-5.539,-5.539,-5.539,-5.539,-5.539,-5.539,-5.539,-5.539,-5.539,-5.539,-5.539,-5.539,-5.539,-5.539,-5.5305,-5.4756,-5.3267,-5.2032,-5.1355,-4.9759,-4.8641,-4.8364,-4.8324,-4.8324,-4.8324,-4.8324,-4.8324,-4.8324,-4.8324,-4.8324,-4.8324,-4.8324,-4.8324,-4.8324,-4.8324,-4.8324,-4.8324,-4.8324,-4.8324,-4.8324,-4.8324,-4.8324,-4.8324,-4.8324,-4.8324,-4.8324,-4.8287,-4.8267,-4.8247,-4.8225,-4.8168,-4.811,-4.805,-4.7972,-4.7947,-4.7863,-4.7759,-4.772,-4.7699,-4.7699,-4.7699,-4.7699,-4.7678,-4.7593,-4.7554,-4.7214,-4.684,-4.6358,-4.6067,-4.5716,-4.5232,-4.4981,-4.4917,-4.4797,-4.4598,-4.4598,-4.4598,-4.4598,-4.4598,-4.4598,-4.4598,-4.4598,-4.4598,-4.4598,-4.4598,-4.4598,-4.4598,-4.4598,-4.457,-4.4485,-4.4412,-4.431,-4.4212,-6.0403,-6.0403,-6.0403,-6.0403,-6.0403,-6.0403,-6.0288,-5.9931,-5.8574,-5.7791,-5.7428,-5.6033,-5.539,-5.539,-5.539,-5.539,-5.539,-5.539,-5.539,-5.539,-5.539,-5.539,-5.539,-5.539,-5.539,-5.539,-5.539,-5.539,-5.539,-5.539,-5.539,-5.539,-5.539,-5.539,-5.539,-5.539,-5.5377,-5.5076,-5.3337,-5.2122,-5.1499,-4.986,-4.8696,-4.8382,-4.8324,-4.8324,-4.8324,-4.8324,-4.8324,-4.8324,-4.8324,-4.8324,-4.8324,-4.8324,-4.8324,-4.8324,-4.8324,-4.8324,-4.8324,-4.8324,-4.8324,-4.8324,-4.8324,-4.8324,-4.8324,-4.8324,-4.8324,-4.8324,-4.8305,-4.8305,-4.8287,-4.8247,-4.8226,-4.8207,-4.811,-4.8052,-4.803,-4.7986,-4.7886,-4.7759,-4.7717,-4.7699,-4.7699,-4.7699,-4.7699,-4.7699,-4.7678,-4.7575,-4.7214,-4.6863,-4.6543,-4.6238,-4.5767,-4.5258,-4.5125,-4.4797,-4.4626,-4.4598,-4.4598,-4.4598,-4.4598,-4.4598,-4.4598,-4.4598,-4.4598,-4.4598,-4.4598,-4.4598,-4.4598,-4.4598,-4.457,-4.4542,-4.444,-4.4367,-4.4253,-6.0403,-6.0403,-6.0403,-6.0403,-6.0403,-6.0384,-5.9969,-5.9243,-5.8288,-5.7466,-5.6759,-5.5823,-5.539,-5.539,-5.539,-5.539,-5.539,-5.539,-5.539,-5.539,-5.539,-5.539,-5.539,-5.539,-5.539,-5.539,-5.539,-5.539,-5.539,-5.539,-5.539,-5.539,-5.539,-5.539,-5.539,-5.539,-5.539,-5.5116,-5.3384,-5.2174,-5.1437,-4.9899,-4.8623,-4.8344,-4.8324,-4.8324,-4.8324,-4.8324,-4.8324,-4.8324,-4.8324,-4.8324,-4.8324,-4.8324,-4.8324,-4.8324,-4.8324,-4.8324,-4.8324,-4.8324,-4.8324,-4.8324,-4.8324,-4.8324,-4.8324,-4.8324,-4.8324,-4.8324,-4.8324,-4.8324,-4.8324,-4.8286,-4.8286,-4.8286,-4.8248,-4.8209,-4.8187,-4.8128,-4.8048,-4.7904,-4.7801,-4.7699,-4.7699,-4.7699,-4.7699,-4.7699,-4.7678,-4.7678,-4.7511,-4.7191,-4.6863,-4.659,-4.631,-4.5792,-4.5372,-4.4889,-4.4598,-4.4598,-4.4598,-4.4598,-4.4598,-4.4598,-4.4598,-4.4598,-4.4598,-4.4598,-4.4598,-4.4598,-4.4598,-4.4598,-4.457,-4.4587,-4.4542,-4.4468,-4.444,-6.0403,-6.0403,-6.0403,-6.0403,-6.0313,-5.9892,-5.951,-5.8942,-5.7772,-5.6988,-5.6473,-5.5785,-5.539,-5.539,-5.539,-5.539,-5.539,-5.539,-5.539,-5.539,-5.539,-5.539,-5.539,-5.539,-5.539,-5.539,-5.539,-5.539,-5.539,-5.539,-5.539,-5.539,-5.539,-5.539,-5.539,-5.539,-5.5384,-5.4937,-5.3441,-5.2118,-5.159,-4.9684,-4.8569,-4.8364,-4.8324,-4.8324,-4.8324,-4.8324,-4.8324,-4.8324,-4.8324,-4.8324,-4.8324,-4.8324,-4.8324,-4.8324,-4.8324,-4.8324,-4.8324,-4.8324,-4.8324,-4.8324,-4.8324,-4.8324,-4.8324,-4.8324,-4.8324,-4.8324,-4.8324,-4.8324,-4.8324,-4.8324,-4.8324,-4.8324,-4.8324,-4.8286,-4.8247,-4.8226,-4.8128,-4.8026,-4.7925,-4.7801,-4.7699,-4.7699,-4.7699,-4.7699,-4.7699,-4.7699,-4.7699,-4.749,-4.7169,-4.6707,-4.6358,-4.5742,-4.5267,-4.4906,-4.4598,-4.4598,-4.4598,-4.4598,-4.4598,-4.4598,-4.4598,-4.4598,-4.4598,-4.4598,-4.4598,-4.4598,-4.4598,-4.4598,-4.4598,-4.4598,-4.4598,-4.457,-4.4497,-6.0403,-6.0403,-6.0403,-6.0293,-6.0026,-5.9415,-5.8899,-5.8383,-5.7199,-5.6511,-5.6282,-5.5728,-5.539,-5.539,-5.539,-5.539,-5.539,-5.539,-5.539,-5.539,-5.539,-5.539,-5.539,-5.539,-5.539,-5.539,-5.539,-5.539,-5.539,-5.539,-5.539,-5.539,-5.539,-5.539,-5.539,-5.539,-5.5365,-5.458,-5.3365,-5.2118,-5.096,-4.9558,-4.8458,-4.8383,-4.8402,-4.8383,-4.8306,-4.8324,-4.8324,-4.8324,-4.8324,-4.8324,-4.8324,-4.8324,-4.8324,-4.8324,-4.8324,-4.8324,-4.8324,-4.8324,-4.8324,-4.8324,-4.8324,-4.8324,-4.8324,-4.8324,-4.8324,-4.8324,-4.8324,-4.8324,-4.8324,-4.8324,-4.8324,-4.8324,-4.8324,-4.8305,-4.8267,-4.8267,-4.8226,-4.8108,-4.8006,-4.7904,-4.7801,-4.7699,-4.7699,-4.7699,-4.7699,-4.7699,-4.7699,-4.7699,-4.7385,-4.6799,-4.6262,-4.5537,-4.5115,-4.4841,-4.4626,-4.4598,-4.4598,-4.4598,-4.4598,-4.4598,-4.4598,-4.4598,-4.4598,-4.4598,-4.4598,-4.4598,-4.4598,-4.4598,-4.4598,-4.4598,-4.4598,-4.4598,-4.457,-6.0403,-6.0403,-6.0384,-5.9969,-5.93,-5.9071,-5.8192,-5.6988,-5.6683,-5.6186,-5.5651,-5.5498,-5.539,-5.539,-5.539,-5.539,-5.539,-5.539,-5.539,-5.539,-5.539,-5.539,-5.539,-5.539,-5.539,-5.539,-5.539,-5.539,-5.539,-5.539,-5.539,-5.539,-5.539,-5.539,-5.539,-5.539,-5.5002,-5.4199,-5.2965,-5.1437,-4.9984,-4.9308,-4.9019,-4.8816,-4.8711,-4.8641,-4.8439,-4.8402,-4.8345,-4.8344,-4.8306,-4.8324,-4.8324,-4.8324,-4.8324,-4.8324,-4.8324,-4.8324,-4.8324,-4.8324,-4.8324,-4.8324,-4.8324,-4.8324,-4.8324,-4.8324,-4.8324,-4.8324,-4.8324,-4.8324,-4.8324,-4.8324,-4.8324,-4.8324,-4.8324,-4.8324,-4.8305,-4.8287,-4.8247,-4.8226,-4.8108,-4.8006,-4.7904,-4.7801,-4.7699,-4.7699,-4.7699,-4.7699,-4.7657,-4.7615,-4.749,-4.6908,-4.6358,-4.5665,-4.5205,-4.4906,-4.472,-4.4637,-4.4598,-4.4598,-4.4598,-4.4598,-4.4598,-4.4598,-4.4598,-4.4598,-4.4598,-4.4598,-4.4598,-4.4598,-4.4598,-4.4598,-4.4598,-4.4581,-4.4429,-5.9663,-5.9682,-5.9682,-5.9185,-5.8383,-5.7925,-5.7313,-5.6606,-5.611,-5.5728,-5.5428,-5.539,-5.539,-5.539,-5.539,-5.539,-5.539,-5.539,-5.539,-5.539,-5.539,-5.539,-5.539,-5.539,-5.539,-5.539,-5.539,-5.539,-5.539,-5.539,-5.539,-5.539,-5.539,-5.539,-5.5371,-5.539,-5.4887,-5.3913,-5.2509,-5.0889,-4.971,-4.9283,-4.924,-4.9097,-4.908,-4.9001,-4.8849,-4.8658,-4.8586,-4.8532,-4.8439,-4.8324,-4.8324,-4.8324,-4.8324,-4.8324,-4.8324,-4.8324,-4.8324,-4.8324,-4.8324,-4.8324,-4.8324,-4.8324,-4.8324,-4.8324,-4.8324,-4.8324,-4.8324,-4.8324,-4.8324,-4.8324,-4.8324,-4.8324,-4.8324,-4.8324,-4.8324,-4.8324,-4.8286,-4.8247,-4.8208,-4.8088,-4.7968,-4.7884,-4.7762,-4.7699,-4.7699,-4.7699,-4.7533,-4.7341,-4.7191,-4.6972,-4.643,-4.5868,-4.5459,-4.5125,-4.4879,-4.4759,-4.4615,-4.4615,-4.4598,-4.4598,-4.4598,-4.4598,-4.4598,-4.4598,-4.4581,-4.453,-4.4462,-4.4513,-4.4598,-4.4412,-4.4209,-4.3944,-4.3724,-5.8757,-5.8538,-5.8721,-5.8326,-5.7523,-5.6855,-5.6492,-5.6205,-5.5689,-5.5409,-5.539,-5.539,-5.539,-5.539,-5.539,-5.539,-5.539,-5.539,-5.539,-5.539,-5.539,-5.539,-5.539,-5.539,-5.539,-5.539,-5.539,-5.539,-5.539,-5.539,-5.539,-5.539,-5.539,-5.539,-5.5345,-5.504,-5.4448,-5.3181,-5.1732,-5.0527,-4.9774,-4.9584,-4.9527,-4.9468,-4.9424,-4.9394,-4.9268,-4.908,-4.8934,-4.8866,-4.8623,-4.8477,-4.8476,-4.8364,-4.8306,-4.8324,-4.8324,-4.8324,-4.8324,-4.8324,-4.8324,-4.8324,-4.8324,-4.8324,-4.8324,-4.8324,-4.8324,-4.8324,-4.8324,-4.8324,-4.8324,-4.8324,-4.8324,-4.8324,-4.8324,-4.8324,-4.8324,-4.8324,-4.8324,-4.8286,-4.8228,-4.8131,-4.803,-4.7968,-4.7863,-4.772,-4.7699,-4.7699,-4.7533,-4.732,-4.7147,-4.7017,-4.6747,-4.6213,-4.5792,-4.5407,-4.5169,-4.4934,-4.4776,-4.4643,-4.4654,-4.4626,-4.4598,-4.4598,-4.4581,-4.4316,-4.4147,-4.4215,-4.4293,-4.4062,-4.3893,-4.3842,-4.3656,-4.3386,-4.3098,-5.7808,-5.7001,-5.7704,-5.746,-5.6696,-5.6658,-5.6167,-5.5594,-5.546,-5.539,-5.539,-5.539,-5.539,-5.5403,-5.5384,-5.5384,-5.539,-5.539,-5.5403,-5.5403,-5.539,-5.539,-5.539,-5.539,-5.539,-5.539,-5.539,-5.539,-5.539,-5.539,-5.539,-5.539,-5.539,-5.539,-5.5116,-5.4581,-5.3492,-5.2257,-5.0994,-5.0498,-5.017,-5.01,-5.0025,-4.9817,-4.973,-4.9627,-4.9329,-4.9283,-4.9252,-4.9256,-4.8951,-4.8781,-4.8729,-4.8495,-4.8402,-4.8383,-4.8401,-4.8382,-4.8325,-4.8324,-4.8324,-4.8324,-4.8324,-4.8324,-4.8324,-4.8324,-4.8324,-4.8324,-4.8324,-4.8324,-4.8324,-4.8324,-4.8324,-4.8324,-4.8324,-4.8324,-4.8324,-4.8324,-4.8324,-4.8324,-4.8248,-4.817,-4.8072,-4.799,-4.7884,-4.7759,-4.7699,-4.7699,-4.7699,-4.7511,-4.732,-4.7169,-4.7039,-4.6637,-4.6123,-4.5843,-4.5614,-4.539,-4.5186,-4.4923,-4.472,-4.4665,-4.4759,-4.4513,-4.4445,-4.4079,-4.3673,-4.3436,-4.3267,-4.324,-4.3156,-4.3081,-4.2844,-4.2506,-4.232,-5.7043,-5.6178,-5.6442,-5.6299,-5.5868,-5.5855,-5.5689,-5.5441,-5.539,-5.539,-5.5403,-5.539,-5.539,-5.5384,-5.5384,-5.539,-5.5396,-5.5384,-5.539,-5.5384,-5.539,-5.539,-5.539,-5.539,-5.539,-5.539,-5.539,-5.539,-5.539,-5.539,-5.539,-5.539,-5.5365,-5.539,-5.504,-5.4008,-5.269,-5.1716,-5.0799,-5.0321,-5.0302,-5.0302,-5.0236,-5.0132,-5.012,-5.0051,-4.9897,-4.9683,-4.9627,-4.9527,-4.9287,-4.9161,-4.9048,-4.8763,-4.8623,-4.8568,-4.8587,-4.8477,-4.8325,-4.8324,-4.8324,-4.8324,-4.8324,-4.8324,-4.8324,-4.8324,-4.8324,-4.8324,-4.8324,-4.8324,-4.8324,-4.8324,-4.8324,-4.8324,-4.8324,-4.8324,-4.8324,-4.8324,-4.8324,-4.8324,-4.8267,-4.8209,-4.8111,-4.7992,-4.7886,-4.7759,-4.7738,-4.7699,-4.7699,-4.7699,-4.7511,-4.7407,-4.728,-4.7107,-4.666,-4.6382,-4.6123,-4.5843,-4.558,-4.5249,-4.4971,-4.5035,-4.5018,-4.4705,-4.4164,-4.3707,-4.3183,-4.2496,-4.2327,-4.2479,-4.2439,-4.2286,-4.1982,-4.166,-4.1508,-5.6497,-5.5849,-5.5812,-5.5662,-5.5425,-5.544,-5.5415,-5.5415,-5.5428,-5.5428,-5.5415,-5.5434,-5.5434,-5.5428,-5.5421,-5.5402,-5.5384,-5.5396,-5.539,-5.5396,-5.539,-5.539,-5.539,-5.539,-5.539,-5.539,-5.539,-5.539,-5.539,-5.539,-5.539,-5.5326,-5.5154,-5.4982,-5.4562,-5.3359,-5.204,-5.1219,-5.0703,-5.0302,-5.0302,-5.0302,-5.0302,-5.0278,-5.0278,-5.0248,-5.0181,-5.0038,-4.9968,-4.9844,-4.9674,-4.9483,-4.9329,-4.9161,-4.8934,-4.885,-4.8764,-4.8641,-4.8402,-4.8324,-4.8324,-4.8324,-4.8324,-4.8324,-4.8324,-4.8324,-4.8324,-4.8324,-4.8324,-4.8324,-4.8324,-4.8324,-4.8324,-4.8324,-4.8324,-4.8324,-4.8324,-4.8324,-4.8324,-4.8305,-4.8267,-4.8229,-4.813,-4.801,-4.7866,-4.7759,-4.7738,-4.7699,-4.7699,-4.7699,-4.7678,-4.7615,-4.7615,-4.7407,-4.7173,-4.684,-4.6478,-4.6262,-4.5943,-4.5511,-4.532,-4.532,-4.4902,-4.4198,-4.3673,-4.324,-4.2615,-4.1897,-4.1796,-4.188,-4.166,-4.1356,-4.1153,-4.0832,-4.0705,-5.626,-5.6091,-5.6031,-5.5803,-5.5535,-5.5504,-5.5492,-5.5499,-5.5499,-5.5499,-5.5499,-5.5499,-5.548,-5.5468,-5.542,-5.5415,-5.539,-5.539,-5.5396,-5.5384,-5.539,-5.539,-5.539,-5.539,-5.539,-5.539,-5.539,-5.539,-5.539,-5.539,-5.539,-5.5078,-5.4639,-5.4046,-5.3951,-5.248,-5.1238,-5.0474,-5.034,-5.0302,-5.0302,-5.0302,-5.0302,-5.0302,-5.0302,-5.0302,-5.0278,-5.0236,-5.0169,-5.0132,-4.9942,-4.9803,-4.9762,-4.9468,-4.9177,-4.8919,-4.8867,-4.8676,-4.8382,-4.8325,-4.8324,-4.8324,-4.8324,-4.8324,-4.8324,-4.8324,-4.8324,-4.8324,-4.8324,-4.8324,-4.8324,-4.8324,-4.8324,-4.8324,-4.8324,-4.8324,-4.8324,-4.8324,-4.8324,-4.8324,-4.8287,-4.8248,-4.8148,-4.8026,-4.7863,-4.7759,-4.7717,-4.7699,-4.7699,-4.7699,-4.7699,-4.7699,-4.7699,-4.7636,-4.7407,-4.7129,-4.6863,-4.6637,-4.6334,-4.595,-4.5485,-4.5188,-4.4612,-4.3756,-4.3217,-4.2828,-4.2049,-4.1238,-4.1221,-4.1136,-4.0705,-4.04,-4.0214,-4.0197,-4.0214,-5.6383,-5.6237,-5.6212,-5.6084,-5.5891,-5.5712,-5.5585,-5.5516,-5.5523,-5.5523,-5.5523,-5.5523,-5.5488,-5.5444,-5.5456,-5.5451,-5.5384,-5.5402,-5.5396,-5.5403,-5.539,-5.539,-5.539,-5.539,-5.539,-5.539,-5.539,-5.539,-5.539,-5.539,-5.539,-5.5103,-5.3913,-5.2996,-5.2499,-5.1665,-5.12,-5.0474,-5.0302,-5.0302,-5.0302,-5.0302,-5.0302,-5.0302,-5.0302,-5.0302,-5.0302,-5.0302,-5.0302,-5.0302,-5.01,-5.0088,-5.0051,-4.9803,-4.9468,-4.9209,-4.9113,-4.8984,-4.8676,-4.8495,-4.8324,-4.8324,-4.8324,-4.8324,-4.8324,-4.8324,-4.8324,-4.8324,-4.8324,-4.8324,-4.8324,-4.8324,-4.8324,-4.8324,-4.8324,-4.8324,-4.8324,-4.8324,-4.8324,-4.8324,-4.8287,-4.8267,-4.8187,-4.8087,-4.7925,-4.7801,-4.7759,-4.7699,-4.7699,-4.7699,-4.7699,-4.7699,-4.7699,-4.7699,-4.7593,-4.7363,-4.7298,-4.7191,-4.684,-4.6454,-4.5943,-4.5268,-4.4387,-4.3562,-4.2966,-4.2371,-4.1542,-4.0832,-4.057,-4.0316,-4.0163,-4.0113,-4.013,-4.0146,-4.0146,-5.6528,-5.6413,-5.639,-5.6303,-5.6146,-5.5944,-5.575,-5.5637,-5.5588,-5.5573,-5.5573,-5.5573,-5.5551,-5.5527,-5.5516,-5.5492,-5.544,-5.5402,-5.539,-5.5384,-5.539,-5.539,-5.539,-5.5403,-5.539,-5.539,-5.539,-5.539,-5.539,-5.539,-5.4982,-5.4142,-5.3129,-5.2079,-5.1429,-5.1028,-5.0875,-5.0359,-5.0302,-5.0302,-5.0302,-5.0302,-5.0302,-5.0302,-5.0302,-5.0302,-5.0302,-5.0302,-5.0302,-5.0302,-5.0302,-5.0302,-5.0193,-5.0076,-4.973,-4.9468,-4.9031,-4.8866,-4.8587,-4.8458,-4.8306,-4.8324,-4.8324,-4.8324,-4.8324,-4.8324,-4.8324,-4.8324,-4.8324,-4.8324,-4.8324,-4.8324,-4.8324,-4.8324,-4.8324,-4.8324,-4.8324,-4.8324,-4.8324,-4.8324,-4.8305,-4.8247,-4.8207,-4.8126,-4.7986,-4.7904,-4.7801,-4.7759,-4.7699,-4.7699,-4.7699,-4.7699,-4.7699,-4.7699,-4.7699,-4.7636,-4.7615,-4.7696,-4.7258,-4.673,-4.6013,-4.5234,-4.4309,-4.3311,-4.2485,-4.1677,-4.1018,-4.0502,-4.0316,-4.0214,-4.0146,-4.0113,-4.0113,-4.0113,-4.0113,-5.6604,-5.6604,-5.6604,-5.6475,-5.6308,-5.6152,-5.6008,-5.5887,-5.5769,-5.5726,-5.5724,-5.5716,-5.5684,-5.5662,-5.5618,-5.557,-5.5511,-5.5432,-5.5421,-5.5403,-5.5403,-5.5409,-5.5396,-5.5396,-5.5384,-5.5403,-5.539,-5.539,-5.5371,-5.5135,-5.4352,-5.3091,-5.2231,-5.1353,-5.0779,-5.0493,-5.0436,-5.0321,-5.0302,-5.0302,-5.0302,-5.0302,-5.0302,-5.0302,-5.0302,-5.0302,-5.0302,-5.0302,-5.0302,-5.0302,-5.0302,-5.0302,-5.029,-5.029,-4.987,-4.9378,-4.8763,-4.8532,-4.8439,-4.8402,-4.8306,-4.8324,-4.8324,-4.8324,-4.8324,-4.8324,-4.8324,-4.8324,-4.8324,-4.8324,-4.8324,-4.8324,-4.8324,-4.8324,-4.8324,-4.8324,-4.8324,-4.8324,-4.8324,-4.8324,-4.8324,-4.8286,-4.8228,-4.8148,-4.8067,-4.7986,-4.7904,-4.784,-4.7759,-4.7699,-4.7699,-4.7699,-4.7699,-4.7699,-4.7699,-4.7699,-4.7699,-4.7696,-4.7258,-4.6712,-4.5985,-4.5192,-4.4148,-4.309,-4.185,-4.1035,-4.057,-4.0316,-4.018,-4.0113,-4.0113,-4.0113,-4.0113,-4.0113,-4.0113,-5.6604,-5.6604,-5.6604,-5.6558,-5.6478,-5.6327,-5.6164,-5.6037,-5.5978,-5.5946,-5.5855,-5.5845,-5.5759,-5.5629,-5.5607,-5.5562,-5.5516,-5.548,-5.5468,-5.5463,-5.5458,-5.5427,-5.5415,-5.5409,-5.5403,-5.5377,-5.5384,-5.5269,-5.5193,-5.4887,-5.3588,-5.2136,-5.1677,-5.1009,-5.0569,-5.0302,-5.0302,-5.0302,-5.0302,-5.0302,-5.0302,-5.0302,-5.0302,-5.0302,-5.0302,-5.0302,-5.0302,-5.0302,-5.0302,-5.0302,-5.0302,-5.0302,-5.0302,-5.029,-5.0051,-4.9674,-4.9097,-4.8676,-4.8604,-4.8439,-4.8325,-4.8363,-4.8325,-4.8324,-4.8324,-4.8324,-4.8324,-4.8324,-4.8324,-4.8324,-4.8324,-4.8324,-4.8324,-4.8324,-4.8324,-4.8324,-4.8324,-4.8324,-4.8324,-4.8324,-4.8324,-4.8305,-4.8247,-4.8208,-4.8128,-4.8087,-4.7986,-4.7902,-4.7819,-4.7738,-4.7699,-4.7699,-4.7699,-4.7699,-4.7699,-4.7699,-4.7699,-4.7636,-4.7258,-4.686,-4.623,-4.5337,-4.4083,-4.285,-4.1671,-4.0865,-4.0248,-4.0121,-4.0246,-4.0121,-4.0113,-4.0113,-4.0113,-4.0113,-4.0113,-5.6604,-5.6604,-5.6604,-5.6604,-5.658,-5.6472,-5.6363,-5.6291,-5.6166,-5.6035,-5.5924,-5.5907,-5.5789,-5.5673,-5.5629,-5.5607,-5.5551,-5.5539,-5.5547,-5.5511,-5.5523,-5.5488,-5.5444,-5.5432,-5.5427,-5.5339,-5.5065,-5.481,-5.4594,-5.3645,-5.2372,-5.1761,-5.1372,-5.0818,-5.0436,-5.0302,-5.0302,-5.0302,-5.0302,-5.0302,-5.0302,-5.0302,-5.0302,-5.0302,-5.0302,-5.0302,-5.0302,-5.0302,-5.0302,-5.0302,-5.0302,-5.0302,-5.0248,-5.0181,-5.0063,-4.9688,-4.9314,-4.9031,-4.8965,-4.883,-4.8658,-4.8532,-4.8495,-4.842,-4.8344,-4.8324,-4.8324,-4.8324,-4.8324,-4.8324,-4.8324,-4.8324,-4.8324,-4.8324,-4.8324,-4.8324,-4.8324,-4.8324,-4.8324,-4.8324,-4.8324,-4.8324,-4.8286,-4.8247,-4.8169,-4.807,-4.797,-4.7886,-4.7822,-4.7738,-4.7699,-4.7699,-4.7699,-4.7699,-4.7699,-4.7699,-4.7699,-4.7678,-4.7572,-4.7088,-4.6498,-4.5361,-4.3968,-4.2712,-4.1507,-4.0913,-4.0483,-4.0402,-4.0427,-4.0303,-4.0196,-4.0146,-4.0121,-4.0113,-4.0113,-5.6604,-5.6604,-5.6604,-5.6604,-5.6604,-5.6582,-5.6599,-5.6575,-5.6291,-5.6077,-5.5978,-5.5927,-5.5861,-5.5749,-5.5728,-5.5684,-5.5629,-5.5607,-5.5604,-5.5535,-5.5551,-5.5527,-5.5516,-5.5504,-5.5334,-5.5068,-5.468,-5.4197,-5.3517,-5.2683,-5.1919,-5.1486,-5.0818,-5.0359,-5.034,-5.0302,-5.0302,-5.0302,-5.0302,-5.0302,-5.0302,-5.0302,-5.0302,-5.0302,-5.0302,-5.0302,-5.0302,-5.0302,-5.0302,-5.0302,-5.0302,-5.0302,-5.0212,-5.0088,-4.9923,-4.9771,-4.9527,-4.939,-4.9299,-4.919,-4.9048,-4.8917,-4.8833,-4.8729,-4.8641,-4.8364,-4.8306,-4.8324,-4.8324,-4.8324,-4.8324,-4.8324,-4.8324,-4.8324,-4.8324,-4.8324,-4.8324,-4.8324,-4.8324,-4.8324,-4.8324,-4.8324,-4.8305,-4.8267,-4.8228,-4.8092,-4.7972,-4.7909,-4.7824,-4.772,-4.7699,-4.7699,-4.7699,-4.7699,-4.7699,-4.7699,-4.7699,-4.7678,-4.7563,-4.715,-4.6424,-4.5168,-4.3778,-4.2559,-4.1429,-4.1256,-4.0955,-4.0902,-4.0778,-4.0604,-4.0458,-4.0254,-4.0171,-4.0146,-4.0113,-5.6604,-5.6604,-5.6604,-5.6604,-5.6604,-5.6604,-5.6604,-5.6604,-5.6523,-5.6359,-5.6227,-5.6175,-5.6057,-5.5872,-5.5844,-5.5798,-5.5686,-5.5686,-5.5662,-5.564,-5.5629,-5.55,-5.5527,-5.5401,-5.5155,-5.4687,-5.4185,-5.3453,-5.2468,-5.1767,-5.1266,-5.0696,-5.0302,-5.0302,-5.0302,-5.0302,-5.0302,-5.0302,-5.0302,-5.0302,-5.0302,-5.0302,-5.0302,-5.0302,-5.0302,-5.0302,-5.0302,-5.0302,-5.0302,-5.0302,-5.0302,-5.0302,-5.029,-5.0212,-5.0188,-5.012,-4.9857,-4.9716,-4.9627,-4.9527,-4.9348,-4.9256,-4.9177,-4.9145,-4.8949,-4.8532,-4.8326,-4.8325,-4.8324,-4.8324,-4.8324,-4.8324,-4.8324,-4.8324,-4.8324,-4.8324,-4.8324,-4.8324,-4.8324,-4.8324,-4.8324,-4.8324,-4.8324,-4.8286,-4.8247,-4.8151,-4.8052,-4.7949,-4.7845,-4.7759,-4.7699,-4.7699,-4.7699,-4.7699,-4.7699,-4.7699,-4.7699,-4.7446,-4.7223,-4.6798,-4.6245,-4.4815,-4.3328,-4.2334,-4.145,-4.1459,-4.1459,-4.137,-4.123,-4.0902,-4.0683,-4.0458,-4.0328,-4.0279,-4.0171,-5.6604,-5.6604,-5.6604,-5.6604,-5.6604,-5.6604,-5.6604,-5.6604,-5.6604,-5.655,-5.6436,-5.634,-5.6175,-5.6005,-5.599,-5.5913,-5.5798,-5.5769,-5.5719,-5.5716,-5.5609,-5.5355,-5.5305,-5.5102,-5.4463,-5.3939,-5.3261,-5.2403,-5.1414,-5.1127,-5.076,-5.042,-5.0359,-5.0337,-5.0356,-5.0314,-5.0302,-5.0302,-5.0302,-5.0302,-5.0302,-5.0302,-5.0302,-5.0302,-5.0302,-5.0302,-5.0302,-5.0302,-5.0302,-5.0302,-5.0302,-5.0302,-5.0302,-5.0278,-5.029,-5.0255,-5.0132,-5.0025,-4.9955,-4.983,-4.9646,-4.9589,-4.9527,-4.9498,-4.9221,-4.8847,-4.8711,-4.8676,-4.8363,-4.8306,-4.8324,-4.8324,-4.8324,-4.8324,-4.8324,-4.8324,-4.8324,-4.8324,-4.8324,-4.8324,-4.8324,-4.8324,-4.8324,-4.8305,-4.8247,-4.8092,-4.8012,-4.7929,-4.7842,-4.778,-4.7738,-4.7699,-4.7699,-4.7699,-4.7699,-4.7699,-4.7699,-4.7391,-4.69,-4.6083,-4.5299,-4.4095,-4.2866,-4.2338,-4.1994,-4.2015,-4.1994,-4.1849,-4.1393,-4.0972,-4.0808,-4.0683,-4.0556,-4.0402,-4.0221,-5.6604,-5.6604,-5.6604,-5.6604,-5.6604,-5.6604,-5.6604,-5.6604,-5.6604,-5.6604,-5.658,-5.6413,-5.6252,-5.6158,-5.6116,-5.6015,-5.5951,-5.5919,-5.5844,-5.5731,-5.5566,-5.521,-5.4756,-5.4377,-5.371,-5.2937,-5.2165,-5.1491,-5.0722,-5.0664,-5.0653,-5.0508,-5.0457,-5.0412,-5.0401,-5.0367,-5.0314,-5.0314,-5.0314,-5.0302,-5.0302,-5.0302,-5.0302,-5.0302,-5.0302,-5.0302,-5.0302,-5.0302,-5.0302,-5.0302,-5.0302,-5.0302,-5.0302,-5.0302,-5.0302,-5.0278,-5.0278,-5.0224,-5.0224,-5.0181,-5.0051,-4.9942,-4.9903,-4.9744,-4.9498,-4.9333,-4.9161,-4.8951,-4.8641,-4.8345,-4.8363,-4.8324,-4.8324,-4.8324,-4.8324,-4.8324,-4.8324,-4.8324,-4.8324,-4.8324,-4.8324,-4.8324,-4.8324,-4.8324,-4.8209,-4.8072,-4.797,-4.7886,-4.7801,-4.7759,-4.7699,-4.7699,-4.7699,-4.7699,-4.7699,-4.7699,-4.7699,-4.7047,-4.6486,-4.5436,-4.442,-4.3526,-4.3001,-4.2914,-4.2673,-4.2498,-4.2438,-4.2318,-4.176,-4.1276,-4.1071,-4.0978,-4.0737,-4.0538,-4.0246,-5.6604,-5.6604,-5.6604,-5.6604,-5.6604,-5.6604,-5.6604,-5.6604,-5.6604,-5.6604,-5.6602,-5.6558,-5.6439,-5.6246,-5.6266,-5.6186,-5.6058,-5.5992,-5.6012,-5.5996,-5.518,-5.4837,-5.4302,-5.3455,-5.2895,-5.2153,-5.1402,-5.0854,-5.0593,-5.0582,-5.0542,-5.0492,-5.05,-5.0478,-5.0448,-5.0404,-5.0359,-5.0348,-5.0314,-5.0302,-5.0302,-5.0302,-5.0302,-5.0302,-5.0302,-5.0302,-5.0302,-5.0302,-5.0302,-5.0302,-5.0302,-5.0302,-5.0302,-5.0302,-5.0302,-5.0302,-5.0302,-5.0302,-5.0302,-5.0302,-5.0156,-5.0169,-5.0132,-5.012,-4.991,-4.9771,-4.9618,-4.9453,-4.9097,-4.8604,-4.8495,-4.8344,-4.8324,-4.8324,-4.8324,-4.8324,-4.8324,-4.8324,-4.8324,-4.8324,-4.8324,-4.8324,-4.8324,-4.8305,-4.8267,-4.8131,-4.8032,-4.7968,-4.7861,-4.778,-4.7699,-4.7699,-4.7699,-4.7699,-4.7699,-4.7699,-4.7554,-4.6866,-4.5997,-4.4874,-4.3951,-4.33,-4.2919,-4.2919,-4.2919,-4.2787,-4.2729,-4.2614,-4.2516,-4.2074,-4.163,-4.1343,-4.1024,-4.0635,-4.0254]},{"header":{"parameterUnit":"m.s-1","parameterCategory":1,"la1":31.0,"la2":29.5877,"lo1":-88.7671,"lo2":-86.6584,"dy":0.0162,"dx":0.0185,"nx":115,"ny":88,"refTime":"2023-04-29T06:00:00:Z","depth":0,"parameterNumber":3,"parameterNumberName":"V-component_of_WINDS"},"data":[0.0,0.0,0.0,0.0,0.0,0.0,0.0,0.0,0.0,0.0,0.0,0.0,0.0,0.0,0.0,0.0,0.0,0.0,0.0,0.0,0.0,0.0,0.0,0.0,0.0,0.0,0.0,0.0,0.0,0.0,0.0,0.0,0.0,0.0,0.0,0.0,0.0,0.0,0.0,0.0,0.0,0.0,0.0,0.0,0.0,0.0,0.0,0.0,0.0,0.0,0.0,0.0,0.0,0.0,0.0,0.0,0.0,0.0,0.0,0.0,0.0,0.0,0.0,0.0,0.0,0.0,0.0,0.0,0.0,0.0,0.0,0.0,0.0,0.0,0.0,0.0,0.0,0.0,0.0,0.0,0.0,0.0,0.0,0.0,0.0,0.0,0.0,0.0,0.0,0.0,0.0,0.0,0.0,0.0,0.0,0.0,0.0,0.0,0.0,0.0,0.0,0.0,0.0,0.0,0.0,0.0,0.0,0.0,0.0,0.0,0.0,0.0,0.0,0.0,0.0,0.0,0.0,0.0,0.0,0.0,0.0,0.0,0.0,0.0,0.0,0.0,0.0,0.0,0.0,0.0,0.0,0.0,0.0,0.0,0.0,0.0,0.0,0.0,0.0,0.0,0.0,0.0,0.0,0.0,0.0,0.0,0.0,0.0,0.0,0.0,0.0,0.0,0.0,0.0,0.0,0.0,0.0,0.0,0.0,0.0,0.0,0.0,0.0,0.0,0.0,0.0,0.0,0.0,0.0,0.0,0.0,0.0,0.0,0.0,0.0,0.0,0.0,0.0,0.0,0.0,0.0,0.0,0.0,0.0,0.0,0.0,0.0,0.0,0.0,0.0,0.0,0.0,0.0,0.0,0.0,0.0,0.0,0.0,0.0,0.0,0.0,0.0,0.0,0.0,0.0,0.0,0.0,0.0,0.0,0.0,0.0,0.0,0.0,0.0,0.0,0.0,0.0,0.0,0.0,0.0,0.0,0.0,0.0,0.0,0.0,0.0,0.0,0.0,0.0,0.0,0.0,0.0,0.0,0.0,0.0,0.0,0.0,0.0,0.0,0.0,0.0,0.0,0.0,0.0,0.0,0.0,0.0,0.0,0.0,0.0,0.0,0.0,0.0,0.0,0.0,0.0,0.0,0.0,0.0,0.0,0.0,0.0,0.0,0.0,0.0,0.0,0.0,0.0,0.0,0.0,0.0,0.0,0.0,0.0,0.0,0.0,0.0,0.0,0.0,0.0,0.0,0.0,0.0,0.0,0.0,0.0,0.0,0.0,0.0,0.0,0.0,0.0,0.0,0.0,0.0,0.0,0.0,0.0,0.0,0.0,0.0,0.0,0.0,0.0,0.0,0.0,0.0,0.0,0.0,0.0,0.0,0.0,0.0,0.0,0.0,0.0,0.0,0.0,0.0,0.0,0.0,0.0,0.0,0.0,0.0,0.0,0.0,0.0,0.0,0.0,0.0,0.0,0.0,0.0,0.0,0.0,0.0,0.0,0.0,0.0,0.0,0.0,0.0,0.0,0.0,0.0,0.0,0.0,0.0,0.0,0.0,0.0,0.0,0.0,0.0,0.0,0.0,0.0,0.0,0.0,0.0,0.0,0.0,0.0,0.0,0.0,0.0,0.0,0.0,0.0,0.0,0.0,0.0,0.0,0.0,0.0,0.0,0.0,0.0,0.0,0.0,0.0,0.0,0.0,0.0,0.0,0.0,0.0,0.0,0.0,0.0,0.0,0.0,0.0,0.0,0.0,0.0,0.0,0.0,0.0,0.0,0.0,0.0,0.0,0.0,0.0,0.0,0.0,0.0,0.0,0.0,0.0,0.0,0.0,0.0,0.0,0.0,0.0,0.0,0.0,0.0,0.0,0.0,0.0,0.0,0.0,0.0,0.0,0.0,0.0,0.0,0.0,0.0,0.0,0.0,0.0,0.0,0.0,0.0,0.0,0.0,0.0,0.0,0.0,0.0,0.0,0.0,0.0,0.0,0.0,0.0,0.0,0.0,0.0,0.0,0.0,0.0,0.0,0.0,0.0,0.0,0.0,0.0,0.0,0.0,0.0,0.0,0.0,0.0,0.0,0.0,0.0,0.0,0.0,0.0,0.0,0.0,0.0,0.0,0.0,0.0,0.0,0.0,0.0,0.0,0.0,0.0,0.0,0.0,0.0,0.0,0.0,0.0,0.0,0.0,0.0,0.0,0.0,0.0,0.0,0.0,0.0,0.0,0.0,0.0,0.0,0.0,0.0,0.0,0.0,0.0,0.0,0.0,0.0,0.0,0.0,0.0,0.0,0.0,0.0,0.0,0.0,0.0,0.0,0.0,0.0,0.0,0.0,0.0,0.0,0.0,0.0,0.0,0.0,0.0,0.0,0.0,0.0,0.0,0.0,0.0,0.0,0.0,0.0,0.0,0.0,0.0,0.0,0.0,0.0,0.0,0.0,0.0,0.0,0.0,0.0,0.0,0.0,0.0,0.0,0.0,0.0,0.0,0.0,0.0,0.0,0.0,0.0,0.0,0.0,0.0,0.0,0.0,0.0,0.0,0.0,0.0,0.0,0.0,0.0,0.0,0.0,0.0,0.0,0.0,0.0,0.0,0.0,0.0,0.0,0.0,0.0,0.0,0.0,0.0,0.0,0.0,0.0,0.0,0.0,0.0,0.0,0.0,0.0,0.0,0.0,0.0,0.0,0.0,0.0,0.0,0.0,0.0,0.0,0.0,0.0,0.0,0.0,0.0,0.0,0.0,0.0,0.0,0.0,0.0,0.0,0.0,0.0,0.0,0.0,0.0,0.0,0.0,0.0,0.0,0.0,0.0,0.0,0.0,0.0,0.0,0.0,0.0,0.0,0.0,0.0,0.0,0.0,0.0,0.0,0.0,0.0,0.0,0.0,0.0,0.0,0.0,0.0,0.0,0.0,0.0,0.0,0.0,0.0,0.0,0.0,0.0,0.0,0.0,0.0,0.0,0.0,0.0,0.0,0.0,0.0,0.0,0.0,0.0,0.0,0.0,0.0,0.0,0.0,0.0,0.0,0.0,0.0,0.0,0.0,0.0,0.0,0.0,0.0,0.0,0.0,0.0,0.0,0.0,0.0,0.0,0.0,0.0,0.0,0.0,0.0,0.0,0.0,0.0,0.0,0.0,0.0,0.0,0.0,0.0,0.0,0.0,0.0,0.0,0.0,0.0,0.0,0.0,0.0,0.0,0.0,0.0,0.0,0.0,0.0,0.0,0.0,0.0,0.0,0.0,0.0,0.0,0.0,0.0,0.0,0.0,0.0,0.0,0.0,0.0,0.0,0.0,0.0,0.0,0.0,0.0,0.0,0.0,0.0,0.0,0.0,0.0,0.0,0.0,0.0,0.0,0.0,0.0,0.0,0.0,0.0,0.0,0.0,0.0,0.0,0.0,0.0,0.0,0.0,0.0,0.0,0.0,0.0,0.0,0.0,0.0,0.0,0.0,0.0,0.0,0.0,0.0,0.0,0.0,0.0,0.0,0.0,0.0,0.0,0.0,0.0,0.0,0.0,0.0,0.0,0.0,0.0,0.0,0.0,0.0,0.0,0.0,0.0,0.0,0.0,0.0,0.0,0.0,0.0,0.0,0.0,0.0,0.0,0.0,0.0,0.0,0.0,0.0,0.0,0.0,0.0,0.0,0.0,0.0,0.0,0.0,0.0,0.0,0.0,0.0,0.0,0.0,0.0,0.0,0.0,0.0,0.0,0.0,0.0,0.0,0.0,0.0,0.0,0.0,0.0,0.0,0.0,0.0,0.0,0.0,0.0,0.0,0.0,0.0,0.0,0.0,0.0,0.0,0.0,0.0,0.0,0.0,0.0,0.0,0.0,0.0,0.0,0.0,0.0,0.0,0.0,0.0,0.0,0.0,0.0,0.0,0.0,0.0,0.0,0.0,0.0,0.0,0.0,0.0,0.0,0.0,0.0,0.0,0.0,0.0,0.0,0.0,0.0,0.0,0.0,0.0,0.0,0.0,0.0,0.0,0.0,0.0,0.0,0.0,0.0,0.0,0.0,0.0,0.0,0.0,0.0,0.0,0.0,0.0,0.0,0.0,0.0,0.0,0.0,0.0,0.0,0.0,0.0,0.0,0.0,0.0,0.0,0.0,0.0,0.0,0.0,0.0,0.0,0.0,0.0,0.0,0.0,0.0,0.0,0.0,0.0,0.0,0.0,0.0,0.0,0.0,0.0,0.0,0.0,0.0,0.0,0.0,0.0,0.0,0.0,0.0,0.0,0.0,0.0,0.0,0.0,-0.8616,0.0,0.0,0.0,0.0,0.0,0.0,0.0,0.0,0.0,0.0,0.0,0.0,0.0,0.0,0.0,0.0,0.0,0.0,0.0,0.0,0.0,0.0,0.0,0.0,0.0,0.0,0.0,0.0,0.0,0.0,0.0,0.0,0.0,0.0,0.0,0.0,0.0,0.0,0.0,0.0,0.0,0.0,0.0,0.0,0.0,0.0,0.0,0.0,0.0,0.0,0.0,0.0,0.0,0.0,0.0,0.0,0.0,0.0,0.0,0.0,0.0,0.0,0.0,0.0,0.0,0.0,0.0,0.0,0.0,0.0,0.0,0.0,0.0,0.0,0.0,0.0,0.0,0.0,0.0,0.0,0.0,0.0,0.0,0.0,0.0,0.0,0.0,0.0,0.0,0.0,0.0,0.0,0.0,0.0,0.0,0.0,0.0,0.0,0.0,0.0,0.0,0.0,0.0,0.0,0.0,0.0,0.0,0.0,0.0,0.0,-0.8616,-0.8616,-0.8616,-0.8616,-0.8616,0.0,0.0,0.0,0.0,0.0,0.0,0.0,0.0,0.0,0.0,0.0,0.0,0.0,0.0,0.0,0.0,0.0,0.0,0.0,0.0,0.0,0.0,0.0,0.0,0.0,0.0,0.0,0.0,0.0,0.0,0.0,0.0,0.0,0.0,0.0,0.0,0.0,0.0,0.0,0.0,0.0,0.0,0.0,0.0,0.0,0.0,0.0,0.0,0.0,0.0,0.0,0.0,0.0,0.0,0.0,0.0,0.0,0.0,0.0,0.0,0.0,0.0,0.0,0.0,0.0,0.0,0.0,0.0,0.0,0.0,0.0,0.0,0.0,0.0,0.0,0.0,0.0,0.0,0.0,0.0,0.0,0.0,0.0,0.0,0.0,0.0,0.0,0.0,0.0,0.0,0.0,0.0,0.0,0.0,0.0,0.0,0.0,0.0,0.0,0.0,0.0,0.0,0.0,0.0,0.0,0.0,0.0,0.0,0.0,0.0,0.0,0.0,-0.8616,-0.8616,-0.8616,0.0,0.0,0.0,0.0,0.0,0.0,0.0,0.0,0.0,0.0,0.0,0.0,0.0,0.0,0.0,0.0,0.0,0.0,0.0,0.0,0.0,0.0,0.0,0.0,0.0,0.0,0.0,0.0,0.0,0.0,0.0,0.0,0.0,0.0,0.0,0.0,0.0,0.0,0.0,0.0,0.0,0.0,0.0,0.0,0.0,0.0,0.0,0.0,0.0,0.0,0.0,0.0,0.0,0.0,0.0,0.0,0.0,0.0,0.0,0.0,0.0,0.0,0.0,0.0,0.0,0.0,0.0,0.0,0.0,0.0,0.0,0.0,0.0,0.0,0.0,0.0,0.0,0.0,0.0,0.0,0.0,0.0,0.0,0.0,0.0,0.0,0.0,0.0,0.0,0.0,0.0,0.0,0.0,0.0,0.0,0.0,0.0,0.0,0.0,0.0,0.0,0.0,0.0,0.0,0.0,0.0,0.0,0.0,0.0,0.0,-0.8616,-0.8616,-0.8616,0.0,-0.8616,0.0,0.0,0.0,0.0,0.0,0.0,0.0,0.0,0.0,0.0,0.0,0.0,0.0,0.0,0.0,0.0,0.0,0.0,0.0,0.0,0.0,0.0,0.0,0.0,0.0,0.0,0.0,0.0,0.0,0.0,0.0,0.0,0.0,0.0,0.0,0.0,0.0,0.0,0.0,0.0,0.0,0.0,0.0,0.0,0.0,0.0,0.0,0.0,0.0,0.0,0.0,0.0,0.0,0.0,0.0,0.0,0.0,0.0,0.0,0.0,0.0,0.0,0.0,0.0,0.0,0.0,0.0,0.0,0.0,0.0,0.0,0.0,0.0,0.0,0.0,0.0,0.0,0.0,0.0,0.0,0.0,0.0,0.0,0.0,0.0,0.0,0.0,0.0,0.0,0.0,0.0,0.0,0.0,0.0,0.0,0.0,0.0,0.0,0.0,0.0,0.0,0.0,0.0,0.0,0.0,0.0,0.0,0.0,0.0,0.0,-0.8616,-0.8616,-0.8616,-0.8616,0.0,0.0,0.0,0.0,0.0,0.0,0.0,0.0,0.0,0.0,0.0,0.0,0.0,0.0,0.0,0.0,0.0,0.0,0.0,0.0,0.0,0.0,0.0,0.0,0.0,0.0,0.0,0.0,0.0,0.0,0.0,0.0,0.0,0.0,0.0,0.0,0.0,0.0,0.0,0.0,0.0,0.0,0.0,0.0,0.0,0.0,0.0,0.0,0.0,0.0,0.0,0.0,0.0,0.0,0.0,0.0,0.0,0.0,0.0,0.0,0.0,0.0,0.0,0.0,0.0,0.0,0.0,0.0,0.0,0.0,0.0,0.0,0.0,0.0,0.0,0.0,0.0,0.0,0.0,0.0,0.0,0.0,0.0,0.0,0.0,0.0,0.0,0.0,0.0,0.0,0.0,0.0,0.0,0.0,0.0,0.0,0.0,0.0,0.0,0.0,0.0,0.0,0.0,0.0,0.0,0.0,0.0,0.0,0.0,0.0,-0.8616,-0.8616,-0.8616,-0.8616,-0.8616,-0.8616,0.0,0.0,0.0,0.0,0.0,0.0,0.0,0.0,0.0,0.0,0.0,0.0,0.0,0.0,0.0,0.0,0.0,0.0,0.0,0.0,0.0,0.0,0.0,0.0,0.0,0.0,0.0,0.0,0.0,0.0,0.0,0.0,0.0,0.0,0.0,0.0,0.0,0.0,0.0,0.0,0.0,0.0,0.0,0.0,0.0,0.0,0.0,0.0,0.0,0.0,0.0,0.0,0.0,0.0,0.0,0.0,0.0,0.0,0.0,0.0,0.0,0.0,0.0,0.0,0.0,0.0,0.0,0.0,0.0,0.0,0.0,0.0,0.0,0.0,0.0,0.0,0.0,0.0,0.0,0.0,0.0,0.0,0.0,0.0,0.0,0.0,0.0,0.0,0.0,0.0,0.0,0.0,0.0,0.0,0.0,0.0,0.0,0.0,0.0,0.0,0.0,0.0,0.0,0.0,0.0,0.0,0.0,0.0,-0.8616,-0.8616,-0.8616,-0.8616,-0.8616,-0.8616,0.0,0.0,0.0,0.0,0.0,0.0,0.0,0.0,0.0,0.0,0.0,0.0,0.0,0.0,0.0,0.0,0.0,0.0,0.0,0.0,0.0,0.0,0.0,0.0,0.0,0.0,0.0,0.0,0.0,0.0,0.0,0.0,0.0,0.0,0.0,0.0,0.0,0.0,0.0,0.0,0.0,0.0,0.0,0.0,0.0,0.0,0.0,0.0,0.0,0.0,0.0,0.0,0.0,0.0,0.0,0.0,0.0,0.0,0.0,0.0,0.0,0.0,0.0,0.0,0.0,0.0,0.0,0.0,0.0,0.0,0.0,0.0,0.0,0.0,0.0,0.0,0.0,0.0,0.0,0.0,0.0,0.0,0.0,0.0,0.0,0.0,0.0,0.0,0.0,0.0,0.0,0.0,0.0,0.0,0.0,0.0,0.0,0.0,0.0,0.0,0.0,0.0,0.0,0.0,0.0,0.0,0.0,0.0,0.0,-0.8616,-0.8616,-0.8616,-0.8616,-0.8616,-0.8616,0.0,0.0,0.0,0.0,0.0,0.0,0.0,0.0,0.0,0.0,0.0,0.0,0.0,0.0,0.0,0.0,0.0,0.0,0.0,0.0,0.0,0.0,0.0,0.0,0.0,0.0,0.0,0.0,0.0,0.0,0.0,0.0,0.0,0.0,0.0,0.0,0.0,0.0,0.0,0.0,0.0,0.0,0.0,0.0,0.0,0.0,0.0,0.0,0.0,0.0,0.0,0.0,0.0,0.0,0.0,0.0,0.0,0.0,0.0,0.0,0.0,0.0,0.0,0.0,0.0,0.0,0.0,0.0,0.0,0.0,0.0,0.0,0.0,0.0,0.0,0.0,0.0,0.0,0.0,0.0,0.0,0.0,0.0,0.0,0.0,0.0,0.0,0.0,0.0,0.0,0.0,0.0,0.0,0.0,0.0,0.0,0.0,0.0,0.0,0.0,0.0,0.0,0.0,0.0,0.0,0.0,0.0,0.0,0.0,-0.8999,0.0,-0.9349,-0.9043,-0.8999,-0.8867,0.0,0.0,0.0,0.0,0.0,0.0,0.0,0.0,0.0,0.0,0.0,0.0,0.0,0.0,0.0,0.0,0.0,0.0,0.0,0.0,0.0,0.0,0.0,0.0,0.0,0.0,0.0,0.0,0.0,0.0,0.0,0.0,0.0,0.0,0.0,0.0,0.0,0.0,0.0,0.0,0.0,0.0,0.0,0.0,0.0,0.0,0.0,0.0,0.0,0.0,0.0,0.0,0.0,0.0,0.0,0.0,0.0,0.0,0.0,0.0,0.0,0.0,0.0,0.0,0.0,0.0,0.0,0.0,0.0,0.0,0.0,0.0,0.0,0.0,0.0,0.0,0.0,0.0,0.0,0.0,0.0,0.0,0.0,0.0,0.0,0.0,0.0,0.0,0.0,0.0,0.0,0.0,0.0,0.0,0.0,0.0,0.0,0.0,0.0,0.0,0.0,0.0,0.0,0.0,0.0,0.0,0.0,0.0,-0.9047,-0.9864,-1.0722,-1.0727,-0.9951,-0.9864,-0.9471,0.0,0.0,0.0,0.0,0.0,0.0,0.0,0.0,0.0,0.0,0.0,0.0,0.0,0.0,0.0,0.0,0.0,0.0,0.0,0.0,0.0,0.0,0.0,0.0,0.0,0.0,0.0,0.0,0.0,0.0,0.0,0.0,0.0,0.0,0.0,0.0,0.0,0.0,0.0,0.0,0.0,0.0,0.0,0.0,0.0,0.0,0.0,0.0,0.0,0.0,0.0,0.0,0.0,0.0,0.0,0.0,0.0,0.0,0.0,0.0,0.0,0.0,0.0,0.0,0.0,0.0,0.0,0.0,0.0,0.0,0.0,0.0,0.0,0.0,0.0,0.0,0.0,0.0,0.0,0.0,0.0,0.0,0.0,0.0,0.0,0.0,0.0,0.0,0.0,0.0,0.0,0.0,0.0,0.0,0.0,0.0,0.0,0.0,0.0,0.0,0.0,0.0,0.0,0.0,0.0,0.0,0.0,0.0,0.0,-1.0243,-1.028,-1.0624,-1.1118,-0.9763,-0.9174,0.0,0.0,0.0,0.0,0.0,0.0,0.0,0.0,0.0,0.0,0.0,0.0,0.0,0.0,0.0,0.0,0.0,0.0,0.0,0.0,0.0,0.0,0.0,0.0,0.0,0.0,0.0,0.0,0.0,0.0,0.0,0.0,0.0,0.0,0.0,0.0,0.0,0.0,0.0,0.0,0.0,0.0,0.0,0.0,0.0,0.0,0.0,0.0,0.0,0.0,0.0,0.0,0.0,0.0,0.0,0.0,0.0,0.0,0.0,0.0,0.0,0.0,0.0,0.0,0.0,0.0,0.0,0.0,0.0,0.0,0.0,0.0,0.0,0.0,0.0,0.0,0.0,0.0,0.0,0.0,0.0,0.0,0.0,0.0,0.0,0.0,0.0,0.0,0.0,0.0,0.0,0.0,0.0,0.0,0.0,0.0,0.0,0.0,0.0,0.0,0.0,0.0,0.0,0.0,0.0,0.0,0.0,0.0,0.0,-1.1433,-1.1445,-1.1657,-1.2118,-1.0842,-1.0033,-0.9903,0.0,0.0,0.0,0.0,0.0,0.0,0.0,0.0,0.0,0.0,0.0,0.0,0.0,0.0,0.0,0.0,0.0,0.0,0.0,0.0,0.0,0.0,0.0,0.0,0.0,0.0,0.0,0.0,0.0,0.0,0.0,0.0,0.0,0.0,0.0,0.0,0.0,0.0,0.0,0.0,0.0,0.0,0.0,0.0,0.0,0.0,0.0,0.0,0.0,0.0,0.0,0.0,0.0,0.0,0.0,0.0,0.0,0.0,0.0,0.0,0.0,0.0,0.0,0.0,0.0,0.0,0.0,0.0,0.0,0.0,0.0,0.0,0.0,0.0,0.0,0.0,0.0,0.0,0.0,0.0,0.0,0.0,0.0,0.0,0.0,0.0,0.0,0.0,0.0,0.0,0.0,0.0,0.0,0.0,0.0,0.0,0.0,0.0,0.0,0.0,0.0,0.0,0.0,0.0,0.0,0.0,0.0,0.0,-1.3179,-1.3752,-1.3672,-1.282,-1.2625,-1.1794,0.0,0.0,0.0,0.0,0.0,0.0,0.0,0.0,0.0,0.0,0.0,0.0,0.0,0.0,0.0,0.0,0.0,0.0,0.0,0.0,0.0,0.0,0.0,0.0,0.0,0.0,0.0,0.0,0.0,0.0,0.0,0.0,0.0,0.0,0.0,0.0,0.0,0.0,0.0,0.0,0.0,0.0,0.0,0.0,0.0,0.0,0.0,0.0,0.0,0.0,0.0,0.0,0.0,0.0,0.0,0.0,0.0,0.0,0.0,0.0,0.0,0.0,0.0,0.0,0.0,0.0,0.0,0.0,0.0,0.0,0.0,0.0,0.0,0.0,0.0,0.0,0.0,0.0,0.0,0.0,0.0,0.0,0.0,0.0,0.0,0.0,0.0,0.0,0.0,0.0,0.0,0.0,0.0,0.0,0.0,0.0,0.0,0.0,0.0,0.0,0.0,0.0,0.0,0.0,0.0,0.0,0.0,0.0,0.0,-1.4104,-1.4107,-1.4061,-1.3994,-1.2506,-1.1757,0.0,0.0,0.0,0.0,0.0,0.0,0.0,0.0,0.0,0.0,0.0,0.0,0.0,0.0,0.0,0.0,0.0,0.0,0.0,0.0,0.0,0.0,0.0,0.0,0.0,0.0,0.0,0.0,0.0,0.0,0.0,0.0,0.0,0.0,0.0,0.0,0.0,0.0,0.0,0.0,0.0,0.0,0.0,0.0,0.0,0.0,0.0,0.0,0.0,0.0,0.0,0.0,0.0,0.0,0.0,0.0,0.0,0.0,0.0,0.0,0.0,0.0,0.0,0.0,0.0,0.0,0.0,0.0,0.0,0.0,0.0,0.0,0.0,0.0,0.0,0.0,0.0,0.0,0.0,0.0,0.0,0.0,0.0,0.0,0.0,0.0,0.0,0.0,0.0,0.0,0.0,0.0,0.0,0.0,0.0,0.0,0.0,0.0,0.0,0.0,0.0,0.0,0.0,0.0,0.0,0.0,0.0,0.0,-1.4166,-1.4703,-1.4422,-1.4349,-1.4516,-1.3188,-1.2534,0.0,0.0,0.0,0.0,0.0,0.0,0.0,0.0,0.0,0.0,0.0,0.0,0.0,0.0,0.0,0.0,0.0,0.0,0.0,0.0,0.0,0.0,0.0,0.0,0.0,0.0,0.0,0.0,0.0,0.0,0.0,0.0,0.0,0.0,0.0,0.0,0.0,0.0,0.0,0.0,0.0,0.0,0.0,0.0,0.0,0.0,0.0,0.0,0.0,0.0,0.0,0.0,0.0,0.0,0.0,0.0,0.0,0.0,0.0,0.0,0.0,0.0,0.0,0.0,0.0,0.0,0.0,0.0,0.0,0.0,0.0,0.0,0.0,0.0,0.0,0.0,0.0,0.0,0.0,0.0,0.0,0.0,0.0,0.0,0.0,0.0,0.0,0.0,0.0,0.0,0.0,0.0,0.0,0.0,0.0,0.0,0.0,0.0,0.0,0.0,0.0,0.0,0.0,0.0,0.0,0.0,0.0,0.0,-1.5042,-1.5008,-1.4703,-1.4549,-1.4472,-1.4235,-1.3695,0.0,0.0,0.0,0.0,0.0,0.0,0.0,0.0,0.0,0.0,0.0,0.0,0.0,0.0,0.0,0.0,0.0,0.0,0.0,0.0,0.0,0.0,0.0,0.0,0.0,0.0,0.0,0.0,0.0,0.0,0.0,0.0,0.0,0.0,0.0,0.0,0.0,0.0,0.0,0.0,0.0,0.0,0.0,0.0,0.0,0.0,0.0,0.0,0.0,0.0,0.0,0.0,0.0,0.0,0.0,0.0,0.0,0.0,0.0,0.0,0.0,0.0,0.0,0.0,0.0,0.0,0.0,0.0,0.0,0.0,0.0,0.0,0.0,0.0,0.0,0.0,0.0,0.0,0.0,0.0,0.0,0.0,0.0,0.0,0.0,0.0,0.0,0.0,0.0,0.0,0.0,0.0,0.0,0.0,0.0,0.0,0.0,0.0,0.0,0.0,0.0,0.0,0.0,0.0,0.0,0.0,0.0,0.0,-1.519,-1.497,-1.4948,-1.4763,-1.4522,-1.4242,-1.3997,0.0,0.0,0.0,0.0,0.0,0.0,0.0,0.0,0.0,0.0,0.0,0.0,0.0,0.0,0.0,0.0,0.0,0.0,0.0,0.0,0.0,0.0,0.0,0.0,0.0,0.0,0.0,0.0,0.0,0.0,0.0,0.0,0.0,0.0,0.0,0.0,0.0,0.0,0.0,0.0,0.0,0.0,0.0,0.0,0.0,0.0,0.0,0.0,-1.8162,0.0,0.0,0.0,0.0,0.0,0.0,0.0,0.0,0.0,0.0,0.0,0.0,0.0,0.0,0.0,0.0,0.0,0.0,0.0,0.0,0.0,0.0,0.0,0.0,0.0,0.0,0.0,0.0,0.0,0.0,0.0,0.0,0.0,0.0,0.0,0.0,0.0,0.0,0.0,0.0,0.0,0.0,0.0,0.0,0.0,0.0,0.0,0.0,0.0,0.0,0.0,0.0,0.0,0.0,0.0,0.0,0.0,0.0,0.0,-1.5524,-1.5371,-1.5231,-1.5097,-1.493,-1.4516,-1.4229,0.0,0.0,0.0,0.0,0.0,0.0,0.0,0.0,0.0,0.0,0.0,0.0,0.0,0.0,0.0,0.0,0.0,0.0,0.0,0.0,0.0,0.0,0.0,0.0,0.0,0.0,0.0,0.0,0.0,0.0,0.0,0.0,0.0,0.0,0.0,0.0,0.0,0.0,0.0,0.0,0.0,0.0,0.0,0.0,0.0,0.0,0.0,0.0,0.0,0.0,0.0,0.0,0.0,0.0,0.0,0.0,0.0,0.0,0.0,0.0,0.0,0.0,0.0,0.0,0.0,0.0,0.0,0.0,0.0,0.0,0.0,0.0,0.0,0.0,0.0,0.0,0.0,0.0,0.0,0.0,0.0,0.0,0.0,0.0,0.0,0.0,0.0,0.0,0.0,0.0,0.0,0.0,0.0,0.0,0.0,0.0,0.0,0.0,0.0,0.0,0.0,0.0,0.0,0.0,0.0,0.0,0.0,-1.5658,-1.5825,-1.5818,-1.5591,-1.5444,-1.5391,-1.4877,-1.4449,-1.4168,0.0,0.0,0.0,0.0,0.0,0.0,0.0,0.0,0.0,0.0,0.0,0.0,0.0,0.0,0.0,0.0,0.0,0.0,0.0,0.0,0.0,0.0,0.0,0.0,0.0,0.0,0.0,0.0,0.0,0.0,0.0,0.0,0.0,0.0,0.0,0.0,0.0,0.0,-1.7952,-1.8446,0.0,0.0,0.0,0.0,0.0,0.0,0.0,0.0,-1.8965,0.0,0.0,0.0,0.0,0.0,0.0,0.0,0.0,0.0,0.0,0.0,0.0,0.0,0.0,0.0,0.0,0.0,0.0,0.0,0.0,0.0,0.0,0.0,0.0,0.0,0.0,0.0,0.0,0.0,0.0,0.0,0.0,0.0,0.0,0.0,0.0,0.0,0.0,0.0,0.0,0.0,0.0,0.0,0.0,0.0,0.0,0.0,0.0,0.0,0.0,0.0,0.0,0.0,0.0,0.0,0.0,-1.5704,-1.5758,-1.5825,-1.5825,-1.5731,-1.5645,-1.5398,-1.507,-1.475,-1.4462,0.0,0.0,0.0,0.0,0.0,0.0,0.0,0.0,0.0,0.0,0.0,0.0,0.0,0.0,0.0,0.0,0.0,0.0,0.0,0.0,0.0,0.0,0.0,0.0,0.0,0.0,0.0,0.0,0.0,0.0,0.0,0.0,0.0,0.0,0.0,0.0,0.0,0.0,0.0,-1.8732,-1.9173,0.0,0.0,0.0,0.0,0.0,0.0,0.0,0.0,-2.0014,0.0,0.0,0.0,0.0,0.0,0.0,0.0,0.0,0.0,0.0,0.0,0.0,0.0,0.0,0.0,0.0,0.0,0.0,0.0,0.0,0.0,0.0,0.0,0.0,0.0,0.0,0.0,0.0,0.0,0.0,0.0,0.0,0.0,0.0,0.0,0.0,0.0,0.0,0.0,0.0,0.0,0.0,0.0,0.0,0.0,0.0,0.0,0.0,0.0,0.0,0.0,0.0,0.0,0.0,0.0,-1.5812,-1.5825,-1.5825,-1.5825,-1.5825,-1.5758,-1.5625,-1.5337,-1.505,0.0,0.0,0.0,0.0,0.0,0.0,0.0,0.0,0.0,0.0,0.0,0.0,0.0,0.0,0.0,0.0,0.0,0.0,0.0,0.0,0.0,0.0,0.0,0.0,0.0,0.0,0.0,0.0,0.0,0.0,0.0,0.0,0.0,0.0,0.0,0.0,0.0,0.0,0.0,0.0,-1.9163,-1.9687,-1.9922,0.0,0.0,0.0,0.0,0.0,0.0,-2.0615,-2.0527,0.0,0.0,0.0,0.0,0.0,0.0,0.0,0.0,0.0,0.0,0.0,0.0,0.0,0.0,0.0,0.0,0.0,0.0,0.0,0.0,0.0,0.0,0.0,0.0,0.0,0.0,0.0,0.0,0.0,0.0,0.0,0.0,0.0,0.0,0.0,0.0,0.0,0.0,0.0,0.0,0.0,0.0,0.0,0.0,0.0,0.0,0.0,0.0,0.0,0.0,0.0,0.0,0.0,0.0,0.0,-1.5818,-1.5825,-1.5825,-1.5825,-1.5825,-1.5825,-1.5825,-1.5545,-1.5291,0.0,0.0,0.0,0.0,0.0,0.0,0.0,0.0,0.0,0.0,0.0,0.0,0.0,0.0,0.0,0.0,0.0,0.0,0.0,0.0,0.0,0.0,0.0,0.0,0.0,0.0,0.0,0.0,0.0,0.0,0.0,0.0,0.0,0.0,0.0,0.0,0.0,0.0,0.0,0.0,0.0,-2.0176,-2.0556,-2.0615,0.0,0.0,0.0,0.0,-2.0615,-2.0615,0.0,0.0,0.0,0.0,0.0,0.0,0.0,0.0,0.0,0.0,0.0,0.0,0.0,0.0,0.0,0.0,0.0,0.0,0.0,0.0,0.0,0.0,0.0,0.0,0.0,0.0,0.0,0.0,0.0,0.0,0.0,0.0,0.0,0.0,0.0,0.0,0.0,0.0,0.0,0.0,0.0,0.0,0.0,0.0,0.0,0.0,0.0,0.0,0.0,0.0,0.0,0.0,0.0,0.0,0.0,0.0,-1.5825,-1.5825,-1.5825,-1.5825,-1.5825,-1.5825,-1.5825,-1.5545,-1.5384,0.0,0.0,0.0,0.0,0.0,0.0,0.0,0.0,0.0,0.0,0.0,0.0,0.0,0.0,0.0,0.0,0.0,0.0,0.0,0.0,0.0,0.0,0.0,0.0,0.0,0.0,0.0,0.0,0.0,0.0,0.0,0.0,0.0,0.0,0.0,0.0,0.0,0.0,0.0,0.0,0.0,-2.0546,-2.0595,-2.0615,-2.0615,0.0,0.0,-2.0615,-2.0615,-2.0615,0.0,0.0,0.0,0.0,0.0,0.0,0.0,0.0,0.0,0.0,0.0,0.0,0.0,0.0,0.0,0.0,0.0,0.0,0.0,0.0,0.0,0.0,0.0,0.0,0.0,0.0,0.0,0.0,0.0,0.0,0.0,0.0,0.0,0.0,0.0,0.0,0.0,0.0,0.0,0.0,0.0,0.0,0.0,0.0,0.0,0.0,0.0,0.0,0.0,0.0,0.0,0.0,0.0,0.0,0.0,-1.5825,-1.5825,-1.5825,-1.5825,-1.5825,-1.5825,-1.5825,-1.5825,-1.5664,-1.5565,0.0,0.0,0.0,0.0,0.0,0.0,0.0,0.0,0.0,0.0,0.0,0.0,0.0,0.0,0.0,0.0,0.0,0.0,0.0,0.0,0.0,0.0,0.0,0.0,0.0,0.0,0.0,0.0,0.0,0.0,0.0,0.0,0.0,0.0,0.0,0.0,0.0,0.0,0.0,0.0,0.0,0.0,-2.0615,-2.0615,0.0,0.0,0.0,-2.0615,-2.0615,0.0,0.0,0.0,0.0,0.0,0.0,0.0,0.0,0.0,0.0,0.0,0.0,0.0,0.0,0.0,0.0,0.0,0.0,0.0,0.0,0.0,0.0,0.0,0.0,0.0,0.0,0.0,0.0,0.0,0.0,0.0,0.0,0.0,0.0,0.0,0.0,0.0,0.0,0.0,0.0,0.0,0.0,0.0,0.0,0.0,0.0,0.0,0.0,0.0,0.0,0.0,0.0,0.0,0.0,0.0,0.0,0.0,-1.5825,-1.5825,-1.5825,-1.5825,-1.5825,-1.5825,-1.5825,-1.5825,0.0,0.0,0.0,0.0,0.0,0.0,0.0,0.0,0.0,0.0,0.0,0.0,0.0,0.0,0.0,0.0,0.0,0.0,0.0,0.0,0.0,0.0,0.0,0.0,0.0,0.0,0.0,-1.3623,0.0,0.0,0.0,0.0,0.0,0.0,0.0,0.0,0.0,0.0,0.0,0.0,0.0,0.0,-2.0615,-2.0615,-2.0615,-2.0615,0.0,0.0,-2.0615,-2.0615,-2.0615,-2.0595,0.0,0.0,0.0,0.0,0.0,0.0,0.0,0.0,0.0,0.0,0.0,0.0,0.0,0.0,0.0,0.0,0.0,0.0,0.0,0.0,0.0,0.0,0.0,0.0,0.0,0.0,0.0,0.0,0.0,0.0,0.0,0.0,0.0,0.0,0.0,0.0,0.0,0.0,0.0,0.0,0.0,0.0,0.0,0.0,0.0,0.0,0.0,0.0,0.0,0.0,0.0,0.0,0.0,0.0,0.0,-1.5825,-1.5825,-1.5825,-1.5825,-1.5825,-1.5825,-1.5825,-1.5825,-1.5771,0.0,0.0,0.0,0.0,0.0,0.0,0.0,0.0,0.0,0.0,0.0,0.0,0.0,0.0,0.0,0.0,0.0,0.0,0.0,0.0,0.0,0.0,0.0,0.0,0.0,0.0,0.0,0.0,0.0,0.0,0.0,0.0,0.0,0.0,0.0,0.0,0.0,0.0,0.0,0.0,0.0,-2.0615,-2.0615,-2.0615,-2.0615,0.0,0.0,-2.0615,-2.0615,-2.0615,-2.0654,-2.0867,0.0,0.0,0.0,0.0,0.0,0.0,0.0,0.0,0.0,0.0,0.0,0.0,0.0,0.0,0.0,0.0,0.0,0.0,0.0,0.0,0.0,0.0,0.0,0.0,0.0,0.0,0.0,0.0,0.0,0.0,0.0,0.0,0.0,0.0,0.0,0.0,0.0,0.0,0.0,0.0,0.0,0.0,0.0,0.0,0.0,0.0,0.0,0.0,0.0,0.0,0.0,0.0,0.0,-1.5825,-1.5825,-1.5825,-1.5825,-1.5825,-1.5825,-1.5825,-1.5825,-1.5825,-1.5825,0.0,0.0,0.0,0.0,0.0,0.0,0.0,0.0,0.0,0.0,0.0,0.0,0.0,0.0,0.0,0.0,0.0,0.0,0.0,0.0,0.0,0.0,0.0,0.0,0.0,0.0,0.0,0.0,-1.5669,-1.6241,-1.7206,0.0,0.0,0.0,0.0,0.0,0.0,0.0,0.0,0.0,0.0,-2.0615,-2.0615,-2.0615,0.0,0.0,-2.0615,-2.0615,-2.0615,-2.0791,-2.0986,-2.1075,-2.161,0.0,0.0,0.0,0.0,0.0,0.0,0.0,0.0,0.0,0.0,0.0,0.0,0.0,0.0,0.0,0.0,0.0,0.0,0.0,0.0,0.0,0.0,0.0,0.0,0.0,0.0,0.0,0.0,0.0,0.0,0.0,0.0,0.0,0.0,0.0,0.0,0.0,0.0,0.0,0.0,0.0,0.0,0.0,0.0,0.0,0.0,0.0,0.0,0.0,0.0,0.0,0.0,-1.5825,-1.5825,-1.5825,-1.5825,-1.5825,-1.5825,-1.5825,-1.5825,-1.5825,-1.5825,0.0,0.0,0.0,0.0,0.0,0.0,0.0,0.0,0.0,0.0,0.0,0.0,0.0,0.0,0.0,0.0,0.0,0.0,0.0,0.0,0.0,0.0,0.0,0.0,0.0,0.0,0.0,0.0,-1.677,-1.7539,-1.8652,0.0,0.0,0.0,0.0,0.0,0.0,0.0,0.0,0.0,0.0,-2.0615,-2.0615,-2.0723,-2.0762,-2.0762,-2.0918,-2.0997,-2.0997,-2.1221,-2.1435,-2.1507,0.0,0.0,0.0,0.0,0.0,0.0,0.0,0.0,0.0,0.0,0.0,0.0,0.0,0.0,0.0,0.0,0.0,0.0,0.0,0.0,0.0,0.0,0.0,0.0,0.0,0.0,0.0,0.0,0.0,0.0,-0.9624,0.0,0.0,0.0,0.0,0.0,0.0,0.0,0.0,0.0,0.0,0.0,0.0,0.0,0.0,0.0,0.0,0.0,0.0,0.0,0.0,0.0,0.0,-1.5825,-1.5825,-1.5825,-1.5825,-1.5825,-1.5825,-1.5825,-1.5825,-1.5825,-1.5825,-1.5825,0.0,0.0,0.0,0.0,0.0,0.0,0.0,0.0,0.0,0.0,0.0,0.0,0.0,0.0,0.0,0.0,0.0,0.0,0.0,0.0,0.0,0.0,0.0,0.0,0.0,0.0,-1.6103,-1.8004,-1.9511,0.0,0.0,0.0,0.0,0.0,0.0,0.0,0.0,0.0,0.0,-2.0615,-2.0615,-2.0635,-2.0957,-2.1181,-2.119,-2.1572,-2.1846,-2.1867,-2.1865,-2.1948,0.0,0.0,0.0,0.0,0.0,0.0,0.0,0.0,0.0,0.0,0.0,0.0,0.0,0.0,0.0,0.0,0.0,0.0,0.0,0.0,0.0,0.0,0.0,0.0,0.0,0.0,0.0,-0.9624,-0.9624,0.0,0.0,0.0,0.0,0.0,0.0,0.0,0.0,0.0,0.0,0.0,-1.1614,-1.1317,0.0,0.0,0.0,0.0,0.0,0.0,0.0,0.0,0.0,0.0,0.0,0.0,-1.5825,-1.5825,-1.5825,-1.5825,-1.5825,-1.5825,-1.5825,-1.5825,-1.5825,-1.5825,-1.5825,0.0,0.0,0.0,0.0,0.0,0.0,0.0,0.0,0.0,0.0,0.0,0.0,0.0,0.0,0.0,0.0,0.0,0.0,0.0,0.0,0.0,0.0,0.0,0.0,0.0,-1.545,0.0,0.0,0.0,0.0,0.0,0.0,0.0,0.0,0.0,0.0,0.0,-2.0713,-2.0977,-2.1006,-2.1123,-2.1447,-2.1572,-2.167,0.0,0.0,0.0,0.0,0.0,0.0,0.0,0.0,0.0,0.0,0.0,0.0,0.0,0.0,-2.1979,-2.1653,-2.1578,-2.1665,-2.1769,0.0,0.0,0.0,0.0,0.0,0.0,0.0,0.0,0.0,0.0,0.0,0.0,0.0,0.0,-0.9624,0.0,-0.9624,0.0,0.0,0.0,0.0,0.0,0.0,0.0,0.0,-0.992,-1.0551,-1.2145,-1.1853,-1.2635,0.0,-1.3944,-1.4136,0.0,0.0,0.0,0.0,0.0,0.0,0.0,0.0,-1.5825,-1.5825,-1.5825,-1.5825,-1.5825,-1.5825,-1.5825,-1.5825,-1.5825,-1.5825,-1.5825,-1.5825,-1.5698,0.0,0.0,0.0,0.0,0.0,0.0,0.0,0.0,0.0,0.0,0.0,0.0,0.0,0.0,0.0,0.0,0.0,0.0,0.0,0.0,0.0,0.0,0.0,-1.6064,0.0,0.0,0.0,0.0,0.0,0.0,0.0,0.0,0.0,-2.0791,-2.0801,-2.0957,-2.1406,-2.1455,-2.1562,-2.1846,0.0,0.0,0.0,0.0,0.0,0.0,0.0,-2.2691,-2.2734,-2.3089,-2.3406,-2.3503,-2.2985,-2.2633,-2.2898,0.0,0.0,-2.2123,-2.2099,-2.2138,-2.2245,-2.2283,-2.2706,-2.4133,-2.4419,-2.4853,0.0,0.0,0.0,0.0,0.0,0.0,0.0,0.0,-0.9624,-0.9624,0.0,-0.9624,0.0,0.0,0.0,0.0,0.0,-0.9624,0.0,0.0,-0.9727,-1.0256,-1.1414,-1.2339,-1.3318,-1.4388,-1.5255,-1.573,-1.573,-1.4771,0.0,0.0,0.0,0.0,0.0,0.0,-1.5825,-1.5825,-1.5825,-1.5825,-1.5825,-1.5825,-1.5825,-1.5825,-1.5825,-1.5825,-1.5825,-1.5825,-1.5825,-1.5818,-1.5565,0.0,0.0,0.0,0.0,0.0,0.0,0.0,0.0,0.0,0.0,0.0,0.0,0.0,0.0,0.0,0.0,0.0,0.0,0.0,0.0,-1.6221,0.0,0.0,0.0,0.0,0.0,0.0,0.0,0.0,0.0,0.0,-2.1249,-2.1229,-2.1416,-2.1846,0.0,0.0,0.0,0.0,-2.2529,-2.2529,-2.2828,-2.3081,-2.3081,-2.3081,-2.3091,-2.3091,0.0,0.0,-2.346,-2.265,-2.2257,-2.3062,-2.2729,-2.245,-2.3073,-2.3123,-2.3143,-2.3153,-2.3162,-2.3785,-2.5194,-2.5658,-2.618,-0.9864,0.0,0.0,0.0,0.0,-0.9624,-0.9624,-0.9624,-0.9624,-0.9624,-0.9624,-0.9624,0.0,0.0,0.0,0.0,0.0,0.0,-1.0404,-1.176,-1.1082,-1.2047,-1.4424,-1.404,-1.4382,-1.535,-1.4921,-1.5112,-1.5737,-1.4777,-1.4825,-1.5784,0.0,0.0,0.0,0.0,-1.5825,-1.5825,-1.5825,-1.5825,-1.5825,-1.5825,-1.5825,-1.5825,-1.5825,-1.5825,-1.5825,-1.5825,-1.5825,-1.5825,-1.5752,0.0,0.0,0.0,0.0,0.0,0.0,0.0,0.0,0.0,0.0,0.0,0.0,0.0,0.0,0.0,0.0,0.0,0.0,0.0,-1.6263,-1.7107,-1.7626,0.0,0.0,0.0,0.0,0.0,0.0,0.0,0.0,0.0,-2.2109,-2.1885,-2.1855,0.0,0.0,-2.2441,-2.2691,-2.2847,-2.2916,-2.2916,0.0,0.0,0.0,-2.3101,-2.3101,-2.3101,-2.3101,-2.3135,-2.3188,-2.2949,-2.2908,-2.3338,-2.3259,-2.3212,-2.3513,-2.3278,-2.3073,-2.3184,-2.3676,-2.457,-2.591,-2.6734,-2.7587,-1.0034,-0.9839,-0.9839,-0.9839,-0.9835,-0.9758,-0.973,-0.9726,-0.9657,-0.9624,-0.9624,-0.9624,-0.9624,-0.9624,-0.9624,0.0,0.0,0.0,-1.0256,-1.1473,-1.1272,-1.2193,-1.3932,-1.4196,-1.4627,-1.5159,-1.4968,-1.5207,-1.5825,-1.5207,-1.5207,-1.5784,0.0,0.0,-1.5825,-1.5825,-1.5825,-1.5825,-1.5825,-1.5825,-1.5825,-1.5825,-1.5825,-1.5825,-1.5825,-1.5825,-1.5825,-1.5825,-1.5825,-1.5825,-1.5825,-1.5698,0.0,0.0,0.0,0.0,0.0,0.0,0.0,0.0,0.0,0.0,0.0,-1.5389,0.0,0.0,0.0,0.0,-1.5389,-1.5631,-1.6139,-1.6992,0.0,0.0,0.0,0.0,0.0,0.0,0.0,-2.208,-2.2139,-2.2295,-2.2662,-2.2539,-2.248,-2.2682,-2.2721,-2.2808,-2.3062,0.0,-2.3101,-2.3101,-2.3101,-2.3101,-2.3101,-2.3101,-2.3101,-2.3101,-2.3101,-2.3101,-2.3101,-2.3101,-2.3222,-2.3537,-2.3624,-2.3721,-2.4024,-2.3789,-2.3515,-2.3598,-2.4339,-2.5279,-2.6094,-2.7221,-2.8324,-1.0302,-1.0298,-1.0286,-1.0257,-1.02,-0.9977,-0.9904,-0.9892,-0.9738,-0.9619,-0.9669,-0.9669,-0.9669,-0.9669,-0.9623,0.0,-0.9673,-0.9768,-0.9871,-0.9962,-1.103,-1.156,-1.1756,-1.3628,-1.4503,-1.4503,-1.5415,-1.5851,-1.5858,-1.5831,-1.5818,-1.5858,-1.5791,-1.5825,-1.5825,-1.5825,-1.5825,-1.5825,-1.5825,-1.5825,-1.5825,-1.5825,-1.5825,-1.5825,-1.5825,-1.5825,-1.5825,-1.5825,-1.5825,-1.5825,-1.5825,-1.5825,-1.5818,0.0,0.0,0.0,0.0,0.0,0.0,0.0,0.0,0.0,0.0,0.0,0.0,0.0,0.0,0.0,-1.5494,0.0,-1.558,-1.6389,0.0,0.0,0.0,-2.0131,-2.0587,-2.1415,-2.21,-2.2519,0.0,0.0,-2.3042,0.0,-2.3101,-2.3101,-2.3101,-2.3101,-2.3101,-2.3101,-2.3101,-2.3101,-2.3101,-2.3101,-2.3101,-2.3101,-2.3101,-2.3101,-2.3101,-2.3101,-2.3101,-2.3101,-2.3276,-2.3624,-2.3754,-2.3841,-2.4315,-2.4284,-2.4378,-2.4155,-2.501,-2.5797,-2.6036,-2.7308,-2.8505,-1.0972,-1.0956,-1.083,-1.0592,-1.0216,-1.0167,-1.0147,-1.0147,-1.0054,-1.0034,-1.003,-1.0086,-1.0086,-1.0034,-1.0086,-1.0086,-1.0086,-1.0946,-1.1754,-1.2572,-1.373,-1.4633,-1.5382,-1.5892,-1.6147,-1.6147,-1.6351,-1.6493,-1.6486,-1.6273,-1.6166,-1.6152,-1.5939,-1.5825,-1.5825,-1.5825,-1.5825,-1.5825,-1.5825,-1.5825,-1.5825,-1.5825,-1.5825,-1.5825,-1.5825,-1.5825,-1.5825,-1.5825,-1.5825,-1.5825,-1.5825,-1.5825,-1.5825,-1.5765,0.0,0.0,0.0,0.0,0.0,0.0,0.0,0.0,0.0,-1.5389,-1.5389,0.0,-1.5389,0.0,-1.6217,-1.6884,-1.7149,-1.7937,0.0,0.0,-1.9625,-2.0512,-2.0983,-2.1835,-2.2519,-2.2896,-2.2945,-2.2984,-2.3091,-2.3101,-2.3101,-2.3101,-2.3101,-2.3101,-2.3101,-2.3101,-2.3101,-2.3101,-2.3101,-2.3101,-2.3101,-2.3101,-2.3101,-2.3101,-2.3101,-2.3101,-2.3101,-2.3101,-2.3135,-2.3266,-2.3276,-2.3319,-2.344,-2.3711,-2.3927,-2.397,-2.4914,-2.6027,-2.6648,-2.7718,-2.8712,-1.122,-1.1212,-1.1122,-1.0907,-1.0615,-1.0383,-1.0286,-1.0274,-1.0249,-1.0212,-1.0212,-1.0212,-1.0212,-1.0212,-1.0212,-1.0212,-1.0268,-1.0884,-1.1751,-1.2782,-1.3857,-1.4722,-1.5374,-1.6249,-1.645,-1.6048,-1.65,-1.6707,-1.6693,-1.654,-1.6466,-1.6466,-1.6299,-1.6219,-1.6206,-1.5959,-1.5851,-1.6025,-1.5851,-1.5825,-1.5825,-1.5825,-1.5825,-1.5825,-1.5825,-1.5825,-1.5825,-1.5825,-1.5825,-1.5825,-1.5825,-1.5825,-1.5825,-1.5927,-1.6028,0.0,0.0,0.0,0.0,0.0,0.0,0.0,0.0,0.0,0.0,0.0,-1.5848,-1.5848,-1.6838,-1.7533,-1.7723,-1.8913,-1.9795,-2.0039,-2.0802,-2.1523,-2.1981,-2.2472,-2.2847,-2.3062,-2.3101,-2.3101,-2.3101,-2.3101,-2.3101,-2.3101,-2.3101,-2.3101,-2.3101,-2.3101,-2.3101,-2.3101,-2.3101,-2.3101,-2.3101,-2.3101,-2.3101,-2.3101,-2.3101,-2.3101,-2.3101,-2.3101,-2.3135,-2.3232,-2.3276,-2.3319,-2.3396,-2.3711,-2.398,-2.4067,-2.4647,-2.5348,-2.5852,-2.7313,-2.8633,-1.1235,-1.1293,-1.1269,-1.1261,-1.122,-1.0686,-1.0484,-1.0471,-1.0367,-1.0339,-1.0318,-1.0318,-1.0302,-1.0282,-1.0286,-1.0282,-1.0286,-1.0435,-1.1002,-1.1983,-1.3013,-1.3632,-1.3986,-1.558,-1.6049,-1.5548,-1.6258,-1.6656,-1.682,-1.678,-1.676,-1.676,-1.6727,-1.6727,-1.6734,-1.6213,-1.6072,-1.6368,-1.6079,-1.5878,-1.5885,-1.5885,-1.5824,-1.5832,-1.5825,-1.5825,-1.5825,-1.5825,-1.5825,-1.5825,-1.5825,-1.5825,-1.5825,-1.6028,-1.617,0.0,-1.6697,0.0,0.0,0.0,0.0,0.0,0.0,0.0,0.0,-1.6411,-1.6433,-1.647,-1.7205,-1.7695,-1.7735,-1.9213,-2.0393,-2.0857,-2.1667,-2.238,-2.2824,-2.3003,-2.3101,-2.3101,-2.3101,-2.3101,-2.3101,-2.3101,-2.3101,-2.3101,-2.3101,-2.3101,-2.3101,-2.3101,-2.3101,-2.3101,-2.3101,-2.3101,-2.3101,-2.3101,-2.3101,-2.3101,-2.3101,-2.3101,-2.3101,-2.3101,-2.3178,-2.3373,-2.3416,-2.3503,-2.3667,-2.3894,-2.412,-2.411,-2.4325,-2.4572,-2.4988,-2.6618,-2.7971,-1.1671,-1.1658,-1.1508,-1.1443,-1.1427,-1.1179,-1.1074,-1.1074,-1.1033,-1.0944,-1.0873,-1.0873,-1.0733,-1.0595,-1.059,-1.0595,-1.0645,-1.1553,-1.2089,-1.2353,-1.3469,-1.4481,-1.5394,-1.4853,-1.5493,-1.7043,-1.6407,-1.6506,-1.7415,-1.7226,-1.7119,-1.7112,-1.6827,-1.6827,-1.7085,0.0,0.0,0.0,-1.6567,-1.6426,-1.6199,-1.6192,-1.6072,-1.5838,-1.5825,0.0,-1.5825,-1.5825,-1.5825,-1.5825,-1.5825,0.0,0.0,0.0,0.0,0.0,0.0,0.0,0.0,0.0,0.0,0.0,-1.715,-1.693,-1.647,-1.6411,-1.6521,-1.6778,-1.6981,-1.7175,-1.739,-1.7689,-1.8301,-1.9178,-2.0129,-2.098,-2.1872,-2.2643,-2.3101,-2.3101,-2.3101,-2.3101,-2.3101,-2.3101,-2.3101,-2.3101,-2.3101,-2.3101,-2.3101,-2.3101,-2.3101,-2.3101,-2.3101,-2.3101,-2.3101,-2.3101,-2.3101,-2.3101,-2.3101,-2.3101,-2.3101,-2.3101,-2.3101,-2.3188,-2.3188,-2.3178,-2.3266,-2.346,-2.3721,-2.3851,-2.411,-2.4529,-2.5379,-2.6494,-2.7516,-1.1837,0.0,-1.1675,-1.1638,0.0,-1.1537,-1.1496,-1.148,-1.1301,-1.1175,-1.1094,-1.1094,-1.1041,-1.0956,-1.0952,-1.0952,-1.0956,-1.1561,-1.2062,-1.2573,-1.3173,-1.3979,-1.4995,-1.4995,-1.5589,-1.6723,-1.6776,-1.7047,-1.7575,-1.7435,-1.7414,-1.7407,-1.7215,-1.7215,-1.7407,-1.7215,-1.7001,-1.6707,-1.6707,-1.664,-1.6493,-1.6346,-1.6199,-1.6052,0.0,0.0,0.0,0.0,0.0,0.0,0.0,0.0,0.0,0.0,0.0,-1.6407,-1.6534,-1.677,-1.7106,-1.7153,-1.72,-1.7286,-1.7286,-1.7147,-1.6865,-1.6843,-1.6908,-1.7116,-1.7537,-1.8102,-1.8664,-1.9147,-1.9869,-2.0827,-2.1373,-2.1863,-2.2325,-2.2828,-2.3091,-2.3101,-2.3101,-2.3101,-2.3101,-2.3101,-2.3101,-2.3101,-2.3101,-2.3101,-2.3101,-2.3101,-2.3101,-2.3101,-2.3101,-2.3101,-2.3101,-2.3101,-2.3101,-2.3101,-2.3101,-2.3101,-2.3101,-2.3101,-2.3101,-2.3091,-2.3188,-2.3319,-2.3319,-2.359,-2.3894,-2.398,-2.4196,-2.4647,-2.5621,-2.6483,-2.7221,-1.1805,-1.1837,-1.1837,-1.1837,-1.1837,-1.1837,-1.1837,-1.1756,0.0,0.0,0.0,-1.1269,-1.1252,-1.1224,-1.122,-1.122,-1.122,-1.122,-1.1657,-1.2403,-1.2455,-1.2969,-1.3935,-1.465,-1.5231,-1.566,-1.6583,-1.71,-1.7312,-1.7477,-1.7589,-1.7589,-1.7589,-1.7589,-1.7589,-1.7589,-1.7348,-1.6887,-1.6854,-1.6834,-1.678,-1.6596,-1.6429,-1.6328,-1.6039,-1.5885,-1.5825,-1.5825,-1.5825,-1.5825,-1.5825,-1.5825,-1.5825,-1.6028,-1.617,-1.6272,-1.6447,-1.673,-1.7026,-1.7073,-1.7113,-1.7286,-1.7286,-1.7286,-1.7286,-1.7286,-1.7286,-1.7286,-1.8056,-1.8826,-1.965,-2.0376,-2.1239,-2.2006,-2.2227,-2.2369,-2.2555,-2.2775,-2.2862,-2.3047,-2.3101,-2.3101,-2.3101,-2.3101,-2.3101,-2.3101,-2.3101,-2.3101,-2.3101,-2.3101,-2.3101,-2.3101,-2.3101,-2.3101,-2.3101,-2.3101,-2.3101,-2.3101,-2.3101,-2.3101,-2.3101,-2.3101,-2.3101,-2.3101,-2.3285,-2.3373,-2.346,-2.3721,-2.4067,-2.412,-2.4282,-2.4668,-2.5421,-2.637,-2.7151,-1.1906,-1.1837,-1.1837,-1.1837,-1.1837,-1.1837,-1.1837,-1.1768,-1.1719,-1.1606,-1.1464,-1.1459,-1.1374,-1.122,-1.122,-1.122,-1.122,-1.122,-1.1265,0.0,-1.1413,-1.2016,-1.305,-1.2165,-1.2691,-1.4488,-1.4618,-1.5102,-1.618,-1.7147,-1.7589,-1.7589,-1.7589,-1.7589,-1.7589,-1.7589,-1.7542,-1.7455,-1.7462,-1.7335,-1.7146,-1.7099,-1.6831,-1.6355,-1.6288,-1.6086,-1.5791,-1.5832,-1.5825,-1.5825,-1.5825,-1.5825,-1.5825,-1.5832,-1.6069,-1.6494,-1.6588,-1.6817,-1.7232,-1.7239,-1.7286,-1.7286,-1.7286,-1.7286,-1.7286,-1.7286,-1.7286,-1.7279,-1.7473,-1.7552,-1.7692,-1.7963,-1.8241,-1.8373,-1.8972,-1.9741,-2.0638,-2.1463,-2.228,-2.3003,-2.3101,-2.3101,-2.3101,-2.3101,-2.311,-2.311,-2.3218,-2.314,-2.3179,-2.3101,-2.3101,-2.3101,-2.3101,-2.3101,-2.3101,-2.3101,-2.3101,-2.3101,-2.3101,-2.3101,-2.3101,-2.3101,-2.3101,-2.3101,-2.3188,-2.3178,-2.3232,-2.3406,-2.3677,-2.3884,-2.411,-2.4411,-2.4818,-2.6038,-2.7313,-1.1983,-1.1906,-1.1817,-1.1837,-1.1837,-1.1837,-1.1837,-1.1837,-1.1837,-1.1732,-1.1654,-1.1646,-1.1606,-1.1524,-1.1524,-1.152,-1.1524,-1.1524,-1.1468,-1.1378,-1.137,-1.1603,-1.2016,-1.2047,-1.2617,-1.3668,-1.4719,-1.5478,-1.6066,-1.7066,-1.7589,-1.7589,-1.7589,-1.7589,-1.7589,-1.7589,-1.7589,-1.7589,-1.7589,-1.7522,-1.7388,-1.7286,-1.7072,-1.6797,-1.6593,-1.6366,-1.6079,-1.6072,-1.5999,-1.5791,-1.5825,-1.5825,-1.5825,-1.5825,-1.5927,-1.6163,-1.6305,-1.6541,-1.6911,-1.7138,-1.7286,-1.7286,-1.7286,-1.7286,-1.7286,-1.7286,-1.7286,-1.7286,-1.7286,-1.7512,-1.8056,-1.811,-1.8288,-1.8826,-1.9285,-1.9968,-2.0827,-2.1373,-2.2059,-2.2916,-2.3101,-2.3101,-2.3101,-2.3101,-2.3208,-2.3393,-2.3617,-2.3773,-2.3764,-2.3773,-2.3608,-2.3198,-2.3101,-2.3101,-2.311,-2.3101,-2.3101,-2.3101,-2.3101,-2.3101,-2.3101,-2.3101,-2.3101,-2.3135,-2.3232,-2.3319,-2.3319,-2.3493,-2.3754,-2.398,-2.412,-2.4411,-2.5147,-2.6246,-2.7516,-1.2125,-1.2077,-1.1906,-1.1813,-1.1837,-1.1837,-1.1837,-1.1837,-1.1837,-1.1837,-1.1837,-1.1837,-1.1837,-1.1837,-1.1837,-1.1837,-1.1837,-1.1837,-1.1699,-1.1573,-1.1565,-1.1484,-1.1408,-1.2281,-1.2653,-1.2855,-1.4519,-1.5409,-1.5545,-1.6624,-1.7377,-1.7595,-1.7589,-1.7589,-1.7589,-1.7589,-1.7589,-1.7589,-1.7589,-1.7589,-1.7575,-1.7414,-1.7266,-1.7186,-1.6927,-1.6667,-1.6393,-1.6355,-1.6166,-1.5945,-1.5818,-1.5825,-1.5825,-1.5825,-1.5832,-1.5886,-1.6076,-1.6312,-1.6581,-1.7005,-1.7239,-1.7239,-1.7279,-1.7286,-1.7286,-1.7352,-1.7399,-1.7293,-1.7286,-1.7598,-1.8195,-1.838,-1.8773,-1.9566,-1.9683,-1.9979,-2.1037,-2.1463,-2.2006,-2.2831,-2.3241,-2.3403,-2.3383,-2.3383,-2.3539,-2.3906,-2.4219,-2.4404,-2.4424,-2.4424,-2.4102,-2.3672,-2.3383,-2.3432,-2.3383,-2.3413,-2.3383,-2.3286,-2.3257,-2.3218,-2.3159,-2.3101,-2.3101,-2.3135,-2.3222,-2.3363,-2.3416,-2.358,-2.3754,-2.3937,-2.4077,-2.4519,-2.5537,-2.6326,-2.747,-1.2422,-1.2264,-1.2081,-1.1914,-1.1788,-1.1837,-1.1837,-1.1837,-1.1837,-1.1837,-1.1837,-1.1837,-1.1837,-1.1837,-1.1837,-1.1837,-1.1837,-1.1837,-1.176,-1.1804,-1.1752,-1.174,-1.1691,-1.1667,-1.1648,-1.18,-1.2882,-1.3458,-1.3618,-1.5353,-1.6702,-1.7503,-1.7589,-1.7589,-1.7589,-1.7589,-1.7589,-1.7589,-1.7589,-1.7589,-1.7589,-1.7562,-1.7467,-1.7206,-1.7179,-1.7018,-1.6673,-1.6462,-1.6259,-1.6219,-1.5985,-1.5832,-1.5832,-1.5832,-1.5933,-1.613,-1.6177,-1.6312,-1.6595,-1.6878,-1.7041,-1.7019,-1.7229,-1.7323,-1.733,-1.7611,-1.764,-1.7395,-1.7308,-1.7424,-1.7426,-1.7542,-1.7769,-1.8213,-1.8188,-1.854,-1.987,-2.0839,-2.1789,-2.273,-2.3537,-2.4251,-2.4153,-2.4219,-2.4287,-2.4336,-2.4492,-2.458,-2.457,-2.456,-2.4541,-2.4355,-2.4297,-2.4222,-2.4192,-2.4287,-2.4072,-2.3799,-2.373,-2.3613,-2.3354,-2.3208,-2.312,-2.3344,-2.3193,-2.3257,-2.3281,-2.3319,-2.3547,-2.3787,-2.4082,-2.4592,-2.5528,-2.619,-2.7071,-1.2523,-1.2442,-1.2268,-1.2093,-1.1926,-1.1821,-1.1837,-1.1837,-1.1837,-1.1837,-1.1837,-1.1837,-1.1837,-1.1837,-1.1837,-1.1837,-1.1837,-1.1837,-1.1837,-1.1837,-1.1837,-1.1837,-1.1824,-1.1703,-1.1663,-1.1766,-1.2633,-1.3105,-1.3529,-1.5333,-1.6527,-1.6781,-1.7414,-1.7769,-1.7602,-1.7589,-1.7589,-1.7589,-1.7589,-1.7589,-1.7589,-1.7589,-1.7528,-1.7474,-1.746,-1.732,-1.7052,-1.6898,-1.6707,-1.654,-1.6413,-1.6273,-1.6099,-1.6092,-1.6067,-1.6001,-1.6123,-1.6395,-1.6793,-1.706,-1.7337,-1.7516,-1.7766,-1.7904,-1.7911,-1.8028,-1.8035,-1.7933,-1.7904,-1.7904,-1.7896,-1.7896,-1.7955,-1.8079,-1.8101,-1.8544,-1.9675,-2.0184,-2.1035,-2.251,-2.3177,-2.3765,-2.4268,-2.4639,-2.4775,-2.4844,-2.5,-2.5099,-2.5138,-2.5148,-2.5148,-2.5157,-2.5157,-2.4951,-2.459,-2.4424,-2.4336,-2.4219,-2.416,-2.4043,-2.3935,-2.3842,-2.3861,-2.3822,-2.3662,-2.3535,-2.3545,-2.3345,-2.3368,-2.3751,-2.4515,-2.5115,-2.5581,-2.5893,-2.6595,-1.2637,-1.2609,-1.245,-1.2243,-1.1962,-1.1898,-1.1817,-1.1841,-1.1837,-1.1837,-1.1837,-1.1837,-1.1837,-1.1837,-1.1837,-1.1837,-1.1837,-1.1837,-1.1837,-1.1837,-1.1837,-1.1837,-1.1837,-1.1837,-1.1837,-1.1933,-1.2464,-1.2944,-1.3407,-1.5161,-1.6186,-1.6404,-1.7418,-1.7882,-1.7722,-1.7635,-1.7589,-1.7589,-1.7589,-1.7589,-1.7589,-1.7589,-1.7589,-1.7589,-1.7589,-1.7534,-1.7333,-1.7246,-1.7105,-1.684,-1.6747,-1.6613,-1.6413,-1.6442,-1.6299,-1.6099,-1.6223,-1.656,-1.7016,-1.7274,-1.7569,-1.7881,-1.8165,-1.8299,-1.8313,-1.8386,-1.843,-1.843,-1.8511,-1.8525,-1.8313,-1.8299,-1.8335,-1.8416,-1.8438,-1.88,-1.9552,-1.9842,-2.0835,-2.2403,-2.3099,-2.3559,-2.4533,-2.5059,-2.5254,-2.5283,-2.5469,-2.5684,-2.5684,-2.5654,-2.5654,-2.5684,-2.5674,-2.543,-2.4855,-2.4844,-2.4756,-2.46,-2.459,-2.4551,-2.4463,-2.4414,-2.4404,-2.4141,-2.4043,-2.3984,-2.3965,-2.3701,-2.3589,-2.4202,-2.4902,-2.5452,-2.5501,-2.5811,-2.6323,-1.2762,-1.273,-1.2625,-1.2353,-1.197,-1.2016,-1.1922,-1.1792,-1.1837,-1.1837,-1.1837,-1.1837,-1.1837,-1.1837,-1.1837,-1.1837,-1.1837,-1.1837,-1.1837,-1.1837,-1.1837,-1.1837,-1.1837,-1.1837,-1.1837,-1.1837,-1.1933,-1.2371,-1.3201,-1.4571,-1.5652,-1.654,-1.7553,-1.8002,-1.7916,-1.7742,-1.7589,-1.7589,-1.7589,-1.7589,-1.7589,-1.7589,-1.7589,-1.7589,-1.7589,-1.7575,-1.7574,-1.7347,-1.7192,-1.7186,-1.6887,-1.672,-1.6693,-1.668,-1.6653,-1.664,-1.664,-1.681,-1.7086,-1.7392,-1.7669,-1.7896,-1.8237,-1.8328,-1.8416,-1.8621,-1.8767,-1.8774,-1.9001,-1.8942,-1.8474,-1.8423,-1.8496,-1.873,-1.8774,-1.8942,-1.9324,-2.0079,-2.1221,-2.2331,-2.3282,-2.4207,-2.5353,-2.5684,-2.5654,-2.5654,-2.5664,-2.5684,-2.5684,-2.5684,-2.5684,-2.5684,-2.5684,-2.5654,-2.5615,-2.5421,-2.5332,-2.5185,-2.501,-2.4932,-2.4629,-2.4424,-2.4463,-2.4473,-2.4434,-2.4414,-2.4394,-2.4365,-2.4408,-2.4756,-2.5111,-2.5452,-2.5742,-2.6198,-2.6614,-1.277,-1.2754,-1.2641,-1.2551,-1.2349,-1.213,-1.193,-1.1931,-1.1821,-1.1837,-1.1837,-1.1837,-1.1837,-1.1837,-1.1837,-1.1837,-1.1837,-1.1837,-1.1837,-1.1837,-1.1837,-1.1837,-1.1837,-1.1837,-1.1837,-1.1837,-1.1837,-1.1981,-1.2516,-1.4385,-1.5496,-1.5978,-1.7635,-1.8382,-1.8042,-1.7889,-1.7789,-1.7609,-1.7589,-1.7589,-1.7589,-1.7589,-1.7589,-1.7589,-1.7589,-1.7589,-1.7589,-1.7527,-1.7481,-1.7428,-1.7321,-1.7233,-1.6994,-1.6807,-1.6814,-1.6914,-1.6807,-1.6995,-1.7569,-1.7756,-1.805,-1.8511,-1.8774,-1.8906,-1.8942,-1.903,-1.9096,-1.9125,-1.9184,-1.9125,-1.9016,-1.8921,-1.8964,-1.9067,-1.9103,-1.9133,-1.9287,-1.968,-2.0285,-2.1438,-2.2944,-2.4245,-2.4707,-2.5274,-2.5684,-2.5684,-2.5684,-2.5684,-2.5684,-2.5684,-2.5684,-2.5684,-2.5684,-2.5684,-2.5684,-2.5674,-2.5606,-2.5576,-2.5469,-2.5439,-2.5244,-2.5156,-2.5195,-2.5098,-2.501,-2.4844,-2.4834,-2.4834,-2.4938,-2.5004,-2.5354,-2.5765,-2.6118,-2.6535,-2.6816,-1.277,-1.275,-1.2702,-1.2617,-1.26,-1.2308,-1.2134,-1.2028,-1.1906,-1.1825,-1.1784,-1.1837,-1.1837,-1.1837,-1.1837,-1.1837,-1.1837,-1.1837,-1.1837,-1.1837,-1.1837,-1.1837,-1.1837,-1.1837,-1.1837,-1.1837,-1.1837,-1.1837,-1.2014,-1.3909,-1.4834,-1.4812,-1.7117,-1.8099,-1.7737,-1.7871,-1.7876,-1.7749,-1.7635,-1.7589,-1.7589,-1.7589,-1.7589,-1.7589,-1.7589,-1.7589,-1.7589,-1.7589,-1.7589,-1.7589,-1.7589,-1.7488,-1.734,-1.7101,-1.7096,-1.7204,-1.7096,-1.7279,-1.7874,-1.807,-1.8316,-1.8729,-1.9063,-1.9272,-1.9227,-1.922,-1.9272,-1.9272,-1.9272,-1.9272,-1.9272,-1.9264,-1.9272,-1.9272,-1.9272,-1.9272,-1.9272,-1.9272,-1.9828,-2.0936,-2.2442,-2.3543,-2.4097,-2.4756,-2.5274,-2.5645,-2.5684,-2.5684,-2.5684,-2.5684,-2.5684,-2.5684,-2.5684,-2.5684,-2.5684,-2.5684,-2.5684,-2.5625,-2.5596,-2.5654,-2.5684,-2.5684,-2.5664,-2.5674,-2.5557,-2.5371,-2.5273,-2.5273,-2.5283,-2.5331,-2.5648,-2.6034,-2.6451,-2.6819,-2.6999,-1.277,-1.2766,-1.2766,-1.2726,-1.2592,-1.2536,-1.2349,-1.2097,-1.2028,-1.1931,-1.1817,-1.1784,-1.1837,-1.1837,-1.1837,-1.1837,-1.1837,-1.1837,-1.1837,-1.1837,-1.1837,-1.1837,-1.1837,-1.1837,-1.1837,-1.1837,-1.1837,-1.1837,-1.1897,-1.3195,-1.383,-1.4153,-1.5973,-1.7005,-1.6969,-1.7536,-1.792,-1.7801,-1.7643,-1.7609,-1.7589,-1.7589,-1.7589,-1.7589,-1.7589,-1.7589,-1.7589,-1.7589,-1.7589,-1.7589,-1.7589,-1.7589,-1.7555,-1.7515,-1.7601,-1.7561,-1.7588,-1.772,-1.7989,-1.8237,-1.8328,-1.8534,-1.8952,-1.9123,-1.8966,-1.9123,-1.9227,-1.9227,-1.9272,-1.9272,-1.9272,-1.9272,-1.9272,-1.9272,-1.9272,-1.9272,-1.9272,-1.9279,-1.968,-2.068,-2.1777,-2.2894,-2.3741,-2.4196,-2.4658,-2.543,-2.5684,-2.5684,-2.5684,-2.5684,-2.5684,-2.5684,-2.5684,-2.5684,-2.5684,-2.5684,-2.5684,-2.5674,-2.5664,-2.5684,-2.5684,-2.5684,-2.5684,-2.5645,-2.5645,-2.5527,-2.5518,-2.5527,-2.5557,-2.5644,-2.6004,-2.6255,-2.6496,-2.6784,-2.7034,-1.277,-1.277,-1.277,-1.2808,-1.2735,-1.2617,-1.2491,-1.2369,-1.2146,-1.1996,-1.1935,-1.1829,-1.1837,-1.1837,-1.1837,-1.1837,-1.1837,-1.1837,-1.1837,-1.1837,-1.1837,-1.1837,-1.1837,-1.1837,-1.1837,-1.1837,-1.1837,-1.1837,-1.2014,-1.3075,-1.3729,-1.4004,-1.5258,-1.5895,-1.5803,-1.6717,-1.7173,-1.6794,-1.7512,-1.7809,-1.7615,-1.7589,-1.7589,-1.7589,-1.7589,-1.7589,-1.7589,-1.7589,-1.7589,-1.7589,-1.7589,-1.7589,-1.7589,-1.7589,-1.7694,-1.7799,-1.7687,-1.7799,-1.8167,-1.8167,-1.822,-1.837,-1.8586,-1.8639,-1.8593,-1.8862,-1.9026,-1.9078,-1.9175,-1.9272,-1.9272,-1.9272,-1.9272,-1.9272,-1.9272,-1.9272,-1.9272,-1.9272,-1.9428,-1.9835,-2.0739,-2.1785,-2.2835,-2.3443,-2.4353,-2.5382,-2.5635,-2.5635,-2.5684,-2.5684,-2.5684,-2.5684,-2.5684,-2.5684,-2.5684,-2.5684,-2.5684,-2.5684,-2.5684,-2.5684,-2.5684,-2.5684,-2.5684,-2.5684,-2.5684,-2.5684,-2.5684,-2.5684,-2.5684,-2.5781,-2.5917,-2.6159,-2.6448,-2.6688,-2.6928,-1.277,-1.277,-1.277,-1.277,-1.2758,-1.271,-1.2686,-1.2532,-1.2259,-1.2097,-1.2008,-1.1853,-1.1837,-1.1837,-1.1837,-1.1837,-1.1837,-1.1837,-1.1837,-1.1837,-1.1837,-1.1837,-1.1837,-1.1837,-1.1837,-1.1837,-1.1837,-1.1837,-1.1837,-1.2543,-1.296,-1.32,-1.4262,-1.479,-1.4758,-1.6172,-1.6806,-1.6635,-1.7483,-1.7949,-1.7776,-1.7642,-1.7589,-1.7589,-1.7589,-1.7589,-1.7589,-1.7589,-1.7589,-1.7589,-1.7589,-1.7589,-1.7589,-1.7582,-1.7687,-1.7799,-1.774,-1.774,-1.8055,-1.8016,-1.8016,-1.8115,-1.8265,-1.8318,-1.8325,-1.8541,-1.8757,-1.8928,-1.9026,-1.9182,-1.9279,-1.9272,-1.9272,-1.9272,-1.9272,-1.9272,-1.9272,-1.9272,-1.9272,-1.948,-1.9931,-2.079,-2.1735,-2.2383,-2.3543,-2.4667,-2.5118,-2.5372,-2.5528,-2.5684,-2.5684,-2.5684,-2.5684,-2.5684,-2.5684,-2.5684,-2.5684,-2.5684,-2.5684,-2.5684,-2.5684,-2.5684,-2.5684,-2.5684,-2.5684,-2.5684,-2.5684,-2.5684,-2.5684,-2.5771,-2.5868,-2.6014,-2.6255,-2.6496,-2.6736,-1.277,-1.277,-1.277,-1.277,-1.277,-1.2754,-1.2735,-1.2576,-1.2369,-1.2203,-1.2044,-1.1861,-1.1837,-1.1837,-1.1837,-1.1837,-1.1837,-1.1837,-1.1837,-1.1837,-1.1837,-1.1837,-1.1837,-1.1837,-1.1837,-1.1837,-1.1837,-1.1837,-1.1837,-1.1953,-1.1837,-1.2134,-1.308,-1.361,-1.3906,-1.5682,-1.6615,-1.6708,-1.7448,-1.7805,-1.7895,-1.7736,-1.7589,-1.7589,-1.7589,-1.7589,-1.7589,-1.7589,-1.7589,-1.7589,-1.7589,-1.7589,-1.7589,-1.7589,-1.7589,-1.7635,-1.7589,-1.7641,-1.7694,-1.7852,-1.7852,-1.774,-1.8003,-1.8272,-1.8062,-1.822,-1.8489,-1.8712,-1.8817,-1.8974,-1.9123,-1.922,-1.922,-1.9272,-1.9272,-1.9272,-1.9272,-1.9272,-1.9272,-1.9272,-1.9376,-1.9724,-2.0877,-2.1132,-2.2139,-2.3443,-2.4137,-2.4698,-2.5177,-2.543,-2.5635,-2.5684,-2.5684,-2.5684,-2.5684,-2.5684,-2.5684,-2.5684,-2.5684,-2.5684,-2.5684,-2.5684,-2.5684,-2.5684,-2.5684,-2.5684,-2.5684,-2.5684,-2.5684,-2.5732,-2.5771,-2.5868,-2.6062,-2.6448,-2.6688,-1.277,-1.277,-1.277,-1.277,-1.277,-1.277,-1.2812,-1.2726,-1.2434,-1.2276,-1.217,-1.191,-1.1837,-1.1837,-1.1837,-1.1837,-1.1837,-1.1837,-1.1837,-1.1837,-1.1837,-1.1837,-1.1837,-1.1837,-1.1837,-1.1837,-1.1837,-1.1837,-1.1837,-1.1837,-1.1837,-1.1837,-1.2191,-1.2367,-1.259,-1.3901,-1.4902,-1.5665,-1.6517,-1.7353,-1.7867,-1.7742,-1.7589,-1.7589,-1.7589,-1.7589,-1.7589,-1.7589,-1.7589,-1.7589,-1.7589,-1.7589,-1.7589,-1.7589,-1.7589,-1.7589,-1.7589,-1.7589,-1.7635,-1.7694,-1.7687,-1.7635,-1.774,-1.7799,-1.774,-1.7957,-1.8122,-1.8279,-1.8384,-1.8534,-1.8639,-1.8862,-1.9071,-1.9279,-1.9272,-1.9272,-1.9272,-1.9272,-1.9272,-1.9272,-1.9272,-1.9835,-2.0483,-2.0885,-2.1328,-2.2634,-2.3434,-2.4137,-2.4658,-2.5226,-2.5421,-2.5635,-2.5684,-2.5684,-2.5684,-2.5684,-2.5684,-2.5684,-2.5684,-2.5684,-2.5684,-2.5684,-2.5684,-2.5684,-2.5684,-2.5684,-2.5684,-2.5684,-2.5684,-2.5684,-2.5732,-2.582,-2.6159,-2.6544,-2.6784,-1.277,-1.277,-1.277,-1.277,-1.277,-1.277,-1.277,-1.2702,-1.2467,-1.2304,-1.2227,-1.1935,-1.1837,-1.1837,-1.1837,-1.1837,-1.1837,-1.1837,-1.1837,-1.1837,-1.1837,-1.1837,-1.1837,-1.1837,-1.1837,-1.1837,-1.1837,-1.1837,-1.1837,-1.1837,-1.1837,-1.1837,-1.1837,-1.1837,-1.1953,-1.3015,-1.3906,-1.4679,-1.5847,-1.6913,-1.7376,-1.7582,-1.7609,-1.7589,-1.7589,-1.7589,-1.7589,-1.7589,-1.7589,-1.7589,-1.7589,-1.7589,-1.7589,-1.7589,-1.7589,-1.7589,-1.7589,-1.7589,-1.7589,-1.7589,-1.7589,-1.7589,-1.7589,-1.7589,-1.7635,-1.774,-1.7852,-1.8016,-1.8167,-1.8272,-1.8422,-1.8705,-1.8974,-1.9123,-1.9227,-1.9272,-1.9272,-1.9272,-1.9272,-1.9272,-1.9324,-1.948,-2.0181,-2.0233,-2.0783,-2.1582,-2.2181,-2.3085,-2.3998,-2.4658,-2.5216,-2.5421,-2.5635,-2.5684,-2.5684,-2.5684,-2.5684,-2.5684,-2.5684,-2.5684,-2.5684,-2.5684,-2.5684,-2.5684,-2.5684,-2.5684,-2.5684,-2.5684,-2.5684,-2.5684,-2.5684,-2.582,-2.6159,-2.6448,-2.6688,-1.277,-1.277,-1.277,-1.277,-1.277,-1.277,-1.277,-1.2706,-1.2458,-1.2304,-1.2231,-1.1931,-1.1841,-1.1837,-1.1837,-1.1837,-1.1837,-1.1837,-1.1837,-1.1837,-1.1837,-1.1837,-1.1837,-1.1837,-1.1837,-1.1837,-1.1837,-1.1837,-1.1837,-1.1837,-1.1837,-1.1837,-1.1837,-1.1837,-1.1953,-1.2904,-1.349,-1.3985,-1.5074,-1.6154,-1.6636,-1.7076,-1.7272,-1.7589,-1.7589,-1.7589,-1.7589,-1.7589,-1.7589,-1.7589,-1.7589,-1.7589,-1.7589,-1.7589,-1.7589,-1.7589,-1.7589,-1.7589,-1.7589,-1.7589,-1.7589,-1.7589,-1.7589,-1.7589,-1.7635,-1.7635,-1.774,-1.7911,-1.7971,-1.8069,-1.8325,-1.86,-1.8764,-1.8862,-1.9071,-1.9168,-1.9279,-1.9279,-1.9272,-1.9272,-1.9272,-1.9272,-1.9272,-1.9376,-1.968,-2.0585,-2.1183,-2.2038,-2.3035,-2.389,-2.4609,-2.5167,-2.5421,-2.5684,-2.5684,-2.5684,-2.5684,-2.5684,-2.5684,-2.5684,-2.5684,-2.5684,-2.5684,-2.5684,-2.5684,-2.5684,-2.5684,-2.5684,-2.5684,-2.5684,-2.5684,-2.5868,-2.6052,-2.6255,-2.6496,-1.277,-1.277,-1.277,-1.277,-1.277,-1.277,-1.277,-1.2738,-1.2462,-1.2304,-1.2227,-1.1935,-1.1845,-1.1837,-1.1837,-1.1837,-1.1837,-1.1837,-1.1837,-1.1837,-1.1837,-1.1837,-1.1837,-1.1837,-1.1837,-1.1837,-1.1837,-1.1837,-1.1837,-1.1837,-1.1837,-1.1837,-1.1837,-1.1837,-1.1897,-1.2134,-1.2784,-1.3539,-1.3886,-1.492,-1.6227,-1.6422,-1.677,-1.7477,-1.7589,-1.7589,-1.7589,-1.7589,-1.7589,-1.7589,-1.7589,-1.7589,-1.7589,-1.7589,-1.7589,-1.7589,-1.7589,-1.7589,-1.7589,-1.7589,-1.7589,-1.7589,-1.7589,-1.7589,-1.7589,-1.7589,-1.7641,-1.7694,-1.7687,-1.7852,-1.8069,-1.8181,-1.8338,-1.8489,-1.8586,-1.8743,-1.8974,-1.9175,-1.9279,-1.9272,-1.9272,-1.9272,-1.9272,-1.9272,-1.9532,-1.9783,-2.0285,-2.103,-2.1988,-2.3085,-2.3741,-2.4353,-2.5069,-2.5274,-2.5372,-2.5479,-2.5684,-2.5684,-2.5684,-2.5684,-2.5684,-2.5684,-2.5684,-2.5684,-2.5684,-2.5684,-2.5684,-2.5684,-2.5684,-2.5684,-2.5732,-2.5868,-2.6014,-2.6159,-2.6352,-1.277,-1.277,-1.277,-1.277,-1.277,-1.277,-1.277,-1.2702,-1.2462,-1.2304,-1.2231,-1.1931,-1.1841,-1.1837,-1.1837,-1.1837,-1.1837,-1.1837,-1.1837,-1.1837,-1.1837,-1.1837,-1.1837,-1.1837,-1.1837,-1.1837,-1.1837,-1.1837,-1.1837,-1.1837,-1.1837,-1.1837,-1.1837,-1.1837,-1.1837,-1.1837,-1.2134,-1.2704,-1.2973,-1.3942,-1.5395,-1.5928,-1.6452,-1.7364,-1.7589,-1.7589,-1.7589,-1.7589,-1.7589,-1.7589,-1.7589,-1.7589,-1.7589,-1.7589,-1.7589,-1.7589,-1.7589,-1.7589,-1.7589,-1.7589,-1.7589,-1.7589,-1.7589,-1.7589,-1.7589,-1.7589,-1.7589,-1.7589,-1.7635,-1.7687,-1.7799,-1.7971,-1.8069,-1.8167,-1.8325,-1.8475,-1.8646,-1.8914,-1.9175,-1.922,-1.9272,-1.9272,-1.9272,-1.9272,-1.9324,-1.9532,-1.9576,-2.0285,-2.1038,-2.1988,-2.2593,-2.3294,-2.4304,-2.4805,-2.4962,-2.5216,-2.5684,-2.5684,-2.5684,-2.5684,-2.5684,-2.5684,-2.5684,-2.5684,-2.5684,-2.5684,-2.5684,-2.5684,-2.5684,-2.5684,-2.5732,-2.5878,-2.5965,-2.61,-2.6304,-1.277,-1.277,-1.277,-1.277,-1.277,-1.277,-1.2746,-1.2739,-1.245,-1.2284,-1.2207,-1.191,-1.1837,-1.1837,-1.1837,-1.1837,-1.1837,-1.1837,-1.1837,-1.1837,-1.1837,-1.1837,-1.1837,-1.1837,-1.1837,-1.1837,-1.1837,-1.1837,-1.1837,-1.1837,-1.1837,-1.1837,-1.1837,-1.1837,-1.1837,-1.1837,-1.1897,-1.2084,-1.2682,-1.3601,-1.4767,-1.5542,-1.6471,-1.7371,-1.7589,-1.7589,-1.7589,-1.7589,-1.7589,-1.7589,-1.7589,-1.7589,-1.7589,-1.7589,-1.7589,-1.7589,-1.7589,-1.7589,-1.7589,-1.7589,-1.7589,-1.7589,-1.7589,-1.7589,-1.7589,-1.7589,-1.7589,-1.7589,-1.7641,-1.7641,-1.7635,-1.7799,-1.7911,-1.7964,-1.8167,-1.8265,-1.8377,-1.86,-1.8803,-1.9175,-1.9279,-1.9272,-1.9272,-1.9272,-1.9272,-1.9272,-1.9324,-1.9524,-2.0285,-2.0987,-2.1641,-2.224,-2.3194,-2.4254,-2.4501,-2.5216,-2.5635,-2.5684,-2.5684,-2.5684,-2.5684,-2.5684,-2.5684,-2.5684,-2.5684,-2.5684,-2.5684,-2.5684,-2.5684,-2.5684,-2.5732,-2.5781,-2.5917,-2.6004,-2.6197,-1.277,-1.277,-1.277,-1.277,-1.277,-1.2766,-1.2747,-1.2592,-1.2389,-1.2215,-1.2065,-1.1866,-1.1837,-1.1837,-1.1837,-1.1837,-1.1837,-1.1837,-1.1837,-1.1837,-1.1837,-1.1837,-1.1837,-1.1837,-1.1837,-1.1837,-1.1837,-1.1837,-1.1837,-1.1837,-1.1837,-1.1837,-1.1837,-1.1837,-1.1837,-1.1837,-1.1837,-1.1904,-1.257,-1.3554,-1.4628,-1.5614,-1.6505,-1.7477,-1.7589,-1.7589,-1.7589,-1.7589,-1.7589,-1.7589,-1.7589,-1.7589,-1.7589,-1.7589,-1.7589,-1.7589,-1.7589,-1.7589,-1.7589,-1.7589,-1.7589,-1.7589,-1.7589,-1.7589,-1.7589,-1.7589,-1.7589,-1.7589,-1.7589,-1.7589,-1.7589,-1.7694,-1.7694,-1.7694,-1.774,-1.7845,-1.8016,-1.8174,-1.8384,-1.881,-1.9071,-1.9272,-1.9272,-1.9272,-1.9272,-1.9272,-1.9324,-1.9324,-1.968,-2.0336,-2.0987,-2.154,-2.2089,-2.3144,-2.3998,-2.5011,-2.5684,-2.5684,-2.5684,-2.5684,-2.5684,-2.5684,-2.5684,-2.5684,-2.5684,-2.5684,-2.5684,-2.5684,-2.5684,-2.5684,-2.5732,-2.5742,-2.5781,-2.5868,-2.5917,-1.277,-1.277,-1.277,-1.277,-1.282,-1.2731,-1.2649,-1.2596,-1.228,-1.2113,-1.2004,-1.1857,-1.1837,-1.1837,-1.1837,-1.1837,-1.1837,-1.1837,-1.1837,-1.1837,-1.1837,-1.1837,-1.1837,-1.1837,-1.1837,-1.1837,-1.1837,-1.1837,-1.1837,-1.1837,-1.1837,-1.1837,-1.1837,-1.1837,-1.1837,-1.1837,-1.1772,-1.1991,-1.2584,-1.3539,-1.4732,-1.5904,-1.702,-1.7364,-1.7589,-1.7589,-1.7589,-1.7589,-1.7589,-1.7589,-1.7589,-1.7589,-1.7589,-1.7589,-1.7589,-1.7589,-1.7589,-1.7589,-1.7589,-1.7589,-1.7589,-1.7589,-1.7589,-1.7589,-1.7589,-1.7589,-1.7589,-1.7589,-1.7589,-1.7589,-1.7589,-1.7589,-1.7589,-1.7589,-1.7589,-1.7694,-1.7799,-1.7911,-1.8174,-1.8496,-1.8757,-1.9071,-1.9272,-1.9272,-1.9272,-1.9272,-1.9272,-1.9272,-1.9272,-1.9732,-2.0388,-2.1285,-2.1988,-2.3244,-2.4196,-2.502,-2.5684,-2.5684,-2.5684,-2.5684,-2.5684,-2.5684,-2.5684,-2.5684,-2.5684,-2.5684,-2.5684,-2.5684,-2.5684,-2.5684,-2.5684,-2.5684,-2.5684,-2.5732,-2.582,-1.277,-1.277,-1.277,-1.2816,-1.2759,-1.2629,-1.2519,-1.241,-1.2158,-1.2012,-1.1963,-1.1845,-1.1837,-1.1837,-1.1837,-1.1837,-1.1837,-1.1837,-1.1837,-1.1837,-1.1837,-1.1837,-1.1837,-1.1837,-1.1837,-1.1837,-1.1837,-1.1837,-1.1837,-1.1837,-1.1837,-1.1837,-1.1837,-1.1837,-1.1837,-1.1837,-1.1768,-1.1975,-1.2566,-1.3539,-1.4733,-1.6043,-1.7041,-1.7252,-1.7259,-1.7312,-1.7582,-1.7589,-1.7589,-1.7589,-1.7589,-1.7589,-1.7589,-1.7589,-1.7589,-1.7589,-1.7589,-1.7589,-1.7589,-1.7589,-1.7589,-1.7589,-1.7589,-1.7589,-1.7589,-1.7589,-1.7589,-1.7589,-1.7589,-1.7589,-1.7589,-1.7589,-1.7589,-1.7589,-1.7589,-1.7641,-1.7687,-1.7747,-1.7911,-1.8227,-1.8548,-1.881,-1.9071,-1.9272,-1.9272,-1.9272,-1.9272,-1.9272,-1.9272,-1.9272,-1.9931,-2.1081,-2.219,-2.3642,-2.4559,-2.5177,-2.5635,-2.5684,-2.5684,-2.5684,-2.5684,-2.5684,-2.5684,-2.5684,-2.5684,-2.5684,-2.5684,-2.5684,-2.5684,-2.5684,-2.5684,-2.5684,-2.5684,-2.5684,-2.5732,-1.277,-1.277,-1.2766,-1.2747,-1.2605,-1.2556,-1.2369,-1.2113,-1.2048,-1.1943,-1.1829,-1.1797,-1.1837,-1.1837,-1.1837,-1.1837,-1.1837,-1.1837,-1.1837,-1.1837,-1.1837,-1.1837,-1.1837,-1.1837,-1.1837,-1.1837,-1.1837,-1.1837,-1.1837,-1.1837,-1.1837,-1.1837,-1.1837,-1.1837,-1.1837,-1.1837,-1.1691,-1.1706,-1.2472,-1.3362,-1.4097,-1.4606,-1.5221,-1.5861,-1.618,-1.6452,-1.7094,-1.7259,-1.7417,-1.7477,-1.7582,-1.7589,-1.7589,-1.7589,-1.7589,-1.7589,-1.7589,-1.7589,-1.7589,-1.7589,-1.7589,-1.7589,-1.7589,-1.7589,-1.7589,-1.7589,-1.7589,-1.7589,-1.7589,-1.7589,-1.7589,-1.7589,-1.7589,-1.7589,-1.7589,-1.7589,-1.7641,-1.7635,-1.7799,-1.7911,-1.8227,-1.8548,-1.881,-1.9071,-1.9272,-1.9272,-1.9272,-1.9272,-1.9376,-1.948,-1.9732,-2.0885,-2.1988,-2.3393,-2.4353,-2.502,-2.543,-2.5577,-2.5684,-2.5684,-2.5684,-2.5684,-2.5684,-2.5684,-2.5684,-2.5684,-2.5684,-2.5684,-2.5684,-2.5684,-2.5684,-2.5684,-2.5684,-2.5674,-2.5586,-1.2682,-1.2686,-1.2686,-1.258,-1.241,-1.2312,-1.2182,-1.2032,-1.1926,-1.1845,-1.1845,-1.1837,-1.1837,-1.1837,-1.1837,-1.1837,-1.1837,-1.1837,-1.1837,-1.1837,-1.1837,-1.1837,-1.1837,-1.1837,-1.1837,-1.1837,-1.1837,-1.1837,-1.1837,-1.1837,-1.1837,-1.1837,-1.1837,-1.1837,-1.1833,-1.1837,-1.1667,-1.1829,-1.2364,-1.322,-1.3844,-1.4132,-1.4352,-1.4835,-1.4888,-1.5215,-1.5695,-1.6399,-1.6611,-1.677,-1.7153,-1.7589,-1.7589,-1.7589,-1.7589,-1.7589,-1.7589,-1.7589,-1.7589,-1.7589,-1.7589,-1.7589,-1.7589,-1.7589,-1.7589,-1.7589,-1.7589,-1.7589,-1.7589,-1.7589,-1.7589,-1.7589,-1.7589,-1.7589,-1.7589,-1.7589,-1.7589,-1.7589,-1.7694,-1.7799,-1.7905,-1.8279,-1.8593,-1.8862,-1.9116,-1.9272,-1.9272,-1.9272,-1.9628,-2.0034,-2.0336,-2.079,-2.1836,-2.2994,-2.3791,-2.4501,-2.5069,-2.5323,-2.5693,-2.5693,-2.5684,-2.5684,-2.5684,-2.5684,-2.5684,-2.5684,-2.5674,-2.5645,-2.5606,-2.5635,-2.5684,-2.5577,-2.546,-2.5371,-2.5244,-1.1954,-1.2243,-1.2415,-1.2398,-1.2227,-1.2085,-1.2008,-1.1947,-1.1837,-1.1841,-1.1837,-1.1837,-1.1837,-1.1837,-1.1837,-1.1837,-1.1837,-1.1837,-1.1837,-1.1837,-1.1837,-1.1837,-1.1837,-1.1837,-1.1837,-1.1837,-1.1837,-1.1837,-1.1837,-1.1837,-1.1837,-1.1837,-1.1837,-1.1837,-1.1764,-1.1699,-1.1573,-1.1425,-1.1824,-1.2422,-1.293,-1.3112,-1.3329,-1.3545,-1.3706,-1.3814,-1.4186,-1.4888,-1.5429,-1.5642,-1.6505,-1.6988,-1.7047,-1.7364,-1.7582,-1.7589,-1.7589,-1.7589,-1.7589,-1.7589,-1.7589,-1.7589,-1.7589,-1.7589,-1.7589,-1.7589,-1.7589,-1.7589,-1.7589,-1.7589,-1.7589,-1.7589,-1.7589,-1.7589,-1.7589,-1.7589,-1.7589,-1.7589,-1.7589,-1.7694,-1.7852,-1.8055,-1.8377,-1.8593,-1.8914,-1.922,-1.9272,-1.9272,-1.9628,-2.0086,-2.0439,-2.0688,-2.1242,-2.2291,-2.3144,-2.389,-2.4461,-2.4971,-2.5333,-2.5645,-2.5586,-2.5635,-2.5684,-2.5684,-2.5674,-2.5586,-2.5488,-2.5527,-2.5508,-2.5439,-2.5342,-2.5312,-2.5205,-2.5049,-2.4883,-1.0258,-1.1274,-1.1937,-1.2148,-1.1986,-1.1978,-1.1939,-1.1817,-1.1788,-1.1837,-1.1837,-1.1837,-1.1837,-1.1776,-1.1772,-1.1772,-1.1837,-1.1837,-1.1776,-1.1776,-1.1837,-1.1837,-1.1837,-1.1837,-1.1837,-1.1837,-1.1837,-1.1837,-1.1837,-1.1837,-1.1837,-1.1837,-1.1837,-1.1837,-1.1715,-1.1602,-1.137,-1.1167,-1.1188,-1.108,-1.1295,-1.1337,-1.1664,-1.2363,-1.263,-1.295,-1.397,-1.4132,-1.4239,-1.4298,-1.5375,-1.5968,-1.6127,-1.6876,-1.7259,-1.7312,-1.7318,-1.7371,-1.7529,-1.7589,-1.7589,-1.7589,-1.7589,-1.7589,-1.7589,-1.7589,-1.7589,-1.7589,-1.7589,-1.7589,-1.7589,-1.7589,-1.7589,-1.7589,-1.7589,-1.7589,-1.7589,-1.7589,-1.7589,-1.7589,-1.774,-1.795,-1.8213,-1.8482,-1.8862,-1.9175,-1.9272,-1.9272,-1.9272,-1.968,-2.0086,-2.0388,-2.0637,-2.1438,-2.2433,-2.3044,-2.3493,-2.4007,-2.447,-2.503,-2.543,-2.5528,-2.5323,-2.5635,-2.5596,-2.5449,-2.5215,-2.5078,-2.498,-2.5028,-2.4979,-2.4873,-2.4736,-2.4541,-2.4434,-0.8652,-0.9716,-1.0016,-1.0689,-1.1557,-1.1809,-1.1837,-1.1784,-1.1837,-1.1837,-1.1776,-1.1837,-1.1837,-1.1772,-1.1583,-1.1647,-1.1712,-1.1583,-1.1647,-1.1772,-1.1837,-1.1837,-1.1837,-1.1837,-1.1837,-1.1837,-1.1837,-1.1837,-1.1837,-1.1837,-1.1837,-1.1837,-1.1768,-1.1837,-1.1699,-1.148,-1.12,-1.0992,-1.0798,-1.0696,-1.0692,-1.0692,-1.0907,-1.1286,-1.1341,-1.1555,-1.2037,-1.2733,-1.295,-1.3329,-1.4191,-1.462,-1.4995,-1.5962,-1.6505,-1.6664,-1.667,-1.6988,-1.7529,-1.7589,-1.7589,-1.7589,-1.7589,-1.7589,-1.7589,-1.7589,-1.7589,-1.7589,-1.7589,-1.7589,-1.7589,-1.7589,-1.7589,-1.7589,-1.7589,-1.7589,-1.7589,-1.7589,-1.7589,-1.7589,-1.7687,-1.7845,-1.8108,-1.8422,-1.8803,-1.9175,-1.9227,-1.9272,-1.9272,-1.9272,-1.968,-1.9879,-2.013,-2.0483,-2.1387,-2.1937,-2.2433,-2.3044,-2.3601,-2.4313,-2.4864,-2.4707,-2.4698,-2.51,-2.5498,-2.5234,-2.4932,-2.4597,-2.4499,-2.4587,-2.4502,-2.4414,-2.4238,-2.4053,-2.3965,-0.6874,-0.7911,-0.803,-0.9252,-1.1088,-1.1405,-1.1526,-1.1526,-1.1466,-1.1466,-1.1526,-1.153,-1.153,-1.1466,-1.1402,-1.1398,-1.1583,-1.1522,-1.1647,-1.1712,-1.1837,-1.1837,-1.1837,-1.1837,-1.1837,-1.1837,-1.1837,-1.1837,-1.1837,-1.1837,-1.1837,-1.176,-1.1723,-1.1687,-1.1598,-1.1342,-1.1062,-1.0887,-1.0777,-1.0692,-1.0692,-1.0692,-1.0692,-1.0802,-1.0802,-1.0852,-1.1067,-1.161,-1.1823,-1.2254,-1.2847,-1.3491,-1.397,-1.462,-1.5429,-1.5755,-1.6021,-1.6452,-1.7259,-1.7589,-1.7589,-1.7589,-1.7589,-1.7589,-1.7589,-1.7589,-1.7589,-1.7589,-1.7589,-1.7589,-1.7589,-1.7589,-1.7589,-1.7589,-1.7589,-1.7589,-1.7589,-1.7589,-1.7589,-1.7641,-1.7687,-1.7793,-1.8115,-1.8429,-1.8855,-1.9175,-1.9227,-1.9272,-1.9272,-1.9272,-1.9324,-1.948,-1.948,-1.9879,-2.0328,-2.1038,-2.1735,-2.219,-2.2844,-2.3692,-2.4097,-2.4097,-2.438,-2.5006,-2.5215,-2.5028,-2.4666,-2.4189,-2.4131,-2.418,-2.4053,-2.3877,-2.376,-2.3574,-2.3442,-0.4798,-0.5957,-0.6322,-0.8091,-1.0418,-1.0789,-1.0849,-1.0914,-1.0914,-1.0914,-1.0914,-1.0914,-1.091,-1.097,-1.1212,-1.1337,-1.1458,-1.1647,-1.1712,-1.1772,-1.1837,-1.1837,-1.1837,-1.1837,-1.1837,-1.1837,-1.1837,-1.1837,-1.1837,-1.1837,-1.1837,-1.1707,-1.1614,-1.1488,-1.1468,-1.1155,-1.0891,-1.0729,-1.07,-1.0692,-1.0692,-1.0692,-1.0692,-1.0692,-1.0692,-1.0692,-1.0802,-1.0907,-1.1122,-1.1286,-1.1932,-1.2417,-1.258,-1.3545,-1.4567,-1.5541,-1.5701,-1.6346,-1.7371,-1.7529,-1.7589,-1.7589,-1.7589,-1.7589,-1.7589,-1.7589,-1.7589,-1.7589,-1.7589,-1.7589,-1.7589,-1.7589,-1.7589,-1.7589,-1.7589,-1.7589,-1.7589,-1.7589,-1.7589,-1.7589,-1.7635,-1.774,-1.8122,-1.8496,-1.8914,-1.9175,-1.9279,-1.9272,-1.9272,-1.9272,-1.9272,-1.9272,-1.9272,-1.9428,-1.9879,-2.0431,-2.0987,-2.1438,-2.2038,-2.2785,-2.3741,-2.4344,-2.4665,-2.5072,-2.4951,-2.4727,-2.4277,-2.3809,-2.3799,-2.375,-2.3442,-2.3266,-2.3159,-2.3149,-2.3159,-0.3387,-0.4611,-0.4671,-0.5833,-0.7606,-0.8948,-0.9926,-1.0728,-1.0793,-1.0793,-1.0793,-1.0793,-1.0974,-1.1091,-1.1031,-1.1156,-1.1583,-1.1398,-1.1522,-1.1776,-1.1837,-1.1837,-1.1837,-1.1837,-1.1837,-1.1837,-1.1837,-1.1837,-1.1837,-1.1837,-1.1837,-1.1775,-1.1459,-1.1265,-1.1159,-1.1041,-1.0883,-1.0729,-1.0692,-1.0692,-1.0692,-1.0692,-1.0692,-1.0692,-1.0692,-1.0692,-1.0692,-1.0692,-1.0692,-1.0692,-1.1337,-1.1391,-1.1555,-1.2417,-1.3545,-1.446,-1.4781,-1.5269,-1.6346,-1.6995,-1.7589,-1.7589,-1.7589,-1.7589,-1.7589,-1.7589,-1.7589,-1.7589,-1.7589,-1.7589,-1.7589,-1.7589,-1.7589,-1.7589,-1.7589,-1.7589,-1.7589,-1.7589,-1.7589,-1.7589,-1.7635,-1.7747,-1.8016,-1.8338,-1.8757,-1.9071,-1.9175,-1.9272,-1.9272,-1.9272,-1.9272,-1.9272,-1.9272,-1.9272,-1.9532,-1.9983,-2.0138,-2.0336,-2.1038,-2.1785,-2.2844,-2.407,-2.4668,-2.4898,-2.4682,-2.4463,-2.3984,-2.3574,-2.3364,-2.3218,-2.313,-2.3101,-2.311,-2.312,-2.312,-0.2468,-0.3203,-0.3264,-0.3999,-0.5406,-0.7055,-0.8581,-0.9748,-1.024,-1.0425,-1.0425,-1.0425,-1.0547,-1.0668,-1.0728,-1.0849,-1.1405,-1.1398,-1.1458,-1.1772,-1.1837,-1.1837,-1.1837,-1.1776,-1.1837,-1.1837,-1.1837,-1.1837,-1.1837,-1.1837,-1.1687,-1.1508,-1.1293,-1.107,-1.0932,-1.0846,-1.0814,-1.0704,-1.0692,-1.0692,-1.0692,-1.0692,-1.0692,-1.0692,-1.0692,-1.0692,-1.0692,-1.0692,-1.0692,-1.0692,-1.0692,-1.0692,-1.1013,-1.1446,-1.263,-1.3545,-1.5049,-1.5642,-1.667,-1.71,-1.7582,-1.7589,-1.7589,-1.7589,-1.7589,-1.7589,-1.7589,-1.7589,-1.7589,-1.7589,-1.7589,-1.7589,-1.7589,-1.7589,-1.7589,-1.7589,-1.7589,-1.7589,-1.7589,-1.7589,-1.7641,-1.7799,-1.7964,-1.8233,-1.86,-1.881,-1.9071,-1.9175,-1.9272,-1.9272,-1.9272,-1.9272,-1.9272,-1.9272,-1.9272,-1.9428,-1.948,-1.9331,-2.0181,-2.1234,-2.2256,-2.3547,-2.4121,-2.4629,-2.4343,-2.4062,-2.3682,-2.3325,-2.3218,-2.3159,-2.312,-2.3101,-2.3101,-2.3101,-2.3101,-0.2038,-0.2038,-0.2038,-0.2774,-0.3937,-0.5345,-0.6691,-0.7917,-0.9083,-0.9576,-0.97,-0.9636,-0.9819,-0.994,-1.0183,-1.055,-1.0853,-1.1152,-1.1402,-1.1587,-1.1587,-1.1651,-1.1712,-1.1712,-1.1772,-1.1776,-1.1837,-1.1837,-1.1833,-1.1719,-1.1553,-1.1285,-1.1102,-1.0915,-1.0794,-1.0733,-1.072,-1.0696,-1.0692,-1.0692,-1.0692,-1.0692,-1.0692,-1.0692,-1.0692,-1.0692,-1.0692,-1.0692,-1.0692,-1.0692,-1.0692,-1.0692,-1.0747,-1.0747,-1.2146,-1.3868,-1.5962,-1.6829,-1.7153,-1.7259,-1.7582,-1.7589,-1.7589,-1.7589,-1.7589,-1.7589,-1.7589,-1.7589,-1.7589,-1.7589,-1.7589,-1.7589,-1.7589,-1.7589,-1.7589,-1.7589,-1.7589,-1.7589,-1.7589,-1.7589,-1.7589,-1.7694,-1.7852,-1.8122,-1.8391,-1.86,-1.881,-1.9026,-1.9175,-1.9272,-1.9272,-1.9272,-1.9272,-1.9272,-1.9272,-1.9272,-1.9272,-1.9331,-2.0181,-2.1226,-2.218,-2.2902,-2.3597,-2.3947,-2.3919,-2.3691,-2.3364,-2.3218,-2.314,-2.3101,-2.3101,-2.3101,-2.3101,-2.3101,-2.3101,-0.2038,-0.2038,-0.2038,-0.2222,-0.2713,-0.3939,-0.5223,-0.6446,-0.6935,-0.749,-0.841,-0.8471,-0.9143,-1.0122,-1.0243,-1.0486,-1.0728,-1.091,-1.097,-1.1095,-1.122,-1.1277,-1.1337,-1.1462,-1.1587,-1.1708,-1.1772,-1.1748,-1.1732,-1.1667,-1.139,-1.1082,-1.0984,-1.0842,-1.0749,-1.0692,-1.0692,-1.0692,-1.0692,-1.0692,-1.0692,-1.0692,-1.0692,-1.0692,-1.0692,-1.0692,-1.0692,-1.0692,-1.0692,-1.0692,-1.0692,-1.0692,-1.0692,-1.0747,-1.1555,-1.2847,-1.4835,-1.6346,-1.6499,-1.7153,-1.7529,-1.7424,-1.7529,-1.7589,-1.7589,-1.7589,-1.7589,-1.7589,-1.7589,-1.7589,-1.7589,-1.7589,-1.7589,-1.7589,-1.7589,-1.7589,-1.7589,-1.7589,-1.7589,-1.7589,-1.7589,-1.7641,-1.7799,-1.7905,-1.8174,-1.8338,-1.86,-1.8869,-1.9078,-1.9227,-1.9272,-1.9272,-1.9272,-1.9272,-1.9272,-1.9272,-1.9272,-1.9428,-2.0181,-2.0802,-2.1435,-2.2173,-2.3009,-2.3205,-2.2921,-2.3003,-2.3179,-2.3047,-2.2828,-2.3047,-2.3101,-2.3101,-2.3101,-2.3101,-2.3101,-0.2038,-0.2038,-0.2038,-0.2038,-0.2161,-0.2836,-0.3694,-0.443,-0.5408,-0.6632,-0.7797,-0.7919,-0.8711,-0.9879,-1.0122,-1.0243,-1.0547,-1.0607,-1.0671,-1.0853,-1.0793,-1.0974,-1.1091,-1.1152,-1.1277,-1.1511,-1.1579,-1.1463,-1.1542,-1.1403,-1.1192,-1.1061,-1.0919,-1.0802,-1.072,-1.0692,-1.0692,-1.0692,-1.0692,-1.0692,-1.0692,-1.0692,-1.0692,-1.0692,-1.0692,-1.0692,-1.0692,-1.0692,-1.0692,-1.0692,-1.0692,-1.0692,-1.0852,-1.1067,-1.15,-1.2792,-1.4024,-1.5049,-1.5263,-1.5689,-1.634,-1.677,-1.6935,-1.7206,-1.7477,-1.7589,-1.7589,-1.7589,-1.7589,-1.7589,-1.7589,-1.7589,-1.7589,-1.7589,-1.7589,-1.7589,-1.7589,-1.7589,-1.7589,-1.7589,-1.7589,-1.7589,-1.7694,-1.7799,-1.801,-1.8272,-1.8534,-1.8803,-1.9018,-1.9227,-1.9272,-1.9272,-1.9272,-1.9272,-1.9272,-1.9272,-1.9272,-1.9324,-1.9583,-2.0231,-2.0702,-2.1032,-2.1504,-2.1704,-2.178,-2.1983,-2.2325,-2.2511,-2.2467,-2.2687,-2.2916,-2.3003,-2.3047,-2.3101,-2.3101,-0.2038,-0.2038,-0.2038,-0.2038,-0.2038,-0.2099,-0.2162,-0.2285,-0.443,-0.6265,-0.7245,-0.7487,-0.8099,-0.9204,-0.9451,-0.9819,-1.0122,-1.0243,-1.0368,-1.0732,-1.0547,-1.0668,-1.0728,-1.0789,-1.0944,-1.1079,-1.1125,-1.115,-1.1253,-1.1138,-1.0976,-1.0944,-1.0802,-1.0704,-1.07,-1.0692,-1.0692,-1.0692,-1.0692,-1.0692,-1.0692,-1.0692,-1.0692,-1.0692,-1.0692,-1.0692,-1.0692,-1.0692,-1.0692,-1.0692,-1.0692,-1.0692,-1.1017,-1.1391,-1.1928,-1.2467,-1.3329,-1.3755,-1.4078,-1.4454,-1.4995,-1.5482,-1.5808,-1.6127,-1.6452,-1.7364,-1.7582,-1.7589,-1.7589,-1.7589,-1.7589,-1.7589,-1.7589,-1.7589,-1.7589,-1.7589,-1.7589,-1.7589,-1.7589,-1.7589,-1.7589,-1.7589,-1.7641,-1.7747,-1.7852,-1.816,-1.8475,-1.8691,-1.8959,-1.922,-1.9272,-1.9272,-1.9272,-1.9272,-1.9272,-1.9272,-1.9272,-1.9324,-1.9398,-1.953,-1.9945,-1.9992,-1.9893,-2.0471,-2.0995,-2.1077,-2.132,-2.1463,-2.1739,-2.2104,-2.2369,-2.2775,-2.296,-2.3003,-2.3101,-0.2038,-0.2038,-0.2038,-0.2038,-0.2038,-0.2038,-0.2038,-0.2038,-0.2591,-0.3756,-0.4734,-0.51,-0.6263,-0.8163,-0.8346,-0.8775,-0.9694,-0.9694,-0.994,-1.0061,-1.0122,-1.0286,-1.0354,-1.0393,-1.0534,-1.0692,-1.0717,-1.0693,-1.0734,-1.065,-1.0663,-1.0718,-1.0692,-1.0692,-1.0692,-1.0692,-1.0692,-1.0692,-1.0692,-1.0692,-1.0692,-1.0692,-1.0692,-1.0692,-1.0692,-1.0692,-1.0692,-1.0692,-1.0692,-1.0692,-1.0692,-1.0692,-1.0747,-1.1017,-1.1126,-1.1341,-1.22,-1.2684,-1.295,-1.3329,-1.3976,-1.4298,-1.4567,-1.4674,-1.5316,-1.677,-1.747,-1.7529,-1.7589,-1.7589,-1.7589,-1.7589,-1.7589,-1.7589,-1.7589,-1.7589,-1.7589,-1.7589,-1.7589,-1.7589,-1.7589,-1.7589,-1.7589,-1.7694,-1.7799,-1.8003,-1.8265,-1.8586,-1.8907,-1.9175,-1.9272,-1.9272,-1.9272,-1.9272,-1.9272,-1.9272,-1.9272,-1.9169,-1.9199,-1.9205,-1.9214,-1.9138,-1.9178,-1.9853,-2.0385,-2.0277,-2.0277,-2.0458,-2.0782,-2.1463,-2.1917,-2.2369,-2.2643,-2.2731,-2.296,-0.2038,-0.2038,-0.2038,-0.2038,-0.2038,-0.2038,-0.2038,-0.2038,-0.2038,-0.2407,-0.3143,-0.3754,-0.51,-0.6877,-0.6999,-0.7734,-0.8775,-0.8958,-0.9387,-0.9636,-0.968,-0.9885,-0.9939,-0.9964,-1.0094,-1.0241,-1.0353,-1.0364,-1.0227,-1.017,-1.0212,-1.0315,-1.0417,-1.0527,-1.0531,-1.0637,-1.0692,-1.0692,-1.0692,-1.0692,-1.0692,-1.0692,-1.0692,-1.0692,-1.0692,-1.0692,-1.0692,-1.0692,-1.0692,-1.0692,-1.0692,-1.0692,-1.0692,-1.0802,-1.0747,-1.0911,-1.1286,-1.1664,-1.1878,-1.2309,-1.2955,-1.3171,-1.3329,-1.3437,-1.4347,-1.5636,-1.618,-1.6346,-1.7424,-1.7582,-1.7589,-1.7589,-1.7589,-1.7589,-1.7589,-1.7589,-1.7589,-1.7589,-1.7589,-1.7589,-1.7589,-1.7589,-1.7589,-1.7641,-1.7799,-1.816,-1.837,-1.8639,-1.8966,-1.9123,-1.9227,-1.9272,-1.9272,-1.9272,-1.9272,-1.9272,-1.9272,-1.9147,-1.9008,-1.8736,-1.859,-1.8434,-1.8528,-1.8905,-1.9193,-1.9147,-1.9193,-1.9459,-2.0413,-2.1329,-2.1641,-2.1917,-2.2192,-2.2511,-2.2872,-0.2038,-0.2038,-0.2038,-0.2038,-0.2038,-0.2038,-0.2038,-0.2038,-0.2038,-0.2038,-0.2161,-0.3203,-0.4427,-0.5284,-0.5712,-0.663,-0.7304,-0.7548,-0.8346,-0.8827,-0.9236,-0.9115,-0.9224,-0.9466,-0.9652,-0.9752,-0.9845,-0.9834,-0.9802,-0.9791,-0.9846,-0.9875,-1.0036,-1.0257,-1.0312,-1.0476,-1.0637,-1.0637,-1.0637,-1.0692,-1.0692,-1.0692,-1.0692,-1.0692,-1.0692,-1.0692,-1.0692,-1.0692,-1.0692,-1.0692,-1.0692,-1.0692,-1.0692,-1.0692,-1.0692,-1.0802,-1.0802,-1.0962,-1.0962,-1.1067,-1.1555,-1.1932,-1.2096,-1.2575,-1.3437,-1.403,-1.462,-1.5375,-1.6452,-1.7417,-1.7424,-1.7589,-1.7589,-1.7589,-1.7589,-1.7589,-1.7589,-1.7589,-1.7589,-1.7589,-1.7589,-1.7589,-1.7589,-1.7589,-1.7845,-1.8213,-1.8534,-1.8803,-1.9071,-1.9175,-1.9272,-1.9272,-1.9272,-1.9272,-1.9272,-1.9272,-1.9272,-1.9008,-1.8782,-1.8357,-1.8003,-1.7918,-1.7757,-1.7611,-1.7785,-1.8149,-1.8288,-1.8565,-1.9695,-2.0692,-2.1096,-2.1275,-2.1774,-2.2183,-2.2828,-0.2038,-0.2038,-0.2038,-0.2038,-0.2038,-0.2038,-0.2038,-0.2038,-0.2038,-0.2038,-0.21,-0.2222,-0.3081,-0.4242,-0.4243,-0.4977,-0.6077,-0.6318,-0.632,-0.6628,-0.7755,-0.7951,-0.8358,-0.9065,-0.9327,-0.9372,-0.9353,-0.931,-0.9434,-0.9489,-0.9596,-0.9757,-0.9816,-0.9926,-0.9978,-1.0198,-1.0417,-1.0472,-1.0637,-1.0692,-1.0692,-1.0692,-1.0692,-1.0692,-1.0692,-1.0692,-1.0692,-1.0692,-1.0692,-1.0692,-1.0692,-1.0692,-1.0692,-1.0692,-1.0692,-1.0692,-1.0692,-1.0692,-1.0692,-1.0692,-1.1177,-1.1122,-1.1286,-1.1341,-1.1982,-1.2467,-1.3063,-1.3599,-1.4835,-1.6558,-1.6995,-1.7477,-1.7589,-1.7589,-1.7589,-1.7589,-1.7589,-1.7589,-1.7589,-1.7589,-1.7589,-1.7589,-1.7589,-1.7641,-1.7747,-1.8055,-1.8318,-1.8593,-1.8974,-1.9123,-1.9272,-1.9272,-1.9272,-1.9272,-1.9272,-1.9272,-1.9213,-1.8935,-1.8584,-1.813,-1.7757,-1.7439,-1.7286,-1.7286,-1.7286,-1.7559,-1.7699,-1.7924,-1.8156,-1.9063,-1.9968,-2.0557,-2.1186,-2.2006,-2.2775]}]]